GFSSGP_850_thetae_000.txt.gz
Theta_e
309 311 315 318 322 323 324 331 334 334 334 332 333 333 335 338 342 342 337 339 342 340 336 337 338 337 337 337 337 337 337 337 337 337 337 335 334 333 333 332 331 329 327 324 319 317 315 314 315
311 316 317 319 323 324 328 331 331 332 331 328 330 331 334 335 337 336 336 340 340 343 342 335 335 334 335 337 336 335 335 336 335 333 332 330 330 328 327 324 323 321 319 317 315 315 316 318 321
314 317 318 321 322 323 328 330 332 330 329 330 329 334 334 334 334 333 335 340 342 342 340 331 331 333 334 333 333 334 334 333 330 330 328 325 324 322 320 319 319 317 311 307 308 310 315 320 323
316 317 317 320 322 326 328 331 329 329 331 330 329 333 333 334 333 331 334 337 338 338 328 326 322 323 328 329 330 331 331 331 329 325 324 322 320 319 319 318 317 313 306 309 310 310 312 316 319
318 318 320 323 327 328 329 329 328 329 329 328 328 333 335 336 331 330 331 332 333 328 318 316 317 318 319 320 320 321 321 321 321 321 320 318 318 318 318 317 316 310 308 310 310 310 310 310 309
317 318 320 322 327 328 328 327 328 330 328 325 328 331 335 334 331 329 328 328 330 329 317 317 316 316 315 316 317 319 319 319 318 317 317 317 316 316 315 316 313 308 308 309 310 309 309 309 309
318 319 321 326 327 327 328 326 324 323 325 325 326 331 332 333 332 328 325 325 329 330 320 317 316 315 315 315 317 317 317 317 315 316 317 316 314 315 313 313 311 307 307 309 309 309 308 308 308
318 320 320 326 325 325 323 322 322 323 324 323 324 328 330 332 331 327 324 324 326 330 330 331 328 322 328 318 310 311 312 313 314 316 317 316 327 325 325 319 316 312 309 310 312 312 309 307 308
318 319 324 322 322 320 319 319 319 318 322 322 325 325 329 331 330 327 325 324 325 329 330 330 331 330 329 325 315 317 314 322 323 327 321 328 327 328 325 321 324 322 322 319 318 317 316 315 315
319 321 320 319 319 319 317 318 317 318 320 320 322 327 333 332 330 328 326 324 326 329 330 332 330 329 323 326 327 326 326 325 326 326 326 330 326 325 326 326 324 324 322 322 321 319 320 320 316
319 319 319 318 317 318 318 317 317 318 319 319 320 321 331 332 330 328 325 325 327 330 330 331 331 323 329 326 328 328 328 326 327 330 326 325 324 327 326 325 324 322 321 322 320 321 320 320 316
319 319 318 317 316 317 317 317 316 317 318 318 320 321 330 329 329 328 327 326 327 329 330 334 330 317 319 329 329 328 327 327 327 327 328 324 324 323 319 321 317 318 318 318 319 318 318 317 317
319 318 318 317 316 318 318 318 318 318 318 318 320 324 328 329 330 329 328 328 327 329 329 331 330 322 323 317 328 327 326 328 324 326 325 314 314 317 316 318 317 317 317 317 317 317 317 317 315
319 318 318 318 319 318 318 319 319 320 318 317 319 323 326 329 330 329 329 328 328 329 329 333 335 331 325 327 326 329 326 324 323 323 322 315 314 315 315 314 316 318 318 317 317 318 318 318 318
319 320 320 320 321 320 319 320 320 320 319 319 318 320 323 326 327 328 327 327 328 327 327 333 332 331 326 324 325 326 323 319 321 321 321 321 320 316 315 314 318 319 318 318 317 318 318 317 318
320 321 321 321 321 322 320 322 321 320 320 320 319 319 320 324 325 326 327 327 326 328 328 331 333 331 325 324 324 323 323 322 322 321 320 320 320 319 318 317 315 317 318 316 318 317 317 318 317
321 321 322 323 321 322 321 322 322 321 321 321 321 321 320 320 324 324 325 326 326 326 327 332 332 327 323 322 322 323 323 321 320 319 318 317 317 317 317 315 314 314 315 315 317 317 318 320 318
321 321 320 320 322 320 320 321 322 322 321 321 321 320 321 320 322 325 324 324 326 326 326 327 330 323 322 323 323 321 320 318 318 317 317 316 316 316 313 312 312 314 314 314 315 316 315 312 312
320 320 320 322 321 320 321 322 322 322 322 322 322 322 322 325 327 328 327 325 325 325 325 326 328 322 322 323 320 318 317 316 316 316 315 313 313 313 312 311 312 312 311 311 311 310 309 310 311
320 320 321 322 321 320 322 322 322 322 322 322 322 323 325 325 323 323 324 325 325 326 326 326 324 320 318 317 317 316 315 314 314 314 312 312 312 312 312 310 309 309 309 309 308 310 310 309 308
322 321 324 323 322 322 321 323 322 321 321 321 321 322 322 321 322 322 323 324 324 323 321 320 319 318 316 315 314 313 313 313 313 313 313 312 312 311 308 307 307 307 307 306 302 304 306 308 308
323 322 321 321 321 322 322 322 323 322 321 321 321 320 319 319 319 320 321 321 320 319 318 317 316 314 313 313 313 313 313 313 314 314 313 310 310 308 307 306 305 305 305 304 304 305 305 304 305
323 322 321 322 322 322 323 324 325 322 321 321 320 320 319 319 319 319 319 319 319 318 317 316 315 314 313 313 313 313 313 313 310 309 308 307 307 306 305 304 304 303 303 302 303 304 303 304 305
322 323 323 323 324 331 323 324 326 323 322 321 320 320 320 319 319 319 318 318 318 317 316 315 313 313 313 313 313 312 309 308 308 308 307 306 306 304 302 302 302 302 302 302 302 303 304 303 303
323 324 330 332 335 332 325 323 326 322 321 321 320 320 320 320 319 319 318 318 317 316 316 316 316 315 313 312 311 310 309 308 307 306 305 305 301 301 301 301 301 301 301 301 301 301 300 300 300
323 323 331 329 332 327 322 320 322 321 319 319 318 318 319 319 319 318 318 317 317 316 316 316 315 314 313 312 311 310 308 307 305 304 304 301 301 300 300 300 300 300 299 299 298 298 298 298 297
323 323 320 324 325 326 320 323 321 320 319 319 318 318 318 318 318 317 317 317 317 316 315 315 314 314 313 312 311 308 306 305 304 303 300 300 300 300 300 299 299 299 298 298 297 297 297 297 296
321 320 324 327 328 324 320 321 323 321 320 318 318 317 317 318 318 318 317 316 316 315 315 315 314 314 313 310 308 307 306 304 303 301 300 300 300 299 297 298 297 297 297 297 296 296 295 295 294
322 323 321 319 323 324 324 320 319 320 318 318 317 317 317 317 317 317 316 315 315 314 314 314 313 312 311 309 308 305 303 302 302 301 301 300 299 296 296 295 293 293 294 293 293 292 291 291 292
320 321 319 326 323 327 326 321 319 319 319 318 317 317 317 317 316 315 314 314 313 312 312 312 311 310 309 307 305 303 302 301 300 300 300 298 296 296 295 294 294 293 292 292 291 291 291 291 291

GFSSGP_850_thetae_003.txt.gz
Theta_e
309 309 315 318 318 317 320 324 332 330 329 330 335 336 336 337 337 340 342 340 338 338 338 338 337 337 337 336 337 336 336 335 336 336 334 332 331 331 330 326 323 320 318 317 315 313 313 313 315
309 316 317 318 319 320 325 330 328 327 328 332 333 333 335 334 336 341 342 340 338 337 337 337 336 336 336 335 334 333 334 335 333 330 328 327 326 324 321 319 318 317 315 309 307 307 308 313 317
312 317 317 316 318 319 327 328 326 327 329 329 333 333 333 333 334 340 341 340 338 336 334 333 333 334 333 332 331 332 331 330 328 326 323 323 321 319 318 318 318 317 309 308 309 309 309 311 315
316 317 317 315 317 321 328 326 328 329 330 332 332 333 332 331 335 339 340 341 339 337 329 329 327 326 326 324 325 327 326 325 323 321 320 319 318 317 317 317 317 313 307 309 309 309 309 310 309
318 318 315 317 320 328 325 327 328 328 327 331 335 333 330 331 334 337 339 339 330 325 319 317 318 319 319 320 321 322 322 320 318 317 317 316 316 316 316 316 315 310 308 309 309 308 308 308 308
317 317 316 317 322 326 324 327 328 328 327 330 334 333 330 329 331 333 334 333 318 315 316 316 317 316 316 317 318 319 319 317 316 315 315 315 315 313 312 314 311 307 308 308 308 309 309 308 308
316 315 316 321 325 326 323 323 321 326 323 330 333 331 330 329 328 328 330 330 318 317 317 316 315 315 314 315 316 315 315 314 312 312 315 313 315 317 315 310 311 312 311 311 312 311 312 309 309
317 315 318 320 324 321 321 320 319 322 320 325 330 329 330 329 325 325 325 326 328 322 319 320 319 324 320 309 310 310 309 308 309 311 314 321 319 317 318 320 319 320 319 318 317 316 313 313 313
319 314 315 316 323 317 319 316 316 321 321 326 326 331 332 328 326 324 326 326 331 329 327 329 324 322 324 318 311 309 314 315 316 317 321 323 321 319 319 322 321 320 318 320 318 316 314 313 313
316 313 315 316 315 314 317 316 316 318 320 326 329 331 330 328 326 324 323 325 330 329 331 330 326 318 325 325 325 325 324 323 323 319 319 322 320 322 324 323 320 320 318 318 317 317 315 314 313
317 314 314 314 317 317 316 316 317 318 316 320 330 330 329 329 327 326 323 325 326 327 331 327 323 322 326 325 326 327 327 325 326 327 323 322 326 325 324 319 316 315 316 316 317 317 317 316 316
316 316 316 316 317 316 315 316 316 316 317 318 327 331 331 328 329 326 325 324 326 329 331 330 321 316 326 325 328 326 328 326 327 325 325 317 320 319 314 315 315 316 317 317 317 317 316 317 317
315 315 316 316 316 318 317 316 316 316 318 318 320 330 330 329 328 327 326 324 325 328 330 329 325 317 315 328 329 329 328 328 325 325 323 314 313 316 315 314 314 314 317 317 317 317 316 318 318
318 317 316 316 317 318 317 316 318 318 317 318 320 328 329 329 329 328 328 327 325 328 330 330 330 330 325 324 325 324 326 326 323 323 322 317 316 315 316 314 314 314 318 319 319 318 316 318 318
318 315 315 316 319 317 318 317 316 318 317 317 319 326 327 329 330 329 328 328 327 328 330 331 331 331 329 325 323 324 326 319 322 321 320 320 321 320 319 317 316 316 315 316 315 314 316 317 316
318 316 316 317 318 319 317 316 316 319 319 317 318 319 320 328 329 329 327 327 327 327 330 332 327 326 325 325 322 323 323 321 322 322 321 321 321 319 317 318 313 312 313 313 314 312 315 316 319
317 315 318 318 319 319 317 319 317 319 319 319 319 318 318 320 326 327 326 326 326 326 326 329 330 327 326 324 323 324 323 321 319 318 317 318 317 315 316 315 311 311 311 313 315 315 315 316 315
319 318 318 318 318 318 317 318 318 321 321 321 321 322 321 324 325 326 326 325 325 325 326 330 329 325 322 322 324 322 320 319 318 317 316 315 314 313 312 312 312 312 311 311 312 312 312 311 310
318 318 319 318 319 319 318 318 318 320 320 321 325 324 324 324 324 324 324 325 324 324 328 326 323 321 322 323 323 321 319 316 315 314 313 313 313 312 313 312 311 309 309 309 309 309 309 309 308
319 320 321 319 319 318 318 318 317 320 319 321 322 322 322 323 324 324 324 325 325 325 326 325 323 322 321 320 319 318 316 314 312 312 312 312 313 313 312 311 309 308 308 308 308 307 305 305 305
320 321 320 320 319 318 319 319 318 319 320 320 320 320 320 321 321 322 324 322 321 322 322 321 321 319 318 316 314 313 312 312 312 313 313 311 309 309 309 308 307 306 306 306 306 305 304 303 303
323 321 321 320 319 318 316 319 318 319 319 319 319 319 320 321 320 320 319 319 320 318 318 318 317 316 313 312 313 312 313 313 313 313 310 308 308 308 308 306 305 304 304 304 304 302 302 303 304
322 321 321 321 320 320 319 319 320 320 320 318 318 319 319 319 319 319 319 318 317 316 315 314 314 313 313 312 312 312 311 309 307 307 307 307 307 307 306 304 302 301 301 300 300 301 302 303 304
320 322 322 321 321 321 322 323 325 323 320 319 320 320 319 319 319 318 318 318 317 316 315 315 315 314 313 312 311 310 309 308 307 307 307 306 306 305 302 300 300 301 301 301 301 301 301 301 301
320 321 322 322 320 321 325 324 324 319 319 319 319 320 320 319 318 318 318 317 317 316 316 316 315 315 314 312 310 309 308 307 307 306 305 304 302 300 300 299 300 300 300 300 300 299 299 298 298
321 322 319 326 319 322 317 322 319 317 318 318 318 318 319 319 319 318 317 317 316 316 316 315 315 314 313 312 311 310 308 306 304 305 305 302 300 301 300 300 300 299 299 299 298 298 297 298 297
323 318 318 320 319 318 319 319 318 317 317 317 317 317 319 318 318 317 317 317 316 315 315 315 314 314 314 312 311 308 306 305 307 304 302 301 302 301 300 300 298 299 298 296 295 294 293 292 293
319 318 320 316 320 318 318 323 323 321 319 316 315 316 317 317 317 317 316 315 314 314 313 314 314 313 312 311 309 308 307 306 304 302 302 302 301 301 297 294 294 293 293 292 291 291 290 289 290
320 322 319 318 315 316 316 317 318 318 316 315 316 316 316 315 315 315 314 313 312 312 311 310 310 310 310 309 307 306 306 304 302 302 301 301 300 298 294 293 293 292 291 290 289 289 289 289 289
319 320 320 314 321 314 312 314 316 315 316 316 316 316 315 315 314 314 313 313 312 310 310 308 307 307 305 305 304 305 305 303 302 301 301 299 296 295 293 293 291 290 289 289 289 289 289 289 289

GFSSGP_850_thetae_006.txt.gz
Theta_e
309 309 313 317 317 316 318 321 330 331 332 335 336 335 334 335 336 340 342 340 339 336 337 337 337 336 335 335 336 335 334 335 334 332 328 325 323 320 318 317 316 315 315 310 307 307 307 310 314
309 315 316 317 317 318 322 327 331 332 332 333 334 335 337 339 342 342 341 338 338 336 338 337 337 336 335 335 334 332 333 331 328 324 322 320 318 317 316 316 315 315 312 308 309 308 309 310 313
311 316 317 315 315 316 325 326 326 329 330 333 332 333 333 339 341 341 339 336 338 338 337 336 336 335 334 331 328 328 326 324 322 320 318 317 316 315 316 314 314 314 309 308 309 309 309 309 309
315 317 316 314 315 315 326 325 329 332 332 332 332 331 334 338 340 339 339 335 333 335 336 333 333 330 326 324 324 324 321 320 319 317 316 315 314 315 314 313 314 311 308 308 309 308 308 307 307
318 317 314 315 315 326 326 327 328 327 333 331 331 330 333 339 338 339 338 339 332 331 331 328 323 321 322 324 324 321 320 318 316 315 314 314 314 314 310 312 311 308 308 308 308 308 309 309 308
316 315 314 315 325 324 323 327 327 333 331 330 330 331 332 340 339 339 337 329 324 320 320 319 319 319 319 319 319 318 317 316 314 311 312 314 311 310 310 309 309 311 311 312 314 313 312 310 309
315 313 315 319 328 324 321 323 324 328 332 332 330 328 330 337 338 336 330 317 315 316 317 316 316 316 315 316 316 314 313 311 309 310 311 311 316 315 315 316 317 318 318 317 316 314 313 313 312
317 314 316 319 325 321 319 320 325 329 328 331 330 328 327 331 331 331 330 317 316 316 315 316 316 313 309 310 310 310 309 308 308 310 316 319 317 318 319 317 317 317 316 317 316 315 313 313 313
317 313 314 316 319 319 316 316 321 326 329 329 328 329 328 327 328 327 325 325 321 323 323 321 319 319 315 310 309 311 315 314 314 316 318 317 319 316 317 316 315 316 315 315 316 317 316 314 313
315 312 314 314 317 315 315 316 319 322 327 329 331 330 327 325 325 324 325 330 328 327 327 325 319 318 320 323 322 322 321 320 317 319 316 315 317 317 317 314 313 313 315 316 316 317 316 316 316
314 313 313 313 317 316 314 315 318 318 322 330 330 328 326 325 324 324 326 330 330 329 329 328 319 317 322 323 325 325 326 324 324 322 317 318 318 315 314 313 313 313 315 316 316 316 316 316 316
315 314 315 315 315 314 313 316 315 319 320 326 329 330 327 326 324 322 325 327 330 330 328 329 320 319 324 323 327 325 327 326 326 324 321 316 317 315 314 314 314 314 315 315 315 314 314 316 315
312 313 315 316 317 315 315 314 314 317 319 326 329 329 328 326 325 325 323 324 328 328 328 329 320 325 325 326 328 327 327 327 326 325 322 316 314 315 316 317 316 317 318 317 317 319 318 317 315
315 314 314 315 317 317 315 315 318 316 320 328 330 330 329 327 326 326 325 324 326 328 329 331 323 322 322 328 328 328 328 326 324 321 321 320 320 320 320 318 317 315 315 314 314 315 315 315 314
315 312 313 314 317 317 317 317 316 317 318 329 330 330 329 328 327 327 327 324 325 328 329 330 329 323 324 325 325 326 326 323 322 321 321 321 321 321 321 319 318 315 311 312 312 312 312 313 315
315 313 314 315 316 318 316 314 315 317 317 323 328 330 329 328 328 328 327 327 324 327 329 329 330 325 325 324 324 325 323 321 321 321 321 321 321 321 318 317 315 314 314 312 312 312 312 313 314
313 313 315 317 316 317 316 317 315 316 317 317 318 320 323 327 327 328 328 327 326 327 329 331 330 328 326 322 324 323 323 321 321 319 318 320 318 317 314 313 312 312 313 312 311 311 311 311 311
314 316 314 316 316 317 315 316 316 316 317 320 320 322 324 324 325 326 326 326 325 327 331 330 329 327 326 325 323 323 323 321 318 317 315 314 313 313 312 312 313 312 310 310 310 309 309 309 308
317 317 315 316 316 317 316 316 315 320 322 321 322 324 323 323 324 324 324 325 325 329 330 326 325 325 324 323 323 323 320 316 313 312 312 312 312 312 313 312 312 311 309 308 308 308 308 307 305
319 319 318 318 318 316 315 315 316 320 320 321 322 323 323 322 322 323 325 325 327 326 324 322 321 323 322 321 320 316 314 312 312 312 312 312 312 312 309 309 309 307 307 306 306 306 305 305 303
319 319 319 319 318 314 317 316 318 317 318 318 320 321 321 322 321 321 321 321 320 321 321 320 319 319 319 317 313 312 312 312 313 312 311 310 308 308 308 307 306 305 303 302 302 302 301 301 300
322 320 319 319 317 314 315 317 317 317 317 318 319 320 320 320 319 319 318 318 318 316 315 314 314 313 313 313 312 312 312 311 311 309 308 307 307 307 307 306 304 301 300 299 298 298 299 298 299
321 320 320 319 318 318 318 317 317 317 317 316 317 320 319 319 318 318 317 317 316 316 315 314 314 312 313 313 312 312 311 310 309 309 308 307 307 306 304 302 301 297 297 297 298 299 299 299 300
319 321 320 319 318 318 320 320 320 319 318 317 316 318 318 318 318 318 317 317 317 316 316 315 315 315 315 314 312 312 311 309 308 307 306 305 304 304 303 302 298 299 299 298 298 298 298 298 298
317 320 319 320 317 319 322 322 321 320 318 318 318 318 318 318 318 318 318 317 316 316 316 315 315 315 314 313 312 311 309 308 307 305 305 306 303 303 302 300 300 300 299 295 297 297 297 297 296
320 319 317 324 318 319 318 321 318 317 319 319 320 319 319 318 318 318 317 316 315 315 315 315 314 314 314 313 312 309 307 305 305 306 306 305 303 301 301 301 300 296 293 295 294 292 291 291 290
321 315 316 317 314 315 317 318 317 316 316 317 317 317 318 317 316 316 316 316 315 314 314 313 313 313 312 309 307 307 306 305 305 304 302 302 301 301 301 300 294 292 291 292 291 290 289 288 288
315 316 319 313 317 317 316 320 319 318 316 314 313 315 316 315 315 315 313 313 312 311 311 310 309 308 307 305 304 303 303 304 303 303 302 302 301 301 300 296 292 291 290 290 289 289 288 288 288
318 318 317 315 312 314 314 315 315 317 315 313 314 315 315 314 313 312 311 310 310 309 308 306 305 303 301 300 300 300 301 303 304 302 301 300 300 299 298 294 293 290 289 289 289 288 288 288 288
318 319 315 312 319 310 309 313 314 313 314 315 314 314 313 313 312 311 310 309 308 306 305 304 303 302 300 299 298 300 303 303 302 302 301 301 299 297 295 293 292 290 289 288 288 288 288 288 288

GFSSGP_850_thetae_009.txt.gz
Theta_e
310 308 313 316 317 315 317 319 331 332 335 335 336 336 337 338 337 338 341 340 338 336 337 338 338 338 337 335 335 335 333 333 331 328 324 319 317 316 316 315 313 313 309 308 308 308 309 311 313
308 315 316 317 316 317 321 327 334 334 334 333 335 337 339 342 341 341 341 338 337 336 336 337 337 336 335 335 335 333 332 329 324 321 319 316 315 315 315 312 313 312 308 308 308 308 309 308 308
310 316 316 314 314 315 323 328 330 331 332 332 332 331 335 341 340 340 339 338 337 337 337 336 336 335 335 334 331 329 325 323 320 318 315 314 313 314 312 312 312 309 308 308 308 308 307 307 307
316 317 315 314 316 314 323 324 328 329 331 332 332 332 337 339 340 339 338 338 338 337 336 336 335 334 332 329 326 322 320 319 317 315 312 312 313 312 310 312 309 308 308 308 308 308 308 308 307
316 316 313 314 315 318 320 326 329 330 331 331 332 331 335 338 339 337 336 338 337 337 335 334 333 328 325 323 322 319 318 317 314 310 310 312 311 309 309 308 308 310 311 313 314 313 312 310 308
316 314 313 315 321 323 321 325 331 331 331 331 333 334 336 337 338 337 335 334 335 333 332 327 323 321 321 320 318 318 316 314 311 309 311 311 313 312 313 314 316 316 315 315 313 312 312 311 312
313 311 314 317 325 322 323 326 331 330 330 330 333 327 340 337 336 338 338 332 330 324 319 319 318 316 316 316 316 314 312 309 308 309 312 316 315 316 316 315 315 314 315 314 313 312 311 311 311
316 311 315 320 324 324 320 320 331 331 330 330 331 328 336 339 336 329 328 320 318 317 317 315 313 311 311 313 311 309 308 308 310 315 318 316 316 315 313 313 313 313 314 314 315 313 313 313 313
316 311 312 315 319 323 324 316 325 330 330 328 327 331 337 339 327 320 317 317 317 315 315 316 315 310 308 309 309 312 313 313 314 316 316 317 315 313 312 312 312 313 314 315 315 314 314 314 313
315 310 312 314 317 318 316 321 327 329 328 329 328 331 336 331 329 327 318 316 317 318 319 319 316 316 316 313 316 318 318 318 316 316 315 315 314 314 312 313 313 314 315 315 315 315 316 316 315
314 313 312 313 320 319 317 315 317 326 326 329 327 330 331 329 328 326 319 316 319 322 324 323 318 320 322 323 321 322 321 321 320 317 313 313 313 313 313 313 314 314 315 315 315 316 318 318 317
315 313 313 313 317 314 312 315 319 319 327 328 327 328 328 327 325 324 322 322 326 326 325 327 319 321 322 323 325 324 324 324 321 320 314 312 313 312 314 314 315 315 317 316 315 315 315 314 315
313 312 314 314 314 315 314 313 315 316 321 328 328 326 326 325 324 322 321 322 326 327 328 328 321 319 321 323 326 325 325 325 326 324 318 315 316 318 316 317 316 316 314 313 312 312 312 312 312
313 312 313 315 316 314 313 314 315 315 327 328 328 326 326 325 324 322 324 324 328 328 327 328 325 319 322 323 326 327 327 327 326 322 320 321 319 320 320 320 319 317 316 314 313 313 312 312 312
313 312 312 313 315 315 316 316 313 316 328 328 328 327 327 325 324 324 323 324 326 327 328 329 325 321 322 326 327 328 327 326 323 320 321 321 320 320 321 321 319 317 314 313 313 312 312 311 311
313 311 312 313 315 315 314 312 314 316 327 328 328 327 327 325 325 325 324 323 324 326 329 330 323 326 326 327 327 326 326 323 321 321 322 321 320 320 319 317 314 313 312 312 312 312 311 311 310
310 313 314 316 314 315 314 315 314 313 325 324 326 327 327 327 327 327 326 326 324 325 330 330 328 326 324 325 325 326 321 321 321 320 320 319 318 317 315 313 312 312 312 312 311 310 309 309 309
314 315 313 314 314 315 315 314 313 315 316 319 321 321 323 324 326 326 327 327 326 324 329 329 327 327 326 324 324 323 321 321 320 316 315 314 313 312 312 312 312 309 310 310 309 308 307 306 306
316 315 314 313 315 314 314 315 317 319 321 321 320 321 323 324 324 325 326 325 325 326 328 328 328 326 324 324 323 322 322 316 314 312 312 312 312 312 312 310 308 308 308 307 305 305 304 303 303
317 317 317 316 314 315 317 316 316 318 320 321 319 321 323 325 326 327 326 325 328 329 328 325 325 324 322 321 321 319 317 313 312 312 312 312 311 310 309 308 307 307 306 304 302 301 300 298 297
319 318 318 317 315 315 317 317 315 316 318 320 319 319 321 322 323 323 324 325 325 324 321 318 319 321 321 321 317 312 312 312 312 312 311 310 309 308 307 306 305 304 303 301 300 298 296 296 296
321 319 318 316 316 318 315 318 317 316 317 318 319 319 319 319 320 320 320 319 318 316 315 314 313 313 313 313 312 312 312 312 311 311 310 308 307 306 306 303 303 303 300 299 297 295 294 295 296
320 319 318 318 315 315 316 316 317 316 318 318 318 319 318 318 318 317 316 316 316 315 315 315 314 315 315 314 313 312 312 311 310 308 307 306 305 304 304 304 305 302 298 298 298 298 293 296 297
318 319 318 317 316 317 319 317 317 316 317 316 317 318 318 318 317 317 317 316 316 315 315 315 315 315 314 314 313 312 311 309 308 307 306 305 305 305 305 304 301 300 299 299 299 296 294 295 295
317 318 318 319 316 318 318 320 318 316 315 316 316 317 318 317 317 317 317 316 316 315 315 315 315 314 314 314 313 313 310 308 307 306 305 303 302 302 301 301 301 300 299 294 292 292 291 291 290
318 318 318 322 317 318 317 320 317 316 317 318 318 318 317 317 317 317 316 316 315 315 314 314 314 313 312 311 308 307 306 303 302 303 303 303 301 302 301 300 298 294 292 291 290 289 289 289 288
319 315 315 315 311 315 316 317 315 315 316 317 318 317 317 317 317 316 316 314 314 313 313 312 310 308 306 304 303 302 300 300 303 304 303 302 301 301 300 297 296 295 292 289 288 288 288 288 288
316 315 317 312 315 316 316 318 316 315 315 313 313 314 315 315 315 314 313 312 311 312 310 307 305 305 304 302 300 299 299 302 301 302 301 301 301 301 300 299 296 292 292 289 288 288 288 288 288
317 317 314 313 311 313 313 317 312 314 313 312 312 313 313 313 312 311 311 311 310 308 306 304 303 302 301 299 298 297 297 296 295 294 296 300 300 299 298 297 293 293 291 289 288 287 288 288 288
316 317 313 309 317 308 307 313 312 312 313 313 312 312 312 311 310 310 310 308 306 304 303 302 302 301 300 299 298 297 295 294 292 293 297 299 298 299 297 296 295 290 289 289 288 288 288 288 288

GFSSGP_850_thetae_012.txt.gz
Theta_e
312 308 315 316 313 314 316 318 329 332 335 336 336 337 338 339 338 339 340 339 339 339 339 339 339 338 337 336 334 334 333 332 328 323 318 316 315 315 312 312 311 308 308 308 308 308 308 308 308
309 311 316 317 314 314 318 320 334 334 334 333 334 334 338 339 339 340 340 340 339 339 340 340 340 338 336 334 334 332 331 326 320 318 315 312 314 312 312 312 309 308 308 308 308 307 307 308 307
309 315 315 310 312 315 319 330 332 332 331 331 331 332 334 336 339 339 340 339 338 339 339 339 338 336 334 334 331 329 323 319 317 314 312 312 313 310 311 310 308 308 308 308 308 308 308 307 307
313 317 314 311 314 315 322 327 331 331 330 329 329 333 333 336 337 338 339 338 337 338 338 337 335 334 333 330 326 320 318 317 315 311 311 312 309 309 309 308 308 309 311 314 313 313 312 309 308
315 315 310 312 314 314 315 326 329 330 330 328 325 331 334 339 339 338 338 338 338 337 336 336 335 333 327 323 320 318 317 315 311 309 311 310 309 309 309 313 315 315 314 312 311 311 311 311 311
316 313 311 313 318 321 320 328 331 331 331 330 331 333 337 339 337 336 338 338 337 336 335 334 329 322 321 321 319 317 315 313 309 311 311 312 312 314 314 313 312 313 311 310 310 310 310 310 309
312 308 311 318 324 323 319 330 331 330 330 331 333 328 339 337 335 335 338 338 336 334 329 323 322 321 320 317 317 315 313 310 310 311 315 315 315 314 314 312 312 312 312 312 312 311 311 311 311
315 308 315 323 325 324 323 323 330 329 330 332 332 334 338 338 337 336 335 335 333 325 322 320 317 315 315 315 314 310 309 309 311 317 316 317 316 314 312 312 312 313 313 313 313 313 314 314 312
315 310 311 319 323 324 324 318 325 328 330 328 329 334 334 334 338 336 333 329 323 319 316 313 311 311 312 312 309 309 309 311 316 316 316 315 314 313 312 312 312 313 314 315 315 315 315 315 315
313 310 312 313 319 323 325 321 324 329 328 327 329 335 335 335 330 329 325 318 317 314 314 315 312 309 309 309 312 313 314 314 315 316 316 315 313 312 312 313 313 314 315 315 315 314 315 315 314
313 313 311 314 324 325 317 320 320 327 327 327 333 337 338 334 326 318 315 316 314 315 317 317 316 316 314 315 317 317 318 315 318 315 315 314 313 312 313 313 313 314 314 313 313 313 313 313 313
314 313 313 314 322 318 316 317 324 327 325 327 326 330 336 328 325 325 320 315 315 320 321 321 316 319 322 321 321 321 321 320 321 318 313 312 313 313 314 314 314 314 314 314 313 312 313 312 312
314 313 312 313 316 315 316 314 321 318 325 327 330 330 330 328 327 325 319 315 320 323 323 323 318 319 321 323 325 325 325 325 324 323 318 315 316 317 317 317 317 317 316 314 313 313 312 312 312
314 311 312 313 312 313 311 313 315 315 325 327 328 328 328 327 325 324 321 320 322 325 326 327 324 322 326 326 327 326 326 326 326 325 321 321 319 319 320 320 320 318 317 315 313 312 312 311 311
311 311 311 312 314 312 315 314 313 318 328 327 327 329 328 329 326 325 322 322 323 326 328 329 329 324 327 325 326 326 326 327 326 324 322 321 321 320 321 320 318 317 315 312 312 311 311 310 310
311 309 311 312 314 313 312 310 310 324 327 325 324 324 324 325 325 324 323 324 325 328 329 329 329 326 326 325 323 325 321 325 325 324 323 322 321 320 318 317 316 313 312 311 309 310 310 309 309
309 311 314 315 314 314 312 314 313 318 327 324 325 325 325 324 324 323 322 323 324 328 330 329 328 326 325 323 325 324 325 322 322 322 321 319 318 315 314 312 313 313 310 308 308 309 308 307 306
311 313 312 314 314 311 311 316 315 316 323 321 323 324 325 326 326 326 326 326 325 323 326 328 327 325 326 324 324 323 320 318 319 319 316 314 313 312 313 313 310 308 308 307 307 307 306 304 302
313 314 313 313 313 315 316 316 315 319 318 318 319 321 323 324 324 325 326 326 325 324 326 326 326 326 325 323 320 320 320 318 315 312 312 312 312 311 310 309 308 308 307 306 305 303 302 302 301
315 314 315 314 314 316 317 315 313 315 318 318 320 322 324 324 324 325 328 329 329 328 326 324 324 323 321 321 321 317 313 312 312 311 311 312 310 310 309 308 308 306 304 303 303 303 300 297 295
318 316 317 315 317 315 317 317 315 316 318 319 320 323 324 325 326 327 327 326 323 320 319 318 318 317 317 314 311 313 312 312 311 311 311 310 310 309 307 307 306 305 305 304 303 300 297 297 295
320 318 316 315 316 319 315 321 317 317 318 317 318 320 321 321 322 322 321 317 315 314 313 313 313 313 314 314 314 313 313 313 312 311 310 309 308 306 305 305 305 304 305 301 299 298 297 297 294
319 316 316 315 314 314 316 317 315 317 319 317 317 318 319 319 319 317 316 315 314 314 315 314 314 314 314 314 314 313 313 312 310 309 308 307 305 304 302 300 302 301 301 299 298 298 297 293 292
317 318 315 315 314 315 316 316 316 316 317 317 317 318 317 316 316 316 316 315 315 315 315 315 315 314 314 313 313 312 311 309 307 305 304 305 302 302 300 301 301 300 299 295 293 292 290 290 289
316 316 317 318 315 317 316 318 315 315 314 317 317 318 317 316 316 316 315 316 315 315 315 314 314 314 313 312 312 309 307 304 302 301 302 303 302 301 300 301 302 300 296 294 292 291 290 288 288
317 317 316 320 317 318 316 320 317 313 316 319 318 317 317 317 316 315 315 315 315 315 314 313 313 312 310 308 306 304 302 300 300 299 297 298 299 300 301 300 300 299 297 297 293 289 288 288 288
317 314 314 314 311 314 315 316 315 314 314 316 317 317 316 316 316 315 314 314 313 313 312 311 309 307 304 301 299 298 297 297 296 296 295 294 294 297 300 300 299 297 298 294 291 288 288 288 287
316 313 315 311 315 315 315 317 316 316 315 314 314 315 315 314 314 313 312 312 312 311 310 307 306 303 302 300 300 299 297 296 295 294 293 292 291 299 299 298 298 297 295 293 290 289 288 288 288
316 315 312 312 309 311 311 314 311 314 315 312 312 315 314 314 313 311 311 311 311 311 311 310 304 303 301 299 298 297 295 295 293 292 292 291 293 298 298 297 296 295 294 290 289 288 288 288 288
315 316 311 308 313 307 305 310 309 310 312 313 312 313 313 312 311 310 310 310 309 308 304 304 302 301 299 298 296 296 295 294 292 291 291 290 291 296 296 295 294 294 294 289 288 288 288 288 288

GFSSGP_850_thetae_015.txt.gz
Theta_e
315 309 309 315 317 318 319 321 329 334 338 336 338 339 339 337 338 341 339 338 339 338 339 338 336 336 335 334 334 333 332 330 324 317 315 314 314 311 312 309 308 308 308 308 308 308 308 308 308
310 308 315 316 317 317 322 324 337 335 335 332 331 332 335 336 333 339 339 339 339 337 338 339 336 336 336 334 333 332 329 322 317 314 313 313 311 312 310 308 308 308 308 308 308 307 307 307 307
308 313 316 317 317 319 325 335 334 331 332 332 331 333 334 333 331 337 337 338 339 338 339 339 338 337 335 334 332 328 321 317 314 311 312 313 310 311 309 308 308 308 310 311 311 310 310 309 309
310 316 313 318 318 317 325 333 332 332 328 329 330 332 330 327 333 335 338 340 338 338 339 339 337 335 334 333 328 320 317 315 310 311 312 309 309 309 308 309 313 314 312 311 310 310 310 310 310
314 314 316 316 316 317 317 331 331 331 330 328 327 331 335 336 335 338 340 339 338 338 337 337 335 334 333 329 320 317 317 313 310 312 310 309 309 309 315 315 313 312 310 310 310 309 309 309 309
316 312 316 317 323 322 324 330 331 331 330 329 332 333 337 339 339 339 337 337 337 337 336 335 335 333 326 320 319 318 315 311 310 310 310 310 313 315 314 313 312 311 311 311 311 311 311 311 311
315 314 316 320 326 325 323 330 331 331 330 330 333 335 338 339 337 337 337 337 337 336 335 335 331 324 322 321 319 316 313 309 311 313 313 314 314 313 312 312 312 312 312 312 312 312 312 312 311
315 314 319 325 326 328 324 324 326 328 330 332 333 337 339 337 336 337 338 338 336 335 334 327 323 323 321 319 317 313 311 310 312 315 315 314 313 312 312 312 312 312 313 313 313 314 314 314 313
314 315 322 325 326 327 325 323 323 329 330 329 328 336 336 336 336 338 338 337 335 332 324 321 318 318 317 315 313 311 310 311 317 316 315 315 313 312 312 312 313 313 313 314 314 314 314 314 313
315 316 316 319 325 326 325 323 325 329 329 326 333 336 335 335 336 336 337 336 326 320 318 315 313 313 314 314 311 310 311 316 318 316 315 315 313 312 312 313 314 314 314 314 313 313 313 313 312
313 318 314 314 324 326 324 320 324 329 330 327 335 336 335 339 337 333 328 317 316 317 314 314 310 311 311 310 312 314 316 318 317 317 316 315 314 313 313 314 314 315 315 314 314 313 312 312 312
315 313 312 314 321 324 321 318 326 329 327 328 330 330 332 335 326 316 315 315 315 314 316 316 314 312 311 314 318 320 321 319 320 317 317 317 316 314 315 315 315 316 316 315 315 313 312 312 312
315 314 312 312 316 320 318 319 326 324 323 327 330 332 330 331 328 320 316 316 314 317 319 319 319 320 318 321 323 324 324 325 325 324 319 316 317 317 317 318 318 319 318 317 316 313 312 311 310
315 312 311 311 313 313 315 313 319 317 327 328 328 330 332 332 327 323 320 316 316 321 324 324 322 322 323 324 326 325 325 326 325 325 324 322 321 319 320 320 320 320 319 317 314 312 310 309 310
311 313 312 312 312 312 314 314 312 319 326 329 334 335 334 330 326 325 322 317 318 324 326 328 327 324 325 326 326 325 324 323 322 324 324 321 321 321 320 321 320 319 314 312 312 308 307 308 309
313 313 314 313 314 312 312 314 316 322 324 325 330 332 331 328 328 327 325 324 324 326 328 328 328 327 325 326 323 321 325 322 322 323 323 321 321 320 319 317 315 313 313 310 309 308 307 308 308
314 315 314 315 313 314 315 315 317 317 323 322 322 324 326 326 325 325 325 324 324 326 328 328 327 327 326 324 323 322 325 324 322 321 320 318 316 315 313 312 313 313 310 309 308 307 306 305 305
315 315 314 316 314 317 319 320 319 318 322 321 322 323 323 323 324 324 323 323 323 323 323 327 327 327 326 325 324 324 322 318 320 320 317 314 313 312 312 310 309 309 309 308 307 305 304 303 303
313 314 315 313 315 320 320 320 319 318 319 320 321 323 323 325 325 325 325 326 326 325 324 326 326 326 324 324 323 321 320 319 313 312 312 311 312 312 309 309 308 308 307 306 305 305 305 304 302
316 316 316 316 317 320 320 321 320 318 318 318 320 321 323 324 324 325 326 326 327 326 325 326 323 323 321 321 320 313 311 312 311 311 312 311 311 310 309 308 306 305 304 304 304 303 300 298 297
318 318 316 319 319 318 321 321 322 320 319 318 319 320 322 324 327 329 326 323 320 320 320 320 318 318 318 313 312 313 312 312 312 312 311 311 309 307 306 305 304 301 301 301 301 299 298 299 298
320 317 317 319 320 322 316 321 321 321 321 320 319 319 321 326 325 322 318 317 316 314 313 313 313 313 313 314 313 313 313 313 312 311 309 307 306 305 303 301 300 299 301 300 299 299 298 295 294
319 316 318 315 317 318 319 323 319 321 323 322 320 318 318 321 320 317 315 314 313 313 313 313 314 314 314 313 313 313 312 311 310 307 305 304 305 304 301 299 297 298 301 300 299 296 296 293 291
317 318 318 317 318 321 318 320 321 323 324 322 319 318 316 317 316 314 314 313 314 314 314 314 314 314 314 313 312 311 310 308 305 303 302 301 300 297 296 296 298 299 299 300 297 295 296 294 291
318 320 323 324 326 322 317 320 321 319 319 321 319 318 316 316 315 314 314 314 314 314 314 314 314 314 313 311 308 305 302 300 299 299 297 296 295 295 294 297 300 300 299 297 295 297 293 289 288
318 320 325 323 324 323 317 323 322 316 316 319 319 318 317 316 315 314 314 315 314 314 314 313 313 312 308 304 302 300 299 297 296 296 295 293 293 292 292 294 299 300 299 296 297 294 289 288 288
318 318 316 318 313 319 319 318 317 315 315 317 317 317 316 316 315 315 315 314 313 313 313 311 308 306 304 302 300 299 297 296 295 295 293 292 291 291 291 295 299 299 297 295 294 291 289 288 287
317 314 319 317 319 318 316 318 321 319 317 317 317 317 316 316 316 315 313 312 311 311 309 310 307 304 302 300 299 297 296 296 295 294 293 291 290 290 292 298 298 297 297 294 292 289 289 288 288
318 317 314 315 315 316 317 317 316 318 318 317 318 316 316 316 315 314 311 310 309 308 307 305 304 304 304 299 298 297 296 296 295 294 292 290 290 290 293 296 296 295 295 293 294 290 288 288 288
316 316 315 318 314 312 314 317 311 314 315 315 315 315 315 315 314 311 309 309 308 305 305 305 304 304 299 298 297 296 296 295 294 292 290 290 290 290 292 295 295 294 293 293 292 289 289 288 288

GFSSGP_850_thetae_018.txt.gz
Theta_e
315 312 308 317 322 323 326 326 333 341 340 338 339 339 339 338 341 344 341 342 342 339 337 336 334 333 333 333 333 333 332 330 325 319 315 314 312 311 309 308 308 308 308 307 307 307 307 307 307
314 308 314 319 323 325 326 324 332 339 335 333 330 334 336 334 338 340 340 340 339 339 339 337 335 334 334 334 333 332 331 325 319 315 313 312 311 310 308 308 308 308 308 308 309 309 309 309 309
310 311 318 320 321 323 325 333 335 335 332 330 329 332 334 334 335 339 338 339 339 339 340 337 335 335 335 334 332 331 325 319 314 313 313 311 311 309 308 308 309 312 312 311 311 311 310 310 310
311 315 317 320 322 321 328 334 333 333 332 330 329 330 330 328 328 333 337 339 338 337 339 337 336 336 335 333 331 326 319 315 311 312 311 310 309 308 309 313 312 310 310 309 309 309 309 309 309
314 317 320 320 320 320 327 334 333 331 330 330 330 333 329 332 327 331 332 338 338 332 339 338 337 335 334 331 327 320 317 312 311 312 309 309 308 312 314 313 310 311 311 311 310 311 311 311 311
316 318 320 322 324 326 323 333 333 329 328 329 329 332 337 337 336 337 333 335 337 338 338 337 335 334 331 328 321 319 315 311 312 311 309 309 313 314 313 312 311 311 311 311 312 312 312 312 312
318 318 320 323 328 329 328 332 332 329 327 330 332 335 340 340 339 340 339 338 337 337 336 335 334 332 329 323 322 318 314 310 312 311 310 314 315 313 313 312 312 312 312 313 313 313 314 313 313
318 318 321 325 330 332 331 330 327 328 330 332 334 335 339 339 338 338 339 338 337 336 335 335 333 330 326 323 321 317 313 311 313 314 313 315 314 313 313 313 313 313 314 314 314 314 314 313 312
316 318 322 327 329 330 327 326 325 327 330 331 331 336 338 339 338 338 338 337 336 336 335 333 334 333 332 331 320 316 312 312 316 316 317 316 323 320 316 313 313 314 314 314 314 314 313 313 318
319 320 321 326 328 330 326 325 324 330 331 331 336 338 339 339 338 339 337 337 335 334 331 328 326 325 328 329 316 314 313 320 325 324 319 324 317 320 318 313 314 314 315 315 314 313 314 318 317
319 320 320 325 328 325 325 324 324 328 333 332 336 339 340 340 340 338 338 337 336 336 331 325 322 319 325 325 324 322 322 323 321 319 320 320 317 318 322 322 321 316 315 320 319 319 318 314 314
320 319 317 323 327 324 323 324 325 329 329 330 335 338 338 337 337 336 335 333 331 332 330 315 314 316 315 321 321 318 324 322 325 320 319 320 325 321 320 321 321 317 318 317 317 318 315 313 312
319 319 317 316 321 325 323 323 327 328 327 333 336 337 337 335 334 332 330 330 329 329 329 316 313 312 312 316 319 322 323 324 325 321 318 318 319 317 318 319 319 319 319 318 317 317 315 314 313
319 317 316 314 321 321 323 321 326 323 330 335 335 336 336 335 333 330 328 327 327 327 329 319 318 318 317 324 324 325 325 326 326 326 325 322 320 319 319 320 320 320 319 317 315 314 313 312 311
316 316 316 315 319 320 321 321 319 322 329 333 333 333 334 334 332 329 326 325 324 327 330 324 322 322 322 324 325 319 318 322 325 323 322 323 322 320 321 320 320 316 316 313 313 311 311 311 310
316 317 318 317 318 315 318 320 320 322 328 331 332 333 333 331 330 328 327 325 324 328 330 327 326 324 324 324 323 320 319 323 324 322 323 322 321 320 319 318 314 313 312 311 311 310 309 309 308
316 317 317 318 318 317 318 317 320 324 328 330 331 331 331 328 327 328 327 325 326 329 331 327 328 327 326 323 324 323 321 322 321 320 319 318 316 314 312 312 312 310 309 309 308 308 307 307 306
317 318 317 317 320 317 319 322 321 325 327 327 328 329 328 328 327 327 326 325 328 329 329 327 328 327 327 325 324 324 322 319 319 318 316 313 312 312 312 311 309 308 308 307 307 307 307 307 306
318 318 318 318 321 323 322 322 322 323 327 327 327 327 328 327 326 326 324 324 324 324 324 325 326 326 325 325 324 321 319 320 317 313 312 312 311 311 309 308 308 307 307 307 306 306 306 305 304
319 318 320 319 321 323 324 325 323 322 324 326 327 327 327 327 327 328 329 327 329 328 328 326 326 324 323 322 321 320 318 314 312 312 312 311 311 309 307 307 307 307 306 306 305 303 302 302 302
321 321 322 321 321 323 324 325 325 323 322 322 324 326 327 327 328 328 329 330 330 327 327 326 323 322 321 317 313 312 312 312 312 311 311 310 308 307 306 306 305 303 303 302 302 302 302 301 301
322 320 321 322 322 322 323 322 326 325 325 324 324 325 326 327 329 329 327 325 326 324 321 320 319 317 315 312 314 314 314 315 312 310 308 308 307 305 305 303 299 299 300 301 301 300 299 298 298
322 320 323 322 323 323 323 323 326 326 326 327 326 326 327 328 325 322 321 321 319 318 316 314 313 313 312 312 313 313 312 311 309 308 307 307 306 305 304 303 301 301 301 301 300 299 297 297 297
320 322 322 322 323 324 323 323 322 327 327 327 325 324 325 323 320 318 317 315 315 314 313 313 313 312 312 313 313 312 308 306 305 304 303 301 300 300 300 301 302 301 300 301 299 297 297 297 295
323 323 323 324 325 324 322 323 322 323 324 326 325 323 322 320 317 316 315 314 314 314 313 312 312 312 311 310 306 303 302 301 301 299 298 297 297 297 297 297 299 300 299 299 298 297 297 294 293
323 323 323 321 323 321 322 322 322 321 321 324 324 322 320 319 317 316 316 315 314 313 312 311 311 310 306 304 302 300 299 297 298 297 296 296 296 296 296 297 298 299 299 298 297 297 296 294 293
321 322 322 324 320 324 321 322 322 321 321 322 324 321 320 319 318 317 316 314 313 312 312 310 307 305 303 302 304 300 298 297 297 296 296 295 295 295 296 298 298 298 299 297 297 296 295 294 293
321 320 323 323 323 321 319 320 319 323 322 322 323 321 320 319 318 317 315 313 312 312 309 309 304 304 308 306 300 298 297 297 297 296 295 294 294 294 295 296 297 298 298 297 296 295 295 293 292
321 321 319 320 321 318 316 316 321 321 322 322 322 321 320 319 318 316 314 313 312 310 307 305 305 307 305 300 298 297 297 297 297 296 295 294 294 294 294 294 296 296 296 295 295 294 294 293 291
320 322 319 319 319 320 322 318 317 320 320 321 321 321 320 320 318 316 313 311 310 308 305 305 306 306 301 299 297 297 297 297 296 296 295 294 294 294 294 294 294 294 294 294 294 295 293 291 291

GFSSGP_850_thetae_021.txt.gz
Theta_e
314 313 316 316 323 326 327 328 328 339 340 339 340 339 339 340 346 347 342 342 342 340 335 329 330 331 331 332 332 332 332 331 326 318 315 313 311 310 308 308 308 308 308 308 308 308 308 309 309
319 314 313 320 324 326 327 327 331 339 337 335 336 337 336 339 342 343 342 343 342 341 335 330 330 331 332 332 333 333 331 326 318 314 313 311 311 308 308 308 308 309 310 310 310 310 310 310 310
315 313 318 321 324 326 327 330 338 335 335 335 333 333 334 335 341 342 342 342 341 339 337 334 332 333 333 333 333 332 328 319 315 313 312 311 309 308 308 310 312 311 311 310 310 310 309 309 309
313 314 318 323 325 325 325 335 334 333 334 332 332 332 330 330 337 341 341 340 339 338 337 335 334 334 334 333 332 330 322 317 313 313 311 311 308 308 312 312 310 310 309 309 310 311 311 311 311
314 318 321 323 324 324 329 333 334 333 333 332 331 331 328 331 333 339 342 340 339 338 336 335 335 335 334 332 331 325 320 313 313 313 311 309 308 313 313 310 311 311 311 311 311 312 313 313 313
315 318 322 324 325 324 323 332 333 332 330 329 331 332 333 333 335 337 337 336 335 330 336 336 336 334 333 330 326 321 317 312 313 312 310 308 314 314 312 311 311 312 312 312 313 313 313 313 313
317 320 321 323 328 328 325 332 333 331 328 330 330 333 338 336 337 339 333 334 327 328 337 337 335 333 330 328 323 320 315 311 313 310 309 315 315 313 312 312 312 312 313 313 314 314 313 313 313
317 321 321 322 329 331 330 332 332 330 329 331 332 334 335 338 340 338 330 333 336 333 335 335 334 333 328 324 323 319 314 312 312 311 313 316 314 313 314 314 313 313 314 314 314 314 313 314 319
318 320 320 324 330 331 330 330 329 327 327 331 334 335 338 341 341 339 337 337 337 337 334 334 335 333 332 328 322 317 312 312 316 313 316 317 325 324 322 318 314 314 314 314 314 314 314 319 320
318 319 321 327 329 330 328 327 326 327 325 330 336 337 341 340 340 339 339 338 338 335 334 334 332 332 331 330 321 325 318 321 327 326 321 327 326 326 325 319 314 315 315 315 316 317 320 320 319
318 321 322 325 328 329 328 326 325 328 329 330 334 337 339 340 339 338 337 337 337 336 332 330 329 328 329 328 326 324 324 327 329 329 328 328 327 327 325 325 324 324 322 323 321 321 321 320 319
320 320 320 324 326 325 325 325 326 324 324 328 332 337 339 337 338 338 336 332 331 333 333 336 333 328 329 326 325 325 327 328 328 328 328 329 327 328 325 324 324 323 323 322 321 321 320 319 317
320 321 321 324 325 322 323 324 326 327 326 330 334 338 336 336 334 332 329 329 330 330 331 329 329 329 328 326 328 329 328 328 326 326 323 322 327 321 317 321 323 323 322 322 321 320 318 316 315
320 320 319 321 323 325 324 323 326 326 328 331 334 333 330 331 330 328 328 327 328 328 331 330 329 327 326 329 330 329 326 325 325 325 324 324 320 317 321 319 323 322 321 320 318 316 315 315 314
319 319 318 320 323 324 323 321 323 326 328 330 330 330 330 329 327 326 326 326 327 328 330 330 329 328 330 327 324 319 319 318 320 323 325 324 322 322 320 322 321 320 317 316 315 315 313 313 312
319 319 320 320 323 323 323 321 323 326 327 328 328 329 330 330 328 326 325 324 326 329 332 331 329 330 325 324 322 321 321 320 320 323 323 322 322 322 321 319 318 317 313 313 313 312 311 311 310
319 318 320 320 321 323 323 321 322 325 326 328 329 330 330 329 328 328 327 325 326 330 333 333 331 330 323 325 323 324 321 320 322 320 319 318 318 317 317 316 315 311 312 312 311 311 311 310 310
319 319 319 320 322 322 319 321 321 324 325 328 328 329 330 329 328 329 329 327 327 329 333 334 333 330 327 325 324 323 324 323 320 319 317 316 314 312 313 313 311 310 311 311 311 311 310 309 307
320 320 318 319 320 319 318 321 322 324 325 327 327 328 329 330 330 330 330 330 330 333 334 333 329 329 327 327 327 326 322 320 319 316 314 312 312 311 311 311 311 311 311 310 309 309 308 304 303
319 319 320 320 320 322 320 321 322 323 325 326 326 327 328 329 330 331 331 331 331 332 333 330 329 327 328 327 325 323 322 319 316 314 312 311 311 311 310 310 310 309 308 307 306 305 304 303 302
320 319 321 321 322 322 322 323 325 325 325 326 327 327 327 328 330 331 332 332 333 332 331 331 330 328 325 324 323 321 318 315 315 314 313 311 310 310 309 309 308 307 305 303 303 304 304 302 301
321 322 322 322 323 322 323 322 324 326 325 325 326 327 328 328 329 331 332 333 332 331 330 328 326 324 323 319 317 317 317 318 315 313 312 311 310 309 308 306 305 304 303 303 303 302 302 300 300
324 323 324 323 323 324 324 322 324 327 326 326 325 325 326 328 330 331 331 329 328 326 325 323 322 318 317 317 317 316 316 314 312 311 309 307 305 303 302 301 302 304 303 303 302 302 301 299 300
323 324 324 323 322 324 322 323 326 327 327 327 326 327 328 330 329 326 325 324 323 321 320 318 316 316 316 315 315 314 312 309 308 305 303 301 300 299 299 299 299 300 301 302 302 301 300 299 299
322 323 324 324 325 324 323 323 322 322 326 326 328 328 329 328 324 321 320 319 319 318 317 317 316 315 314 312 309 308 307 303 302 301 300 299 299 298 298 298 298 299 300 301 300 300 299 299 297
323 322 324 321 322 323 324 321 321 325 323 324 327 327 327 325 321 319 318 318 318 318 317 315 315 313 310 308 306 304 310 308 302 300 299 298 298 297 297 297 298 300 300 300 298 298 298 297 296
322 323 323 324 324 324 320 320 323 324 324 324 327 326 326 323 320 319 318 318 318 317 316 315 314 311 307 305 308 310 308 301 300 300 299 298 297 296 296 297 297 298 299 299 299 299 298 297 296
322 323 322 321 321 322 319 320 319 324 323 324 327 325 324 322 320 319 319 319 318 316 316 314 311 307 306 309 308 305 300 300 300 300 299 297 296 296 296 296 296 296 297 297 298 298 297 296 296
323 322 321 322 324 323 319 320 320 319 322 323 325 325 324 322 321 320 319 318 317 316 314 311 307 307 308 308 304 300 300 300 300 299 298 297 296 296 295 295 296 296 296 296 296 296 296 296 295
323 323 323 323 321 321 325 320 319 320 321 322 323 324 324 323 322 321 319 317 316 315 312 309 307 307 306 304 304 301 300 300 299 299 298 297 296 296 295 295 295 295 295 295 295 295 295 295 294

GFSSGP_850_thetae_024.txt.gz
Theta_e
310 311 316 319 318 323 325 325 326 338 341 340 338 338 341 342 346 347 343 343 340 333 328 328 327 327 329 331 332 332 331 329 322 316 313 311 310 308 308 308 308 308 309 309 310 310 310 310 310
313 322 319 316 319 324 325 328 340 338 338 337 338 337 338 341 344 343 343 342 339 331 329 329 329 330 332 333 333 332 330 323 316 313 312 311 309 308 308 309 311 311 311 310 310 309 309 309 309
318 317 314 317 320 324 325 330 337 336 335 336 335 336 336 339 343 342 341 342 338 333 331 330 330 331 332 333 333 331 325 317 313 312 310 310 308 308 310 312 310 310 310 309 310 311 311 312 312
316 315 315 320 322 323 325 335 336 334 334 333 334 332 332 334 342 343 342 342 339 336 330 330 331 332 333 333 332 329 319 314 312 312 311 309 308 311 311 310 310 310 310 311 312 313 313 313 313
316 315 317 320 321 324 325 334 334 333 333 333 332 329 330 333 342 342 341 340 338 336 333 333 333 332 333 332 331 323 317 311 312 311 310 308 311 312 310 311 311 311 312 312 313 313 313 313 313
316 316 319 321 322 324 325 333 331 331 331 333 331 330 333 334 338 339 340 338 338 335 326 330 333 333 333 331 327 321 314 311 312 310 309 310 314 312 311 311 312 312 313 314 314 313 313 314 315
318 318 318 321 322 326 332 334 331 328 331 332 331 334 335 335 338 336 334 336 333 327 327 330 333 333 331 329 324 319 312 311 311 310 309 315 313 312 312 312 312 313 313 314 314 313 314 318 318
316 319 320 321 322 328 333 332 328 331 328 329 332 334 336 339 338 336 332 331 329 331 324 333 334 332 329 325 321 317 310 311 311 310 315 314 313 313 313 313 313 314 314 314 314 314 315 320 320
317 318 320 321 323 329 325 329 331 329 328 325 326 336 341 339 335 334 330 326 327 324 326 332 332 329 324 321 320 315 310 312 312 313 317 325 324 325 327 319 313 314 314 314 315 317 320 320 320
317 319 320 326 330 328 327 327 328 328 328 332 334 341 341 339 336 332 333 330 327 328 332 331 327 328 330 323 318 313 312 321 320 317 326 328 326 327 325 321 320 321 320 321 322 322 321 321 320
318 319 320 326 326 325 328 326 327 329 329 329 331 337 338 338 337 335 334 333 330 331 333 333 331 330 331 325 323 322 325 329 329 326 328 328 324 326 327 324 325 324 323 323 322 322 321 320 318
319 319 320 325 327 326 328 327 326 327 325 326 331 335 337 337 337 337 335 335 334 333 331 329 327 329 328 324 324 325 327 329 329 326 327 325 327 328 324 324 324 324 324 322 322 321 320 318 316
319 321 321 325 325 326 327 328 327 323 325 328 333 336 335 336 336 333 331 332 332 331 325 322 328 330 326 326 325 328 327 327 327 327 321 323 328 326 321 317 320 318 322 322 321 320 319 317 315
319 321 320 324 325 324 326 326 325 326 326 330 334 333 333 332 330 328 329 330 330 332 322 319 328 321 326 326 326 325 323 323 324 325 325 322 322 318 319 318 320 321 322 321 319 316 315 314 313
321 320 320 321 324 324 325 325 325 328 329 330 330 328 328 329 328 327 327 328 329 331 330 329 327 323 329 326 326 324 319 319 320 320 322 325 324 323 322 322 321 321 320 318 314 314 313 312 311
320 320 320 320 323 324 323 322 322 327 327 328 329 328 328 327 326 326 326 327 328 330 330 329 327 328 329 326 321 319 320 320 320 320 321 323 322 322 322 320 319 318 315 313 312 311 311 311 311
321 320 320 320 323 324 323 322 322 324 327 327 327 327 328 328 327 325 325 325 327 332 331 330 329 329 327 321 319 322 322 321 320 321 320 320 319 318 318 317 315 312 311 312 312 312 311 310 309
320 319 320 320 320 323 322 322 322 323 327 328 328 328 329 329 327 328 326 326 327 333 333 332 330 328 325 323 324 324 323 324 323 320 319 316 313 312 313 314 312 312 312 312 311 310 309 308 307
320 321 320 320 321 321 321 321 320 322 324 327 327 329 329 329 329 329 328 327 326 332 334 333 331 330 328 325 325 325 324 321 320 318 316 314 313 312 311 312 312 311 311 310 309 306 304 304 303
320 320 319 319 320 320 319 319 321 322 324 326 327 328 329 329 329 331 331 330 330 334 334 333 330 330 327 326 326 325 322 320 318 316 313 312 312 312 311 311 310 310 309 306 303 303 303 304 303
320 321 321 320 318 318 322 319 321 321 323 324 326 326 328 329 331 331 332 332 332 333 333 332 329 328 328 327 324 323 321 318 316 314 313 312 312 311 310 309 307 304 304 304 303 303 303 303 302
322 323 322 322 322 320 323 324 324 325 323 324 325 326 327 327 330 331 332 333 333 332 331 330 328 328 326 324 323 321 318 316 316 314 313 312 311 309 307 304 303 303 303 304 303 303 303 302 301
322 322 323 322 321 325 324 323 325 325 325 326 326 327 328 328 329 331 332 332 331 330 330 330 327 325 324 319 319 319 318 316 314 313 310 307 306 304 301 301 300 299 298 300 301 302 302 302 300
323 323 324 322 322 328 322 325 324 325 325 321 325 326 327 328 330 331 332 331 330 330 327 325 323 319 318 318 318 317 315 313 311 308 307 306 302 300 299 298 297 295 298 299 300 301 301 301 300
321 321 324 328 329 330 323 323 325 325 324 325 326 326 327 328 330 331 330 328 326 325 323 321 317 317 317 317 316 315 313 310 308 310 308 304 299 298 297 296 295 296 297 299 300 301 301 299 298
324 321 327 329 327 327 324 323 323 325 324 325 327 328 329 330 329 327 326 324 322 320 319 317 317 316 314 312 310 309 308 311 311 308 300 297 298 296 296 296 295 295 297 299 300 300 298 298 298
321 322 322 325 329 327 321 319 321 324 323 323 328 328 330 328 326 323 322 321 320 319 318 317 316 314 311 309 308 308 311 311 304 300 298 298 296 296 296 296 295 296 296 297 298 296 298 298 297
321 321 324 322 323 323 320 320 323 325 322 323 327 328 328 327 324 321 320 319 319 319 318 316 315 313 310 307 308 310 309 304 300 299 300 299 297 296 296 296 296 296 296 295 296 297 297 296 296
323 322 320 320 327 331 329 321 320 320 321 323 324 327 327 326 323 321 320 319 319 319 317 316 315 311 307 307 309 308 305 301 300 300 300 299 297 297 296 296 295 295 296 296 296 296 295 295 295
322 324 322 333 325 330 330 324 320 320 320 321 322 324 326 325 323 321 320 320 319 318 317 316 313 309 308 308 307 305 301 301 301 300 300 299 298 297 296 295 295 295 295 295 294 293 294 293 294

GFSSGP_850_thetae_027.txt.gz
Theta_e
312 310 313 319 314 312 316 318 323 335 338 338 338 341 342 343 345 343 341 341 336 329 330 330 329 332 326 328 331 331 329 322 315 312 310 309 308 308 308 309 310 310 310 309 309 309 309 309 312
312 314 321 321 311 312 315 322 337 337 337 337 337 337 341 344 342 342 341 339 331 328 328 326 328 326 328 331 332 330 324 316 312 311 310 308 308 308 310 311 311 310 309 310 310 311 312 312 312
311 322 321 308 309 312 316 329 335 335 335 335 334 334 336 343 342 343 341 338 334 328 328 328 327 330 332 332 331 327 318 313 311 310 309 308 308 311 311 310 310 310 311 312 313 313 313 313 313
315 316 315 312 314 315 316 330 333 334 333 333 333 331 332 341 342 341 340 337 328 326 327 329 331 332 333 333 330 322 316 312 311 310 308 308 311 310 310 310 311 311 313 313 313 313 313 313 313
317 316 309 312 314 317 324 332 332 331 332 331 331 331 333 340 340 339 337 334 328 328 329 331 332 333 332 332 327 318 313 312 310 310 308 311 311 310 311 311 312 313 314 314 313 313 314 316 315
317 315 311 312 314 323 331 330 330 330 331 331 331 331 334 338 338 338 336 336 334 330 331 331 333 332 330 331 324 317 311 311 309 309 309 312 310 311 312 312 313 314 314 313 313 314 317 318 317
315 313 312 313 315 329 332 330 330 330 331 330 331 335 336 339 336 336 336 336 331 331 332 332 332 328 327 329 320 315 310 311 309 309 313 312 311 311 312 313 313 314 314 314 315 315 318 320 318
316 311 312 314 315 333 327 328 329 329 329 330 333 334 336 337 334 334 334 334 332 327 326 326 324 331 331 324 318 312 310 310 309 312 312 312 311 312 312 313 314 314 314 314 316 319 319 321 319
317 311 311 313 326 328 326 326 329 328 327 327 335 336 335 332 332 330 329 328 329 327 326 325 330 329 327 320 316 311 310 310 311 315 313 314 319 320 320 313 313 314 315 319 321 321 321 321 320
315 310 314 325 327 326 326 326 326 326 328 331 331 332 330 333 329 326 326 327 325 324 321 326 329 327 323 319 314 310 312 312 316 324 324 322 318 321 319 324 324 322 323 323 322 322 321 320 319
315 314 315 325 327 326 327 328 326 327 327 329 327 329 330 331 327 326 324 323 325 324 330 328 327 328 324 317 312 319 323 321 319 325 327 325 322 322 327 326 325 324 324 323 322 321 320 319 318
315 316 317 327 326 326 327 326 322 325 326 330 325 333 332 333 327 325 325 326 329 331 330 329 330 330 323 320 324 325 324 323 321 329 329 327 325 325 326 325 324 323 323 322 322 321 320 319 318
316 316 319 326 326 326 325 326 326 323 325 332 330 333 332 332 332 330 329 330 331 332 332 332 330 328 324 325 326 327 327 329 327 324 327 322 327 327 324 324 322 319 319 322 321 321 320 319 316
318 318 320 325 326 327 327 327 325 324 329 333 334 333 334 333 331 332 331 328 330 331 329 328 328 327 325 325 326 327 327 328 328 326 324 326 323 321 320 318 317 320 320 322 321 319 317 315 313
320 318 318 321 324 324 325 324 322 324 328 331 334 333 332 329 331 332 331 331 329 320 325 326 329 326 326 325 326 327 322 324 325 325 323 324 323 323 322 322 322 320 320 319 316 313 312 311 311
319 318 318 319 323 323 322 320 323 325 325 330 330 329 329 327 328 331 331 330 330 323 320 320 322 325 327 325 324 324 320 318 318 319 320 320 322 323 322 322 321 317 313 312 311 311 311 311 310
318 317 318 318 321 322 321 320 325 328 328 327 327 327 327 327 327 328 328 329 329 328 320 325 322 327 327 324 324 321 320 320 321 320 321 321 320 320 319 315 312 312 311 311 311 311 311 310 306
318 319 316 317 319 321 320 318 318 326 327 327 328 327 327 326 325 325 326 327 328 329 329 326 323 326 326 325 322 320 323 323 323 321 319 317 314 313 311 311 311 311 311 311 311 311 309 303 302
320 318 317 316 317 321 320 318 318 321 326 325 327 328 328 327 325 325 325 326 330 331 330 329 328 327 328 325 320 324 324 322 320 319 317 312 312 312 312 312 312 311 311 311 310 306 301 301 300
321 321 319 317 318 318 318 317 317 318 322 326 323 328 328 328 328 327 327 326 331 332 331 331 331 329 328 324 321 325 323 320 319 319 315 312 312 312 312 311 310 309 306 303 301 301 300 301 303
321 321 320 319 317 316 320 317 319 319 322 325 325 328 329 329 329 328 328 330 332 333 333 331 331 329 326 326 326 325 321 320 319 317 313 312 312 311 310 308 306 304 303 302 302 301 300 303 302
320 321 321 321 320 316 319 319 324 322 322 322 325 328 329 328 329 330 330 329 332 333 334 331 330 326 325 326 327 324 322 320 318 315 313 312 311 309 308 306 304 302 301 301 300 301 300 302 302
321 320 321 322 321 322 322 320 319 322 320 322 321 324 328 328 330 331 331 332 331 333 331 331 327 328 328 328 326 322 320 317 316 314 312 311 309 310 309 305 300 299 297 295 295 297 301 301 302
321 321 322 322 321 321 321 321 323 322 322 322 323 325 326 328 331 331 332 332 332 331 330 328 328 326 325 323 323 319 319 316 314 313 313 310 310 308 302 299 297 295 294 294 295 298 300 301 301
321 320 321 322 321 323 324 323 322 322 321 323 323 323 324 329 330 331 332 332 331 329 328 330 327 324 324 319 319 318 317 316 315 313 310 312 307 300 297 295 295 294 294 294 297 299 299 300 299
320 321 323 325 326 324 324 324 322 321 322 323 323 323 322 329 330 331 332 331 330 329 328 325 324 323 320 319 318 317 316 314 312 310 311 309 301 297 295 294 294 294 293 294 297 298 298 297 298
321 319 323 324 323 324 321 318 321 321 322 322 322 321 328 329 331 330 329 329 328 327 325 323 320 318 317 317 317 316 315 311 310 311 307 299 297 296 295 294 294 293 294 294 294 296 297 297 297
320 319 321 320 321 321 318 319 324 322 321 322 321 327 330 330 329 328 327 326 325 324 322 319 317 317 316 315 313 311 309 310 308 303 300 298 298 296 295 294 294 294 294 295 295 295 295 295 295
320 319 319 319 319 320 320 319 318 318 320 320 324 329 330 329 327 325 324 322 321 320 319 317 317 316 315 312 310 308 309 306 303 301 299 299 299 298 297 296 295 295 295 295 295 295 295 294 293
320 321 322 316 319 317 315 317 317 316 318 320 321 327 329 328 326 323 321 320 319 319 319 318 316 315 313 311 308 308 307 303 301 300 300 300 299 299 298 297 296 294 294 295 295 294 295 294 293

GFSSGP_850_thetae_030.txt.gz
Theta_e
315 311 310 316 314 308 313 315 316 327 337 337 340 342 342 342 344 340 340 340 333 336 337 337 336 333 325 327 330 329 323 314 310 309 308 308 308 309 310 310 310 309 310 310 310 310 318 320 319
312 311 318 319 308 309 311 314 319 334 335 335 336 340 342 344 341 341 340 339 328 334 337 336 332 328 326 330 330 326 316 312 310 309 308 308 309 311 311 310 310 310 311 313 313 313 313 316 316
312 317 322 311 305 309 310 322 334 332 333 334 333 333 338 343 340 340 339 334 330 334 334 335 330 326 330 331 329 320 314 311 309 308 308 309 311 310 310 310 311 313 313 313 313 313 313 313 315
315 317 316 308 310 310 314 315 333 332 332 332 331 330 336 342 342 342 339 331 330 331 332 330 327 330 332 331 326 316 312 310 309 308 309 311 310 310 311 312 313 314 314 313 313 315 314 314 315
316 316 308 309 310 315 326 329 332 331 331 332 330 332 340 341 340 341 337 329 328 328 328 327 330 332 332 329 319 314 311 310 309 308 311 310 310 312 313 313 314 314 313 313 315 317 317 316 315
316 311 309 310 313 331 330 329 329 331 331 332 330 333 337 339 339 337 333 328 328 329 328 330 332 332 330 323 317 311 310 309 309 309 312 310 312 313 313 314 314 314 314 315 316 318 318 317 317
315 312 312 313 314 326 332 329 329 329 329 330 332 333 335 338 337 335 333 330 328 331 333 332 331 331 329 323 316 310 311 309 308 311 311 311 312 313 314 314 314 314 314 315 317 319 319 318 318
315 310 311 311 313 318 327 328 329 329 328 329 333 333 335 333 337 334 334 331 331 332 329 326 325 323 321 321 313 310 310 309 309 313 311 311 311 313 314 314 314 314 314 317 320 320 320 320 319
316 313 311 312 318 327 327 327 330 327 329 334 335 335 333 334 335 334 330 330 329 329 327 323 319 325 327 319 312 310 310 309 314 312 312 311 312 313 312 313 315 317 319 322 321 321 321 321 320
314 310 313 313 325 325 325 326 327 325 330 331 332 330 329 330 330 329 331 329 328 326 325 324 322 328 324 317 311 310 309 312 313 312 314 315 321 319 323 322 323 322 323 322 321 322 321 320 318
314 313 313 318 326 325 324 325 326 327 327 329 329 327 326 329 328 327 328 327 325 325 322 326 329 329 322 315 310 311 311 319 322 323 322 321 323 324 325 324 324 323 323 322 322 321 320 318 318
314 315 315 322 326 326 325 325 321 325 327 328 328 328 329 327 324 324 326 325 323 322 325 329 326 325 319 314 311 313 313 323 327 326 325 320 323 323 326 325 324 323 323 322 322 321 320 319 318
314 315 319 324 325 326 325 326 322 327 327 327 327 330 329 327 323 322 323 324 323 326 328 325 327 322 317 314 319 321 322 322 324 325 326 326 327 324 325 324 323 319 319 322 322 321 320 319 318
319 316 324 326 326 325 325 326 324 327 327 331 331 330 329 328 324 323 324 326 329 330 327 327 326 323 324 325 324 324 326 324 322 326 328 323 324 326 325 323 320 318 320 320 321 320 318 314 312
319 316 319 325 326 326 325 324 321 326 331 332 331 331 329 327 326 324 326 328 331 330 330 330 328 324 324 325 326 326 326 329 328 326 325 323 322 322 320 319 322 321 320 319 317 313 311 311 310
317 315 316 322 324 325 320 322 323 327 332 332 332 331 331 330 329 327 327 326 330 330 332 329 327 325 325 325 326 327 327 327 326 323 319 319 319 321 323 323 322 319 314 311 311 311 310 310 310
314 316 318 319 321 322 318 320 323 325 330 331 331 332 332 331 331 330 328 327 325 329 328 328 327 325 325 326 327 327 325 322 321 321 320 320 321 322 322 320 317 313 311 311 311 310 310 310 308
318 319 318 317 318 320 318 318 323 324 325 328 328 329 327 332 332 330 330 330 328 317 319 324 326 327 324 325 325 325 322 320 322 321 320 320 320 318 313 312 312 311 311 311 310 310 309 304 300
319 319 318 317 315 320 318 317 324 324 325 326 325 326 326 327 331 329 329 330 328 320 317 317 317 322 323 326 324 324 320 323 323 322 320 317 313 311 311 311 311 311 311 310 308 304 300 298 297
319 319 319 317 316 319 318 317 318 318 323 325 325 325 326 327 329 328 328 330 329 328 326 323 319 319 322 325 324 322 321 324 323 321 319 313 312 311 312 312 311 310 309 306 301 299 298 298 298
319 320 320 319 315 314 315 318 319 318 323 325 326 327 326 325 326 326 327 327 328 329 329 329 328 328 325 326 326 321 323 323 321 319 318 314 312 312 312 311 311 311 305 300 300 299 300 300 300
318 319 319 319 318 315 316 319 319 321 319 324 323 325 327 325 325 325 325 327 327 329 330 331 330 329 328 328 326 320 324 321 320 318 317 313 312 312 312 311 311 308 302 300 299 296 296 298 300
319 319 319 321 319 319 320 316 317 320 317 321 322 325 326 327 326 326 326 326 327 329 331 330 330 330 330 326 322 323 321 319 319 318 316 314 313 313 310 312 308 302 299 297 294 294 295 298 301
319 320 319 320 319 320 321 318 317 320 319 318 320 322 324 327 328 328 328 329 331 331 332 332 329 327 327 325 325 324 322 321 320 317 314 314 313 308 307 302 302 298 295 294 293 293 297 299 300
320 318 318 319 319 319 322 319 318 320 319 319 320 321 324 327 328 329 329 330 331 332 331 330 329 326 327 327 327 327 325 324 320 316 314 313 308 308 308 300 296 295 294 293 293 294 295 298 298
319 318 318 322 321 320 322 323 321 319 320 321 321 321 322 326 328 330 331 331 332 332 330 328 327 327 325 326 324 321 320 318 316 314 313 309 307 300 298 295 295 294 293 293 293 293 294 296 297
319 318 318 320 319 322 320 319 318 320 320 321 321 322 322 327 329 331 331 332 332 331 329 328 328 327 324 320 319 317 316 314 313 311 309 306 300 299 296 296 294 294 293 292 292 293 295 295 295
319 318 320 318 322 324 317 317 321 321 322 319 321 321 324 330 330 331 331 332 331 329 328 328 328 327 324 321 318 316 314 312 310 309 307 304 301 298 299 297 295 294 294 293 293 294 295 295 295
319 318 317 317 315 318 318 317 313 318 319 321 319 322 325 329 330 330 331 331 330 329 328 327 325 324 322 319 317 316 314 311 309 308 305 300 300 301 300 298 297 296 296 294 293 294 294 294 294
318 319 319 315 316 314 313 317 316 314 316 321 322 322 327 329 329 329 329 329 328 327 326 323 322 320 318 317 316 315 312 310 309 306 302 301 301 300 299 299 298 296 296 294 293 294 294 295 294

GFSSGP_850_thetae_033.txt.gz
Theta_e
315 312 309 314 312 307 312 313 313 317 333 339 339 340 341 341 341 338 340 337 333 338 338 338 337 333 324 326 327 325 316 310 308 308 308 308 310 310 310 310 310 310 310 313 319 320 317 318 319
312 311 314 316 308 309 310 311 316 317 335 339 338 341 341 343 338 340 338 335 334 338 338 338 337 330 325 328 328 322 313 309 308 308 308 310 310 310 310 310 311 313 313 313 314 315 316 317 316
312 316 321 308 303 309 310 313 333 332 333 332 332 335 340 341 338 338 339 338 335 338 338 338 335 327 327 329 326 317 311 309 308 308 310 311 310 310 311 312 313 313 313 313 313 315 316 318 318
314 316 312 307 309 309 311 312 317 332 330 331 330 329 340 341 339 339 339 340 339 338 338 337 332 325 330 329 323 313 310 309 308 309 311 310 310 311 312 313 314 313 314 315 314 316 316 316 317
315 314 308 308 309 312 327 328 330 331 331 331 332 336 338 338 341 340 338 339 338 338 338 336 327 329 330 326 316 311 309 309 308 310 311 310 311 312 313 314 313 313 315 317 316 315 315 315 314
315 310 308 309 311 321 329 329 329 330 330 328 331 335 336 335 338 336 336 337 336 336 336 331 328 331 327 317 312 310 309 309 309 311 310 311 312 313 314 313 313 314 316 317 317 317 317 317 317
313 310 311 312 312 313 330 329 329 329 329 330 330 334 334 336 335 335 333 333 335 335 331 329 330 327 318 313 312 310 309 308 310 310 310 312 312 313 314 313 314 315 316 317 318 318 318 318 319
315 309 312 311 311 313 327 328 329 328 328 331 334 335 333 333 335 333 330 330 333 329 331 331 327 321 316 314 313 312 309 308 312 310 311 312 313 313 313 314 314 315 316 318 319 320 320 320 320
315 311 311 313 314 325 327 327 328 329 332 334 335 333 332 334 332 332 331 329 325 327 326 325 322 320 318 317 315 311 309 309 313 310 311 312 313 313 313 314 314 315 320 320 320 320 320 320 320
312 310 313 312 318 324 326 326 327 330 331 330 330 331 332 332 334 332 329 328 327 324 322 322 322 320 320 315 311 311 309 313 312 311 312 313 314 313 314 316 320 321 321 321 321 321 321 320 319
313 313 312 314 323 325 325 324 326 329 329 330 329 330 332 333 332 330 329 328 327 325 320 321 322 327 321 314 312 310 311 314 313 314 320 320 319 322 322 322 322 322 322 322 322 321 320 319 318
314 313 313 315 325 325 324 324 321 325 326 331 329 326 328 330 330 330 330 329 328 326 323 321 328 326 321 313 311 310 314 314 317 319 321 323 322 322 323 323 323 323 322 321 321 321 319 319 318
312 314 315 315 325 325 325 323 325 327 327 328 327 326 326 326 327 328 328 325 324 323 322 322 328 325 319 312 312 311 322 323 323 324 323 321 320 320 324 324 323 322 319 320 321 320 320 319 316
317 316 324 324 325 325 324 325 327 327 328 327 328 324 324 323 326 327 325 325 322 322 325 325 324 322 319 313 315 313 321 324 324 326 325 325 323 324 325 324 323 321 319 320 321 321 319 315 312
319 318 323 324 325 325 324 322 326 327 329 328 327 326 324 325 323 323 323 324 322 325 328 323 325 322 318 316 321 321 320 321 322 325 327 325 323 325 324 323 321 321 321 320 318 314 311 311 310
316 314 318 324 324 324 320 323 321 328 329 330 330 329 328 327 322 322 322 324 326 328 325 325 325 322 319 323 325 325 326 326 326 326 326 324 324 323 322 320 321 321 319 314 311 311 310 310 310
313 315 317 323 322 322 320 320 320 328 329 330 331 330 329 328 324 323 323 324 329 328 326 327 326 324 324 324 325 326 328 329 329 326 321 320 320 323 323 323 322 320 312 311 311 310 310 309 304
317 317 316 317 316 320 322 319 322 325 328 329 330 330 329 327 326 323 323 326 328 327 327 326 328 326 324 325 325 328 329 328 325 321 321 320 320 321 322 321 317 311 311 311 310 309 305 301 299
318 318 318 317 317 319 318 318 322 323 325 326 328 330 331 329 329 328 326 326 326 329 329 328 327 326 324 325 326 328 327 323 321 322 321 320 320 320 317 312 311 311 311 310 308 305 300 299 297
319 319 319 317 315 315 316 317 320 321 324 327 328 328 330 331 329 330 329 328 327 327 328 329 327 325 325 325 325 326 325 323 322 321 320 318 316 313 311 311 311 311 310 309 307 302 299 297 296
318 319 318 319 317 314 315 317 316 316 323 325 326 328 328 329 330 330 329 329 329 327 323 322 321 321 324 325 325 326 324 322 322 321 321 317 313 312 311 311 311 310 310 309 308 301 298 295 295
319 318 318 318 317 313 314 316 317 316 321 322 325 324 325 326 328 330 330 328 328 327 325 323 319 319 320 323 326 326 324 322 322 323 320 317 314 312 311 312 310 310 307 306 301 297 295 294 295
318 319 318 319 319 317 317 315 314 318 316 322 323 324 324 325 326 328 329 328 328 329 327 325 324 323 322 323 327 327 324 322 322 322 318 316 314 312 312 311 308 304 304 302 296 294 293 294 296
318 319 317 317 318 318 320 317 316 318 318 318 323 323 324 324 325 326 326 327 328 329 328 327 328 328 326 326 327 327 323 321 322 320 317 316 314 313 312 308 305 303 303 295 295 293 293 294 297
317 315 316 317 318 318 319 319 318 316 316 317 317 323 324 325 325 324 325 325 327 327 328 328 329 328 328 328 329 327 324 321 323 319 318 316 314 313 308 304 302 306 299 298 294 293 292 293 295
319 316 316 320 318 318 320 322 319 318 318 318 319 320 322 323 324 325 325 325 325 326 327 329 329 329 328 328 327 325 323 324 323 321 318 315 313 308 303 301 304 300 295 294 293 292 293 293 295
319 317 316 318 316 319 318 318 315 317 319 318 319 321 323 324 324 326 327 327 328 329 329 329 329 329 327 325 325 326 326 325 324 320 315 313 307 304 305 307 297 297 295 294 293 292 292 293 295
318 317 317 316 321 322 317 316 318 320 319 318 318 320 323 323 325 326 327 328 329 330 331 329 329 328 326 326 325 324 325 322 320 318 314 311 310 309 308 299 300 298 296 294 294 293 292 294 294
318 317 315 315 314 316 316 317 312 317 318 317 317 320 321 325 326 327 328 329 330 331 331 329 328 327 327 326 325 323 320 318 315 314 311 309 309 307 300 303 300 298 295 295 295 293 293 293 293
318 318 315 314 316 312 312 315 313 312 313 316 321 321 322 323 325 326 329 330 330 330 330 329 328 328 327 325 323 320 318 315 314 312 310 308 305 301 302 300 299 298 295 295 294 294 294 293 293

GFSSGP_850_thetae_036.txt.gz
Theta_e
315 313 309 315 311 306 310 312 311 314 325 338 339 340 339 339 338 336 339 337 336 334 337 337 335 329 323 325 324 321 314 309 308 308 308 309 310 310 309 309 311 314 316 316 317 318 318 321 323
312 311 313 316 307 309 309 310 314 322 330 333 332 336 339 339 337 337 338 336 334 336 337 337 335 328 324 326 325 318 310 308 308 308 309 310 310 309 310 310 313 317 317 317 315 316 316 318 319
312 317 319 306 303 309 309 310 324 330 330 331 331 335 338 339 338 336 337 335 339 338 337 337 333 326 326 327 323 312 308 308 308 309 310 310 309 310 312 313 313 313 313 313 314 315 316 316 317
312 320 310 307 308 308 309 311 325 329 330 331 330 334 339 337 338 336 337 336 337 338 337 337 332 324 328 326 317 310 309 308 308 310 310 309 310 313 313 313 313 313 313 313 314 314 316 316 315
316 313 307 308 308 309 316 327 329 330 331 332 332 334 336 335 340 338 338 338 337 338 337 336 329 327 329 321 313 309 308 308 310 311 310 310 312 313 313 314 315 315 315 315 315 315 314 315 315
314 309 306 308 310 311 327 329 329 330 330 331 333 334 335 334 337 338 338 338 334 336 336 331 327 328 325 314 312 309 308 308 311 310 310 311 313 313 313 314 316 316 317 317 317 317 318 317 316
312 308 309 311 311 311 328 328 328 328 328 329 330 335 335 335 333 336 337 337 336 335 334 331 328 326 318 312 310 308 308 310 311 310 311 312 313 313 313 314 315 316 317 318 318 318 319 319 319
315 307 311 310 311 311 325 328 328 327 327 332 333 334 334 335 332 336 336 334 335 334 332 330 329 320 314 311 309 308 308 311 310 310 311 312 313 313 313 314 315 316 317 318 319 320 320 319 319
313 309 310 312 313 315 326 327 327 330 331 331 333 334 333 334 333 334 333 331 330 330 327 328 318 313 313 311 309 309 309 310 310 311 312 313 313 313 314 314 315 316 318 319 320 320 320 320 319
311 309 312 311 312 323 325 325 327 330 331 330 331 331 332 331 332 331 330 327 327 327 325 320 318 316 315 316 314 313 310 310 310 311 312 313 313 313 313 314 315 319 320 320 321 321 320 320 319
311 312 311 313 314 322 324 324 326 330 330 329 330 330 330 330 330 328 328 326 325 323 324 322 319 319 318 317 313 311 308 312 311 311 312 313 313 313 315 319 320 321 321 322 321 320 321 319 318
313 312 313 313 320 324 323 324 324 325 326 330 329 331 329 330 329 328 326 324 324 323 322 323 321 320 317 314 311 309 311 313 311 313 313 316 315 317 321 321 322 322 322 322 319 320 320 319 317
311 312 315 314 323 324 323 323 325 327 330 329 327 330 329 329 329 329 328 325 320 322 321 320 321 321 319 312 312 309 314 313 314 321 323 322 321 322 322 322 323 323 322 319 320 320 320 319 317
316 317 321 323 324 325 326 326 326 327 329 327 327 329 327 326 328 329 328 328 325 322 322 326 327 324 317 312 312 311 314 318 321 323 323 320 321 322 322 324 324 322 320 319 320 320 319 316 311
317 321 322 323 324 324 324 321 326 328 327 326 327 326 324 321 322 328 329 326 324 324 321 323 327 326 320 314 312 311 319 324 324 323 324 325 323 323 325 324 323 323 320 321 319 317 312 310 310
314 314 318 323 323 323 320 323 325 328 326 327 325 325 325 323 322 326 326 325 322 322 327 326 324 324 321 314 316 312 322 324 324 324 325 325 324 323 325 324 322 320 321 319 313 310 310 310 309
312 314 317 324 323 322 319 321 323 328 327 327 327 326 325 326 323 323 324 324 322 322 327 324 323 324 320 314 322 323 320 322 324 323 324 325 324 324 325 322 321 322 319 312 311 310 310 307 302
317 317 316 317 316 322 322 319 321 327 328 329 328 329 328 328 324 320 322 323 322 324 327 325 325 323 320 319 324 326 326 327 327 327 326 322 320 320 323 323 322 319 312 311 310 309 304 300 299
317 317 317 315 315 317 320 319 321 324 327 328 329 330 329 328 323 321 321 322 324 327 326 325 325 324 323 323 324 324 326 327 327 326 323 320 320 320 322 321 317 312 311 310 308 304 300 299 297
318 318 317 316 314 315 315 317 322 322 325 327 329 329 329 328 327 324 323 322 323 324 325 325 326 326 325 324 324 325 325 326 326 323 321 321 320 320 319 316 312 311 310 308 306 303 300 297 296
317 318 317 318 316 314 315 316 321 320 324 325 327 329 328 329 329 327 326 325 324 323 323 325 325 325 325 326 325 325 326 326 323 321 321 321 317 316 314 312 311 311 308 307 305 300 296 297 296
318 316 317 317 316 314 313 314 316 317 323 321 324 327 329 329 329 329 328 328 327 326 325 325 324 324 326 325 324 324 325 325 324 322 321 319 315 313 311 311 311 309 307 305 304 299 300 301 296
317 317 318 318 317 316 317 315 314 315 317 322 322 325 328 328 328 328 328 328 328 327 327 326 326 325 327 325 325 325 326 325 324 322 320 318 315 313 312 311 310 308 307 306 307 306 308 304 294
318 318 314 315 316 317 317 316 316 316 317 319 321 323 327 328 327 327 327 328 329 328 328 327 326 325 325 325 325 325 326 326 323 322 320 317 315 315 313 311 309 305 305 308 310 312 299 294 293
316 314 315 316 317 318 317 318 317 315 314 315 315 320 326 328 328 326 327 326 327 328 328 328 327 325 323 323 324 325 325 326 323 322 321 318 317 316 313 311 310 304 305 311 307 296 295 293 292
317 314 315 318 317 316 317 319 318 317 317 318 317 317 320 323 325 326 326 326 326 327 328 328 328 325 325 324 325 324 325 326 323 322 321 319 317 316 313 311 305 307 311 309 300 295 294 292 292
317 317 314 316 314 318 316 316 313 316 318 318 318 318 317 322 324 326 326 325 325 326 325 326 327 326 326 326 327 327 327 326 323 321 320 319 318 316 314 310 309 308 306 301 296 294 293 292 292
317 315 316 314 320 321 316 315 315 316 317 318 318 319 321 320 321 323 323 324 325 325 325 324 325 326 327 327 327 326 326 324 324 323 322 321 318 316 311 308 310 303 301 298 295 295 294 293 292
316 316 313 313 313 316 315 315 311 314 316 316 315 319 320 322 322 323 324 324 325 326 325 326 328 329 328 329 327 326 325 325 322 321 321 320 318 313 307 309 305 302 299 296 295 296 294 294 294
314 315 314 314 316 311 311 314 313 310 310 313 316 319 320 321 323 324 325 326 326 326 327 328 328 325 326 324 325 325 325 322 321 320 319 317 314 308 307 302 301 299 298 295 297 296 294 294 294

GFSSGP_850_thetae_039.txt.gz
Theta_e
315 313 309 315 316 314 315 316 313 317 323 336 340 339 339 337 339 340 338 340 338 339 336 332 328 324 324 323 321 316 312 310 308 308 309 309 309 310 310 310 310 312 314 316 317 319 319 316 316
312 310 314 315 315 314 315 313 317 331 330 333 332 336 339 339 336 335 339 338 339 339 335 332 326 324 325 323 319 313 310 308 308 309 309 310 310 310 311 313 314 315 315 314 315 316 317 316 317
311 314 318 316 312 315 316 313 324 330 330 332 332 336 338 339 335 335 336 338 339 338 336 330 325 325 325 322 317 311 308 308 308 310 310 309 310 311 314 315 315 314 314 314 315 315 316 317 317
312 319 310 314 314 312 313 313 327 329 330 330 332 338 336 336 338 335 337 337 339 337 336 330 325 325 325 321 312 308 308 308 309 310 309 310 311 312 313 313 313 313 313 314 315 316 315 315 317
314 314 314 312 311 311 311 325 329 331 331 332 332 337 336 336 339 336 339 336 337 337 335 329 325 326 325 317 310 308 308 308 310 309 310 311 313 313 313 313 314 314 314 314 314 315 315 315 315
314 309 313 313 313 312 321 328 330 331 330 332 334 335 335 336 338 337 339 336 336 337 335 330 327 322 318 312 309 308 308 309 310 309 311 313 313 314 315 316 315 315 315 316 317 317 317 317 316
315 314 314 313 314 314 325 327 329 329 328 329 332 335 334 335 335 336 338 337 337 336 334 330 327 325 312 310 308 308 309 311 309 310 312 313 314 315 316 316 317 317 317 317 318 319 319 319 318
314 313 314 313 313 314 324 327 327 327 329 332 333 334 335 333 333 333 335 336 336 334 333 330 328 322 312 310 308 308 310 310 309 311 313 313 313 314 315 317 318 318 318 319 319 320 320 319 319
313 316 315 314 314 316 326 328 328 329 331 331 332 333 333 333 333 334 334 334 333 333 331 329 324 313 311 310 308 310 311 310 310 311 313 313 313 314 314 315 317 318 319 320 320 320 320 320 319
314 315 315 314 314 319 325 326 328 331 331 331 331 332 333 333 332 333 332 330 329 327 326 326 320 313 309 309 309 311 311 310 310 312 313 313 313 314 314 315 315 319 320 321 320 320 320 320 319
312 316 314 314 313 317 324 325 326 330 331 330 330 331 332 331 332 331 328 328 328 327 325 321 319 315 313 310 315 317 311 310 311 312 313 313 313 313 313 314 318 320 321 321 321 320 320 319 319
314 313 313 313 319 323 324 324 329 326 327 329 330 330 331 330 331 329 326 326 322 322 318 317 316 316 317 318 317 311 312 311 311 312 313 313 313 313 315 318 320 321 322 322 320 320 320 319 319
313 314 314 317 322 323 323 324 326 328 329 330 329 328 328 329 328 327 325 325 324 320 318 318 317 318 318 317 312 309 310 311 311 312 313 313 313 314 320 322 323 323 322 320 320 319 320 320 318
315 316 322 323 324 324 326 327 325 328 329 327 329 328 329 327 327 324 323 322 321 321 320 320 320 317 317 316 313 309 313 312 311 313 315 317 320 322 322 322 323 323 321 320 319 320 320 318 311
316 321 322 324 324 326 323 323 327 328 328 327 328 327 327 328 328 326 323 321 322 322 321 319 318 318 321 315 313 310 314 313 314 321 322 322 321 322 322 323 324 322 321 320 320 319 314 310 310
315 316 319 323 324 323 320 324 326 328 328 328 327 327 326 326 327 328 328 322 321 320 322 325 327 326 320 315 312 310 314 317 321 323 324 323 323 321 322 324 323 322 320 320 319 312 310 310 309
315 317 319 325 324 324 321 323 325 328 328 327 327 326 324 324 325 327 327 327 326 323 322 323 324 325 322 318 313 312 315 321 325 325 324 323 323 323 324 324 323 320 320 319 312 310 310 308 302
319 319 318 319 318 323 324 321 326 328 328 327 327 327 325 325 324 324 325 325 323 322 323 322 324 323 325 323 315 317 313 322 321 323 322 323 323 323 323 324 322 322 320 314 311 310 308 303 300
318 319 319 318 317 321 325 323 326 327 328 328 328 328 327 325 322 322 323 323 323 321 322 326 326 323 324 321 315 322 323 321 324 324 324 324 323 320 320 322 322 321 317 311 310 308 306 302 298
318 319 319 317 315 316 317 319 321 326 328 328 329 329 329 328 326 323 321 322 322 322 323 326 326 324 324 322 319 322 325 325 326 325 325 324 321 320 320 321 321 318 311 311 308 308 303 298 298
318 319 318 319 317 315 317 319 320 323 325 326 327 328 328 328 328 326 323 320 321 322 324 326 325 324 324 324 323 323 324 324 325 325 325 322 320 320 320 320 317 312 311 309 308 305 303 304 301
320 317 317 318 318 318 314 319 316 321 325 324 326 326 328 328 327 327 326 323 323 321 322 324 326 325 325 326 326 325 324 324 324 325 324 321 320 319 318 316 313 311 310 308 305 307 304 307 306
320 317 318 319 318 318 318 319 318 317 322 326 325 325 327 328 328 327 327 327 326 325 323 323 324 325 326 325 326 325 326 325 325 325 322 321 319 318 316 313 311 311 309 306 306 309 310 310 306
317 318 315 317 319 322 319 320 321 320 320 322 323 325 326 327 328 328 328 328 328 328 327 326 325 325 326 324 324 326 326 325 325 325 323 322 319 317 315 312 312 311 308 305 307 310 312 304 298
317 318 321 320 324 323 319 320 322 319 316 318 319 321 324 326 327 328 328 327 327 327 327 328 327 327 326 326 326 326 326 326 325 325 324 323 321 318 316 314 313 310 307 305 309 311 307 298 295
318 319 322 320 322 319 318 322 320 318 317 317 318 318 317 319 324 327 328 327 326 327 326 327 329 327 327 324 324 325 325 325 326 325 325 323 321 320 316 314 311 308 305 307 309 306 301 294 297
318 319 316 320 317 323 319 319 317 317 319 319 319 319 318 317 318 320 323 327 327 326 326 326 327 328 328 323 324 325 325 324 324 324 324 321 320 319 316 313 310 306 305 309 306 300 295 297 298
318 317 321 319 323 323 319 318 318 318 318 317 319 320 320 320 319 321 322 323 324 326 324 325 325 327 327 326 326 326 326 326 325 325 324 322 321 318 316 312 308 304 308 307 304 296 296 300 296
318 319 316 317 318 321 320 319 317 318 317 319 317 317 320 321 321 321 321 322 323 323 324 324 324 325 325 325 326 326 326 325 325 323 322 322 321 317 315 310 304 306 304 299 296 296 299 298 294
316 319 319 323 319 316 318 319 315 316 314 313 315 315 318 320 321 322 322 323 324 324 324 325 325 325 325 325 325 321 322 322 322 321 321 321 320 318 312 305 304 304 300 298 297 297 300 295 294

GFSSGP_850_thetae_045.txt.gz
Theta_e
316 316 318 317 319 319 319 320 322 323 324 328 332 333 334 334 336 337 332 344 344 340 337 335 341 339 338 338 337 335 335 333 325 315 308 308 309 308 308 311 315 319 317 315 314 316 317 316 314
319 316 316 317 319 318 320 320 321 321 327 328 333 334 334 339 341 340 338 340 342 339 338 336 340 340 338 337 336 335 334 325 315 308 308 308 308 309 311 315 319 319 317 315 316 316 316 313 313
317 317 318 321 320 319 319 320 321 325 326 326 329 334 336 341 340 342 339 341 340 338 337 336 338 337 337 336 335 334 325 315 308 308 308 309 310 310 315 317 319 321 319 316 317 316 316 313 314
317 318 317 317 318 319 319 321 320 322 324 326 327 334 340 341 342 340 340 329 330 334 335 331 336 336 336 335 333 324 315 308 308 308 310 310 311 315 316 315 318 320 318 317 316 316 315 314 314
316 317 319 320 318 319 318 319 318 323 325 329 330 333 338 341 341 343 340 340 334 338 333 333 329 333 332 328 323 315 309 308 308 310 310 311 315 315 315 315 316 316 317 316 316 315 315 314 313
318 318 319 319 319 318 318 318 322 324 328 332 332 332 341 338 339 343 341 340 339 338 336 331 327 327 325 320 314 309 308 308 310 310 312 315 315 314 314 315 315 315 315 316 316 316 317 317 316
319 320 319 318 318 321 325 328 330 330 329 332 335 334 340 338 337 340 340 339 339 337 336 327 327 322 318 313 309 308 308 309 310 311 314 315 313 313 314 315 315 316 316 317 319 319 318 319 317
317 319 319 319 322 323 324 325 329 330 332 334 334 335 337 337 337 338 338 339 337 335 331 327 325 321 314 309 308 308 309 310 310 312 313 313 314 314 315 315 317 318 319 319 319 319 319 319 318
317 320 319 319 321 321 322 324 328 330 331 334 335 338 338 334 335 337 338 337 335 333 331 327 327 322 317 311 308 309 311 309 312 313 313 315 315 316 319 318 317 318 319 320 320 320 320 319 318
319 321 320 320 321 321 322 325 329 331 330 332 336 335 333 334 333 333 335 335 333 332 328 327 326 320 312 314 317 314 313 313 314 314 315 317 316 322 323 318 318 319 320 320 320 320 319 320 318
320 320 321 321 320 320 322 324 328 330 331 323 334 332 333 333 331 332 331 331 329 329 330 326 323 319 312 312 311 313 316 320 314 316 319 319 322 323 319 318 319 320 321 320 320 319 320 320 318
320 321 320 321 320 322 326 323 327 328 332 334 335 330 330 330 330 330 329 330 329 326 324 324 320 316 317 318 317 317 319 314 315 318 323 321 324 322 323 323 324 323 323 321 321 321 320 320 319
321 321 322 323 322 326 327 328 329 333 332 333 330 330 329 328 327 327 328 326 324 323 321 318 318 316 316 315 314 317 317 314 316 317 323 323 323 323 324 325 325 325 324 323 321 320 319 320 317
321 321 324 324 325 326 327 329 329 333 331 331 331 329 328 327 325 324 324 322 321 321 320 317 315 315 315 315 315 313 315 316 321 322 321 323 323 323 324 325 325 324 323 323 321 320 319 318 315
320 321 324 322 325 326 327 324 329 331 328 327 329 330 328 326 322 324 321 321 319 318 317 317 317 316 313 312 311 312 315 318 321 320 321 322 323 323 325 326 325 324 323 322 321 320 319 317 314
320 322 323 324 326 327 325 324 330 329 328 328 326 330 329 327 326 327 324 321 320 319 318 316 314 312 314 315 315 316 318 319 318 321 324 324 325 326 325 326 325 324 323 322 321 320 319 315 314
321 322 323 323 324 327 326 326 330 328 327 328 325 328 329 326 326 325 324 322 321 319 317 318 316 318 319 320 323 321 320 321 320 321 324 325 326 325 324 326 325 323 322 322 321 320 317 315 311
320 321 322 324 324 325 325 326 329 329 326 327 325 326 328 324 327 326 325 322 321 322 321 320 320 322 322 323 324 322 320 322 322 322 325 326 326 322 322 325 324 323 322 322 320 318 315 312 310
321 321 322 323 322 321 323 324 325 329 329 326 327 325 326 326 325 328 325 324 324 324 324 324 323 322 323 324 324 322 320 320 322 324 326 327 327 324 324 325 324 323 322 321 319 317 313 311 309
321 321 321 322 322 322 322 323 323 328 328 327 326 327 325 325 328 328 329 326 327 326 326 325 325 325 326 327 327 324 322 320 322 324 326 325 326 326 324 325 324 322 321 320 318 315 313 312 309
322 322 323 322 323 322 322 322 322 325 327 327 326 325 326 325 325 327 328 328 327 326 326 326 326 327 327 328 327 326 323 322 322 324 326 325 326 326 325 325 323 322 320 318 318 316 312 311 311
322 322 321 322 322 323 323 324 324 324 327 329 327 326 326 326 326 325 326 329 329 328 328 328 328 328 327 327 328 327 323 325 327 325 325 327 327 326 325 324 322 320 319 318 316 314 311 310 311
322 322 322 323 324 324 323 321 324 323 324 326 328 327 326 326 326 327 325 324 328 329 329 329 329 328 329 329 328 328 327 326 327 327 327 327 327 325 323 322 320 320 319 316 315 311 310 310 309
322 323 323 324 324 326 323 323 324 323 321 321 325 326 327 326 326 327 327 326 325 326 328 329 329 329 329 330 329 330 329 327 327 327 327 326 325 322 322 321 321 321 319 315 313 310 309 308 308
322 324 325 325 326 326 324 323 323 324 322 322 323 323 325 327 326 326 327 328 328 327 327 328 328 327 329 330 328 328 328 325 324 327 328 325 324 322 321 321 322 320 319 314 312 310 309 306 307
323 324 326 330 326 325 324 322 322 323 322 322 322 323 323 325 327 327 326 327 328 329 330 330 330 329 329 331 330 319 322 322 321 321 323 325 324 323 321 320 322 320 316 314 311 310 306 306 308
323 324 324 325 325 324 323 322 322 321 321 321 322 324 325 325 324 326 327 327 328 330 332 332 332 332 331 330 329 324 323 323 322 322 324 325 324 322 322 321 321 318 315 312 311 307 305 306 303
323 324 324 324 325 327 322 323 322 321 321 320 320 322 323 325 324 324 326 327 328 330 331 333 335 334 333 331 330 326 325 323 321 321 324 324 324 322 323 322 320 318 314 311 310 304 305 304 300
323 324 323 324 324 326 326 323 322 321 321 321 322 320 321 322 325 325 325 326 327 329 331 333 336 335 334 332 330 329 325 324 324 324 324 325 323 322 322 321 318 314 312 312 304 303 302 300 300
322 323 323 325 324 324 325 325 322 322 321 321 321 321 321 321 323 325 327 328 328 329 329 332 334 334 334 333 332 331 326 325 325 326 326 325 322 321 320 321 319 313 313 308 303 302 299 299 299

GFSSGP_850_thetae_048.txt.gz
Theta_e
314 316 318 320 318 319 319 319 320 320 323 327 331 329 328 328 331 339 334 332 328 333 338 340 340 338 337 336 334 334 334 332 326 317 309 310 310 309 309 314 319 325 318 314 316 315 313 311 310
317 323 319 317 319 320 319 320 319 323 328 326 325 328 328 328 329 341 332 326 328 332 335 339 341 341 337 336 334 334 333 329 321 310 309 309 308 309 313 317 318 316 315 316 315 313 312 312 312
315 319 318 320 321 319 319 320 321 322 326 327 327 324 330 331 326 339 341 341 338 338 335 337 340 341 338 336 335 334 333 324 314 308 309 308 309 312 317 317 316 315 316 316 315 313 313 311 315
320 319 319 319 317 318 319 320 321 321 322 325 326 326 339 340 341 342 339 342 337 334 331 334 339 339 339 336 335 334 327 317 308 308 308 309 312 316 318 318 317 315 316 316 315 314 313 311 314
318 318 319 320 320 320 319 320 319 319 322 325 323 329 339 337 339 342 340 342 338 332 333 335 328 338 338 336 335 331 321 309 308 308 310 311 315 317 318 319 317 316 316 316 314 314 313 311 311
319 319 319 319 320 320 326 322 326 322 322 327 327 328 322 324 336 341 342 338 335 336 337 334 334 337 336 335 333 323 312 308 308 310 310 314 316 316 317 317 316 316 316 316 316 316 317 314 311
319 320 319 320 322 324 325 323 323 328 331 329 325 329 321 333 336 339 341 339 337 336 335 332 336 336 334 332 323 313 308 308 310 310 314 316 316 316 316 316 315 315 316 318 318 318 318 314 312
318 318 319 320 320 322 322 323 325 327 329 327 321 335 333 333 335 337 338 337 336 335 336 330 332 331 327 323 317 310 309 310 310 313 316 315 315 315 315 315 316 317 319 319 319 319 318 315 312
318 318 320 321 322 322 322 323 325 325 329 329 327 332 335 334 334 335 337 336 336 336 334 328 327 326 326 320 314 313 310 311 315 317 315 314 315 315 315 317 318 318 319 319 320 320 319 316 313
319 320 321 321 321 321 321 322 328 325 329 324 321 324 331 336 332 332 335 335 334 334 329 326 327 324 322 322 311 310 312 316 316 314 314 315 315 316 316 317 318 319 320 319 320 319 320 320 318
319 320 321 321 321 321 321 323 323 327 331 324 323 324 331 331 330 330 332 332 332 331 330 326 325 323 320 318 313 314 313 313 315 315 316 317 319 321 318 317 318 319 320 320 319 320 321 320 318
320 320 321 321 322 321 322 326 327 331 335 331 331 330 331 330 329 330 329 329 330 329 327 325 324 321 318 317 315 313 312 316 317 322 321 322 323 322 318 318 319 320 321 320 321 321 321 320 318
320 320 321 323 323 322 324 326 326 333 334 333 330 329 330 329 329 327 328 328 327 327 326 324 321 318 318 315 314 315 316 317 320 319 322 318 319 321 320 323 324 322 323 322 322 322 320 320 316
320 321 321 324 323 324 323 323 322 332 331 332 331 329 328 327 327 325 324 324 323 323 322 319 315 313 312 315 318 317 317 314 316 316 316 321 323 324 324 325 325 324 325 323 322 321 320 319 315
320 319 321 324 324 325 324 323 324 325 329 331 330 329 327 326 324 325 322 321 321 321 320 318 316 318 316 316 315 313 314 315 316 317 323 322 324 323 323 324 325 325 324 323 322 321 320 319 315
320 320 321 323 325 326 324 326 323 324 327 327 331 330 328 324 324 322 321 321 320 319 318 318 317 317 317 316 316 314 317 313 318 321 321 321 323 323 325 325 326 324 323 323 322 321 320 318 315
320 320 322 324 324 326 328 327 324 324 328 326 329 328 328 327 327 324 322 320 320 318 318 318 318 317 316 314 314 313 315 315 314 311 314 320 320 325 323 326 325 325 323 323 322 321 320 317 315
321 321 322 324 325 323 325 329 327 329 327 326 327 327 326 325 325 325 322 320 319 318 318 317 316 315 313 312 315 319 320 321 321 321 321 323 323 321 322 324 325 323 323 323 322 321 319 317 314
319 320 323 324 324 325 322 324 326 324 326 326 326 327 326 326 326 325 322 320 319 318 318 316 315 314 314 314 314 321 321 321 320 321 321 324 323 321 322 323 325 323 323 323 322 321 318 316 313
320 320 321 322 324 322 320 322 327 326 328 326 326 327 325 326 327 325 323 321 322 322 320 318 318 320 320 319 321 323 322 319 321 322 323 325 326 324 323 323 326 324 323 323 322 320 319 316 313
320 321 322 324 323 323 322 321 325 328 326 326 326 326 326 325 327 326 325 324 323 324 324 324 322 321 322 322 321 325 322 321 320 322 323 325 326 324 324 324 325 325 323 322 321 320 318 314 312
320 321 322 322 322 322 323 324 323 323 327 327 326 326 326 325 327 327 328 326 326 325 325 325 325 324 322 324 326 325 325 323 321 321 325 325 324 324 324 326 325 325 323 321 321 320 318 313 312
321 323 323 322 322 323 323 325 323 323 325 327 327 326 327 326 326 329 329 329 327 327 327 325 326 325 326 325 329 327 327 323 323 323 323 325 325 324 326 326 325 324 323 321 320 318 317 313 311
322 322 323 323 323 326 324 324 325 324 325 324 327 327 326 327 326 326 327 328 329 329 328 327 326 326 328 327 325 328 327 326 325 328 327 326 326 326 326 326 324 324 322 321 318 317 314 312 310
322 323 326 326 327 328 324 324 325 324 324 324 327 327 327 326 326 327 326 325 328 329 329 329 329 329 329 329 329 327 328 327 326 326 327 327 321 322 324 323 323 322 321 320 317 315 314 311 309
322 323 328 331 331 330 326 325 324 324 323 322 322 322 326 327 326 326 327 327 325 326 329 329 329 328 329 329 330 329 322 322 320 324 326 325 323 319 322 324 322 321 321 319 317 315 313 310 311
323 324 324 328 326 330 327 325 324 323 321 321 322 323 324 323 327 327 327 328 328 326 326 327 328 330 329 329 329 327 321 321 322 326 323 323 321 320 323 324 322 321 321 318 316 314 312 311 307
322 323 325 326 329 330 323 322 323 322 321 320 320 322 324 325 325 326 327 327 328 329 328 328 328 328 329 329 329 330 327 324 323 323 323 323 322 324 324 323 323 321 319 317 315 314 312 309 304
322 324 325 326 325 329 329 325 324 323 322 322 322 321 321 323 325 325 325 326 328 328 330 330 330 330 331 331 331 330 330 326 325 323 324 324 324 324 324 322 321 320 318 315 314 311 310 304 304
323 323 325 327 326 329 334 327 324 323 323 322 322 321 321 321 323 326 326 326 326 328 330 334 333 334 334 333 333 332 330 330 327 325 323 326 324 323 322 320 320 319 318 314 312 309 306 303 302

GFSSGP_850_thetae_051.txt.gz
Theta_e
314 316 319 320 317 311 312 314 315 316 319 328 329 329 327 327 329 339 334 338 332 329 329 340 339 333 331 330 331 332 331 328 320 310 310 311 310 310 326 318 318 314 314 314 311 310 313 320 321
314 320 322 322 313 312 314 315 316 324 326 327 326 327 327 330 336 340 332 332 328 328 327 329 339 335 332 330 332 332 331 325 315 309 310 310 309 313 323 319 315 314 314 311 311 311 313 320 321
314 318 318 312 312 315 315 315 317 325 325 326 326 327 335 328 326 338 333 328 327 328 330 333 337 337 333 331 332 332 330 321 310 310 309 309 312 315 319 314 314 314 313 313 312 311 317 320 321
318 319 319 314 315 315 315 319 321 320 320 324 324 338 337 335 330 326 340 332 327 335 334 333 332 337 335 333 332 332 326 316 308 309 309 310 314 316 315 314 314 314 314 313 312 310 318 320 319
321 321 312 315 316 317 322 322 325 326 324 328 326 326 332 331 334 334 331 337 338 338 337 336 335 337 338 334 332 330 322 310 309 308 309 312 316 316 315 314 315 315 314 313 312 310 316 319 318
318 318 314 316 317 322 323 322 320 321 329 325 327 327 322 324 328 335 333 337 339 337 335 335 334 334 327 332 331 326 315 309 308 309 311 315 317 317 315 314 315 315 315 315 315 312 311 318 318
315 312 313 313 315 320 322 322 321 323 328 325 326 329 323 328 331 335 336 336 336 334 335 330 328 328 325 333 328 319 309 308 309 310 314 316 317 317 315 315 315 317 318 318 318 314 311 311 318
318 312 312 314 317 321 321 323 324 326 326 327 326 328 332 327 333 333 336 337 336 336 336 334 335 335 334 328 323 311 308 308 310 313 316 316 317 316 316 315 316 319 318 319 318 315 311 315 318
318 312 313 315 319 320 321 324 325 325 327 327 325 324 324 329 332 332 333 335 335 336 335 336 335 334 326 321 315 310 310 310 313 316 316 317 317 317 315 316 317 319 319 319 319 316 313 313 315
315 311 314 317 319 318 319 319 326 325 323 325 323 322 329 331 333 331 332 332 335 334 334 333 333 332 329 325 319 308 311 313 317 316 316 316 315 315 316 317 318 319 319 319 319 319 319 317 316
316 313 316 318 320 320 319 324 327 328 329 325 325 327 331 330 329 333 333 334 333 333 332 330 329 327 326 319 310 311 312 317 317 315 315 315 315 316 317 318 319 319 319 319 320 320 320 319 317
316 318 318 319 323 321 323 325 326 325 330 329 331 331 329 329 328 331 331 333 332 331 329 328 327 325 322 316 311 311 316 315 316 316 315 315 317 317 317 318 319 319 320 319 320 321 320 319 318
317 318 320 320 323 323 323 322 325 322 330 329 329 329 329 328 328 329 330 331 331 330 328 327 325 323 318 315 310 311 312 314 316 318 321 318 316 318 317 317 318 320 321 320 321 321 321 320 319
319 318 318 319 321 324 323 323 323 323 326 330 328 327 328 327 326 326 328 329 328 325 325 324 322 320 315 312 314 315 315 315 321 320 318 317 321 319 318 322 323 323 323 323 322 322 321 320 317
319 318 317 317 322 322 323 324 324 325 324 331 329 326 324 325 323 323 324 325 324 322 321 322 323 318 315 318 315 314 313 319 320 319 317 320 322 321 324 324 324 325 324 324 323 322 320 319 318
318 317 316 317 322 324 325 327 324 323 323 330 328 327 325 323 322 322 321 322 322 323 320 319 319 319 317 316 318 317 318 319 317 315 316 318 320 322 323 324 324 323 324 324 323 321 321 319 318
317 317 317 318 324 325 325 327 323 325 326 329 329 328 324 324 323 321 320 322 320 320 320 319 318 317 316 317 318 317 315 314 314 315 316 317 323 324 323 324 324 324 324 323 323 322 321 320 316
318 318 317 322 322 324 325 325 323 323 327 326 328 328 326 325 324 322 320 320 319 319 318 318 319 314 316 318 317 316 313 313 314 316 316 317 318 322 322 323 322 324 323 323 323 322 321 320 317
318 318 316 318 321 322 323 326 322 323 325 325 326 328 326 326 325 322 320 319 319 318 318 318 319 317 316 317 315 314 316 317 315 315 314 315 315 316 319 322 323 324 321 322 322 322 321 320 317
321 318 317 323 324 322 322 325 323 325 325 325 326 325 324 325 324 322 319 318 318 318 318 318 317 317 316 314 313 314 315 318 319 315 318 321 321 321 322 320 321 323 321 323 323 322 322 320 318
319 318 318 322 322 320 320 325 326 324 327 326 326 326 325 325 324 323 319 318 318 318 317 316 315 315 314 314 314 316 321 322 320 319 320 321 321 324 323 323 320 322 321 323 323 323 322 320 319
317 318 321 322 321 319 319 319 326 327 328 327 326 325 325 327 326 324 323 321 321 320 318 318 316 315 315 316 316 317 322 324 321 318 320 322 324 324 324 322 322 323 324 323 323 322 322 320 318
318 321 322 322 320 319 320 320 320 327 327 326 325 326 324 327 326 325 324 323 323 323 323 322 319 319 319 319 320 320 321 323 322 321 319 321 322 323 323 322 322 324 324 325 323 322 321 320 316
320 322 322 322 320 321 321 321 323 323 322 325 325 324 325 325 326 326 325 325 324 324 323 323 324 323 322 318 321 323 323 325 324 323 322 320 323 324 324 321 322 323 325 324 323 322 321 319 317
319 320 321 325 322 322 324 324 321 321 322 324 324 325 325 326 326 326 326 326 326 325 324 325 324 324 324 323 323 324 326 326 326 324 323 324 323 325 324 321 323 323 323 323 323 322 320 318 315
320 319 322 328 325 327 325 325 322 321 322 322 323 325 325 325 326 326 327 327 328 328 327 327 326 325 325 325 326 326 324 325 327 323 326 326 325 325 323 320 323 323 323 322 322 321 319 317 315
320 320 320 327 326 327 325 324 322 322 319 320 321 322 325 325 325 326 326 327 327 328 328 328 327 326 326 326 326 327 326 325 326 326 327 326 324 324 325 323 320 320 323 322 321 320 319 317 315
319 320 321 325 328 331 325 325 322 321 320 318 319 320 323 325 326 326 326 326 326 326 326 328 329 328 328 329 329 329 328 327 327 323 327 323 323 324 325 322 321 322 323 322 320 319 317 315 312
320 320 321 323 324 323 323 322 321 321 321 318 316 321 323 323 324 325 326 326 327 326 326 328 329 329 329 328 328 329 329 329 328 325 322 323 324 324 323 322 322 322 321 321 319 318 316 312 309
320 320 321 323 325 325 318 322 321 318 319 319 319 320 321 324 325 323 324 326 327 327 326 326 325 325 326 328 329 329 329 327 329 328 326 324 323 324 323 322 322 321 320 320 319 317 314 309 308

GFSSGP_850_thetae_054.txt.gz
Theta_e
314 314 320 320 314 309 312 313 314 314 315 321 327 327 325 329 335 337 339 339 339 338 335 333 334 330 326 328 327 328 327 319 310 310 313 319 317 310 313 316 313 313 313 313 318 320 321 322 323
314 317 320 322 311 311 311 312 314 316 317 326 327 327 329 330 337 336 337 337 336 332 331 332 326 333 328 329 328 328 325 315 310 311 311 310 311 313 316 313 314 312 310 314 319 321 322 322 322
314 316 318 312 308 311 312 313 316 320 325 326 326 336 333 331 325 336 340 339 332 330 335 332 332 334 332 329 329 328 322 312 311 311 310 310 315 316 314 314 312 311 311 313 319 321 321 321 321
317 319 317 313 313 313 314 314 318 323 324 325 328 332 335 334 335 328 338 332 327 328 338 336 330 325 328 330 330 327 319 311 311 310 310 316 318 314 314 313 312 313 311 314 319 321 321 321 321
320 320 311 312 313 313 315 321 320 328 327 325 326 325 330 329 330 326 334 331 327 329 329 329 329 333 334 331 329 325 315 311 310 309 312 315 315 313 313 313 313 312 310 315 320 320 318 320 321
317 315 312 313 314 315 317 322 326 326 324 325 326 325 323 324 327 334 329 333 331 333 333 332 331 331 334 332 329 321 312 310 309 311 315 315 314 314 314 314 313 312 311 312 319 318 319 320 321
314 311 312 312 314 314 320 322 324 327 327 326 326 330 324 326 323 331 331 333 332 333 335 334 335 336 335 329 325 322 313 309 310 315 317 315 314 314 315 315 315 316 315 311 313 318 318 319 319
317 310 313 312 313 316 319 323 325 326 328 325 328 329 331 325 326 332 332 327 334 333 334 335 335 331 329 328 327 321 310 309 311 316 318 317 315 314 315 316 318 318 318 314 311 312 318 320 318
317 312 311 312 316 318 322 325 324 325 327 326 324 324 325 323 329 332 329 325 334 334 333 330 330 329 331 328 324 316 310 311 315 317 317 317 316 315 315 318 318 319 318 316 311 314 316 319 318
313 309 312 313 315 320 326 325 326 327 326 325 323 323 327 331 331 331 326 324 332 334 335 333 331 330 328 325 321 313 309 311 318 318 318 317 316 315 316 318 318 319 319 317 314 314 314 314 315
313 312 314 314 316 323 324 325 325 324 324 327 328 327 328 329 332 331 331 331 332 334 334 333 332 331 327 326 322 310 312 317 317 317 317 316 315 316 317 319 319 319 319 318 318 319 317 315 314
314 314 315 315 319 323 323 325 327 327 329 330 329 328 329 329 328 331 331 332 332 333 333 332 329 327 326 322 312 315 314 317 316 316 316 315 316 317 317 318 319 319 319 319 320 320 319 318 317
316 316 319 318 322 322 322 324 324 329 330 328 328 327 327 328 329 330 331 331 331 331 331 331 328 325 319 312 312 315 317 317 316 315 315 315 317 315 315 318 318 319 319 319 320 320 320 320 319
318 318 317 317 323 323 322 322 323 322 330 328 328 327 327 327 328 328 329 329 330 330 330 329 327 324 316 313 318 317 317 316 315 315 317 317 315 315 316 315 316 319 320 320 321 321 321 320 319
318 316 315 316 321 321 322 324 323 328 328 329 327 326 325 325 325 325 325 325 327 329 328 327 327 324 318 316 317 317 317 316 315 319 320 315 315 318 317 318 321 321 322 322 323 322 321 320 319
317 316 316 316 322 323 322 323 322 326 329 329 328 326 324 324 322 321 323 323 323 325 326 326 323 321 319 313 314 318 318 321 319 321 318 316 316 316 321 322 321 322 323 324 324 323 322 321 320
315 315 316 317 318 323 322 323 323 323 323 329 328 326 323 320 321 320 321 322 321 322 323 323 320 318 314 313 317 318 317 317 319 317 316 317 319 322 322 323 322 323 324 324 323 323 322 321 320
315 316 315 314 322 323 325 323 321 325 329 328 328 326 322 322 322 321 320 321 320 320 320 321 321 317 316 318 317 315 314 318 319 317 316 316 321 323 321 322 323 322 323 324 323 323 322 321 320
316 316 316 316 318 324 323 322 321 322 325 328 327 325 322 322 323 321 320 320 320 320 320 320 320 319 317 316 314 314 313 317 316 315 315 316 319 320 318 322 322 321 321 321 323 322 322 322 320
317 318 318 316 321 320 321 323 322 321 323 324 326 326 325 324 324 321 320 319 319 319 319 318 319 318 316 316 317 317 317 316 315 316 315 316 316 316 315 315 317 317 318 319 322 323 322 322 321
318 319 317 317 320 320 321 322 326 324 324 324 326 327 326 322 322 321 319 319 319 318 318 319 318 317 316 318 317 316 316 314 315 314 314 315 315 315 317 319 318 319 321 320 322 322 322 322 322
319 318 317 319 318 318 316 318 323 324 323 325 326 325 324 324 322 320 319 318 318 318 318 318 319 317 316 318 316 316 315 315 316 315 314 314 314 316 320 321 323 323 321 320 321 322 322 322 322
319 319 318 321 320 319 319 318 317 324 325 325 325 325 323 323 323 321 318 317 317 317 317 317 317 318 318 316 314 314 314 316 317 317 315 315 314 319 321 321 324 323 321 321 321 322 322 323 322
319 320 319 318 318 320 320 318 319 326 326 326 324 325 324 324 324 324 320 319 317 318 317 316 314 316 317 315 314 314 316 319 319 317 320 318 316 321 322 323 322 321 322 321 322 323 323 323 322
319 317 319 321 321 321 320 323 320 322 324 326 324 324 324 325 325 325 323 321 321 320 319 317 317 316 315 315 316 318 319 318 319 322 322 321 319 319 321 322 323 322 321 321 321 322 323 322 321
318 318 319 324 324 324 323 324 320 320 319 325 325 324 324 324 326 325 325 323 323 322 322 321 320 319 318 318 318 318 319 319 319 322 325 324 322 322 321 322 324 321 322 322 323 323 322 322 321
319 319 318 323 324 323 323 322 319 320 320 318 323 324 323 324 324 325 325 324 324 324 324 323 323 323 322 321 321 319 318 320 324 325 325 326 324 323 323 323 324 320 321 322 323 323 323 321 321
318 319 321 322 326 326 325 325 321 320 318 316 316 321 323 324 324 324 325 325 325 325 324 325 324 324 324 324 323 322 322 323 324 324 325 326 324 324 325 324 324 323 321 320 321 322 321 321 319
318 318 320 321 322 322 322 321 318 318 319 316 314 319 322 324 324 324 325 325 325 326 325 325 325 325 325 325 325 325 325 325 325 325 326 325 325 324 325 323 324 324 322 320 322 322 321 319 318
317 319 319 322 323 321 317 321 318 317 317 318 318 320 323 324 324 325 325 325 326 326 327 327 327 327 327 326 324 323 326 325 325 326 326 326 320 324 323 324 324 323 322 322 322 321 320 319 317

GFSSGP_850_thetae_057.txt.gz
Theta_e
313 315 321 320 311 309 314 312 312 312 313 320 325 326 326 329 337 333 338 338 342 339 330 327 326 326 326 327 326 326 326 322 315 317 320 320 319 312 313 315 313 311 311 315 316 317 319 318 314
314 316 319 319 311 310 310 310 312 313 321 326 326 328 329 330 336 336 338 339 340 336 330 326 327 330 330 327 326 326 322 314 316 317 319 319 312 313 314 313 312 312 315 317 317 318 320 319 317
313 316 317 311 306 311 311 311 313 315 324 325 328 334 331 327 332 335 338 339 338 337 335 332 333 331 327 325 329 326 318 312 322 323 319 313 314 315 313 313 312 314 317 319 320 320 320 319 314
318 318 315 312 313 311 312 313 313 323 324 325 328 332 333 331 328 328 335 337 335 332 331 330 329 327 328 330 328 326 317 312 320 317 314 315 315 313 313 311 310 315 318 320 320 320 320 320 320
319 319 310 311 312 313 312 314 319 327 326 325 326 327 331 331 330 329 335 336 336 335 330 333 329 331 331 329 331 331 315 313 319 319 316 316 313 313 311 311 311 315 320 320 320 321 321 321 320
316 314 312 312 313 313 312 317 324 326 325 324 325 324 323 324 327 330 327 331 327 329 333 336 333 331 332 332 331 324 316 311 319 326 319 314 314 312 312 312 311 317 320 319 318 320 321 321 320
312 310 312 312 312 313 316 320 324 327 326 326 326 328 325 325 324 332 334 332 331 330 334 335 331 329 330 326 324 321 318 312 322 326 318 314 313 313 312 311 313 319 320 317 319 319 320 320 320
316 309 313 311 312 313 316 323 325 325 326 325 326 327 330 325 322 331 335 334 333 333 332 332 334 334 332 326 324 322 312 314 322 324 315 315 314 313 312 312 311 315 318 317 319 319 319 318 318
316 310 310 312 313 314 323 323 324 325 326 326 324 324 324 324 328 334 332 328 330 333 331 332 332 332 331 327 325 315 314 317 320 322 315 315 314 314 315 316 315 311 312 315 317 318 319 319 318
311 309 312 311 312 314 325 324 324 325 326 325 323 323 325 329 332 331 327 326 328 331 330 332 332 330 328 326 325 316 311 316 322 322 318 315 315 316 317 318 318 314 311 311 315 318 318 318 316
312 311 312 313 314 314 325 325 326 325 323 325 327 326 328 328 328 329 328 325 325 325 331 331 330 330 328 324 317 315 313 314 317 319 317 316 315 317 318 318 318 317 314 312 314 316 316 313 312
313 312 313 314 317 321 322 324 326 325 327 328 327 327 327 328 327 329 328 328 328 331 331 330 330 329 326 324 322 319 314 316 317 319 319 316 316 318 318 319 318 318 317 316 316 316 315 314 313
313 315 317 317 319 322 323 323 326 330 329 328 327 328 328 328 329 329 328 328 330 330 329 330 330 327 326 325 324 316 312 313 315 320 319 315 316 318 318 318 319 319 319 319 319 319 318 318 317
316 317 316 317 321 322 321 322 322 325 329 328 327 326 327 327 327 327 329 329 328 328 328 329 328 326 325 323 318 314 315 316 320 319 317 315 317 317 318 319 319 319 319 319 320 320 320 320 319
317 316 314 315 321 320 321 322 322 323 328 328 327 326 325 325 324 325 326 328 328 327 326 327 327 326 326 324 315 318 322 322 320 318 316 316 316 316 316 318 319 319 319 320 321 321 321 320 319
315 315 315 316 320 322 322 322 320 326 329 328 327 326 325 324 322 323 324 325 326 327 327 328 325 323 320 317 317 319 319 318 316 315 316 316 315 316 317 317 318 319 321 321 322 322 322 321 320
313 312 315 315 317 320 321 322 321 328 329 328 328 326 324 322 320 320 320 322 323 325 325 325 324 325 320 316 318 320 317 315 319 320 317 317 318 316 318 319 321 321 322 322 323 323 322 322 321
312 315 315 314 316 322 323 322 320 323 324 326 328 326 324 320 321 320 319 320 322 322 323 324 322 323 323 321 319 319 321 318 320 318 315 318 320 318 319 319 320 320 321 321 323 323 323 322 321
315 315 315 314 315 320 321 320 319 323 327 327 327 326 324 320 322 321 320 320 320 319 322 322 321 320 319 315 314 319 321 321 316 316 321 320 318 317 319 322 319 319 321 320 322 323 323 322 321
314 315 316 316 316 320 319 319 320 319 322 327 327 327 326 322 322 322 320 320 320 319 319 320 321 319 315 314 318 319 322 321 317 316 316 319 319 319 320 321 321 322 321 321 321 322 323 322 322
315 316 316 317 317 319 320 318 323 321 322 324 326 327 327 324 323 322 320 319 318 318 317 318 320 320 315 313 314 317 317 316 316 317 316 316 317 319 318 315 316 316 316 319 319 320 322 322 322
316 316 317 316 316 318 316 317 315 322 322 323 324 325 327 326 324 321 318 318 319 319 319 318 319 320 318 317 317 316 314 315 316 316 317 315 315 315 316 315 315 316 319 318 318 319 319 322 322
317 318 318 317 318 317 317 316 315 322 324 321 322 325 325 327 325 321 319 317 317 318 319 319 318 319 318 317 317 316 314 315 314 315 316 315 315 315 315 315 313 319 322 323 323 321 320 321 322
317 318 318 317 316 319 318 317 317 323 323 321 321 324 325 326 326 321 320 318 317 316 317 318 319 319 318 318 317 317 317 317 316 316 315 315 314 314 315 313 314 320 321 322 323 323 322 322 322
316 316 318 318 319 320 319 320 317 317 320 321 321 324 325 325 326 323 322 319 318 317 316 316 317 318 318 318 318 318 317 317 316 314 314 314 314 314 314 314 315 321 323 322 321 321 321 321 320
317 316 318 321 321 320 321 323 320 317 318 320 323 323 324 325 325 325 323 322 319 318 316 316 315 315 317 318 317 315 315 316 314 315 316 315 315 318 318 316 319 321 322 322 322 321 321 321 321
317 317 317 320 321 323 321 320 319 317 317 319 323 324 323 324 324 325 325 324 323 319 319 316 316 316 315 317 316 314 314 314 315 316 317 318 319 321 323 322 321 320 321 323 322 321 322 322 322
317 317 320 320 325 325 321 323 321 320 318 316 317 322 324 323 324 324 325 325 325 323 321 320 317 316 316 315 316 315 315 316 317 318 318 319 320 321 323 325 324 323 321 321 322 321 321 321 323
316 317 319 320 319 320 321 319 316 319 318 316 313 316 322 323 323 324 324 325 325 325 324 322 321 320 318 317 316 316 316 316 317 317 317 318 320 322 325 324 324 323 323 323 322 321 320 321 321
316 317 318 319 321 318 315 319 316 316 315 316 315 316 319 321 323 324 324 324 325 324 325 324 323 322 322 322 321 321 320 319 319 320 320 322 321 323 325 324 323 320 323 323 322 320 320 321 320

GFSSGP_850_thetae_060.txt.gz
Theta_e
313 317 319 319 310 308 313 313 311 312 312 315 323 324 324 327 332 328 336 341 339 336 332 324 323 326 326 330 328 326 325 331 334 333 329 326 322 319 315 320 321 321 315 311 312 311 310 309 308
314 316 318 317 309 310 310 309 311 311 315 324 327 328 328 331 335 335 337 338 340 340 328 324 324 327 330 329 326 325 328 330 326 330 327 323 318 311 313 317 315 311 312 319 318 313 312 309 307
313 317 316 307 305 311 310 310 311 313 320 324 327 332 330 327 334 337 337 337 342 339 325 325 326 327 327 327 326 322 322 322 318 322 323 319 312 314 313 312 311 312 314 319 320 316 310 310 308
318 317 314 312 314 310 311 312 312 314 324 325 329 330 332 328 328 334 336 341 340 338 330 326 326 327 328 326 327 327 325 317 312 314 319 314 314 313 311 312 314 314 316 319 318 313 314 316 310
319 317 310 311 311 311 310 312 313 323 326 325 325 326 332 332 330 330 336 339 337 334 329 327 326 327 328 328 326 327 320 317 317 316 316 315 314 314 314 315 314 315 317 317 318 319 318 316 316
316 313 311 312 311 312 311 313 319 325 325 324 325 323 323 324 328 328 331 336 335 335 334 332 330 330 330 326 327 327 320 319 322 320 314 315 315 315 316 315 315 316 317 319 320 319 319 318 317
312 308 311 312 312 312 313 319 323 325 325 325 325 327 326 322 326 325 329 329 333 334 333 333 332 330 329 329 328 323 325 321 312 313 316 315 313 314 314 315 317 317 319 319 320 320 319 319 318
315 308 312 311 312 312 314 321 324 325 324 326 326 326 328 327 323 322 329 330 329 328 329 332 332 331 331 331 329 327 322 318 323 315 315 314 311 312 314 318 319 319 318 319 320 320 319 318 318
314 310 310 313 311 313 317 320 323 324 326 326 325 324 323 322 325 332 332 332 332 331 330 331 333 333 331 328 326 325 321 319 324 318 314 312 312 313 317 319 319 318 318 318 318 318 318 317 316
311 309 311 310 310 312 313 320 322 324 325 325 324 323 323 325 329 330 331 330 328 328 330 331 332 330 328 325 325 324 321 318 318 318 315 312 312 311 316 318 318 317 317 318 317 318 318 317 315
310 310 310 312 314 313 312 324 325 324 322 323 324 326 326 328 328 329 328 330 327 326 329 328 329 327 328 326 321 318 318 319 320 318 315 313 313 312 311 311 312 315 316 317 317 317 317 314 313
312 311 312 314 315 316 321 323 324 322 321 326 327 327 327 327 329 327 329 327 324 326 328 326 327 325 325 326 321 319 315 318 322 317 315 314 313 316 317 314 311 310 311 314 314 316 314 312 312
310 313 315 317 316 318 322 322 323 327 327 327 327 328 328 327 327 325 327 328 327 328 329 329 326 325 327 320 316 316 317 319 319 318 316 315 316 318 318 316 314 312 312 312 313 314 313 313 312
315 315 315 315 316 320 321 320 323 321 327 328 327 327 329 325 325 324 326 327 328 328 329 330 329 327 326 324 321 318 317 316 317 318 317 315 317 318 318 318 318 317 316 318 319 319 318 319 319
316 315 312 313 317 319 321 320 320 321 326 328 328 326 325 323 323 324 326 326 327 327 328 328 329 327 322 321 321 314 313 314 318 315 318 315 318 318 318 319 319 319 319 319 319 320 320 320 319
315 313 314 313 317 319 321 320 317 322 326 328 327 326 324 322 324 323 324 325 325 327 327 327 326 326 322 321 317 318 316 318 317 317 319 316 318 318 318 318 318 319 319 319 320 321 321 321 320
311 312 313 314 315 319 320 319 319 324 327 327 327 326 325 322 320 320 321 323 325 325 326 326 326 326 325 323 320 316 313 312 317 319 316 316 317 317 318 317 316 319 320 319 320 321 322 322 321
313 313 312 313 315 317 319 320 318 325 327 328 327 327 326 322 320 320 320 320 323 324 324 326 325 325 324 324 318 318 316 319 321 320 317 316 316 316 317 317 318 320 321 321 321 321 321 322 322
312 314 314 312 312 316 315 317 317 319 325 323 324 326 326 324 320 321 319 320 321 322 323 323 324 325 320 323 315 322 321 322 319 317 317 316 318 317 318 319 316 320 320 320 320 320 321 322 322
313 314 313 313 314 315 315 317 316 319 321 323 323 324 326 324 321 320 320 320 320 321 320 321 322 323 319 317 321 317 319 317 317 318 318 319 318 319 317 317 317 319 319 319 318 319 321 322 322
313 313 314 315 314 314 318 318 318 319 319 322 326 326 326 326 322 321 321 321 319 319 319 319 319 321 322 316 320 320 318 317 317 320 317 315 316 319 319 317 319 320 322 319 319 319 319 320 322
314 313 314 315 315 316 316 318 314 316 320 321 322 325 326 326 324 322 321 319 318 318 319 318 319 320 320 320 317 318 316 317 319 317 315 317 315 319 317 318 316 315 315 315 315 316 318 319 320
314 314 315 316 314 316 316 315 314 321 320 319 319 322 323 324 326 325 322 319 317 318 318 319 319 320 320 318 317 316 317 319 320 317 315 315 316 316 317 317 317 316 315 316 316 320 320 320 322
316 317 316 315 314 318 317 316 315 316 319 319 319 321 322 324 325 326 324 320 317 317 318 319 319 319 319 318 316 316 318 318 320 318 317 316 314 315 316 315 315 315 315 314 316 320 321 322 322
315 315 317 318 319 320 316 317 318 316 315 318 318 320 322 322 324 325 325 321 318 317 316 317 319 319 319 318 316 317 315 316 316 316 315 315 315 315 316 315 315 315 315 313 315 320 321 321 321
315 316 317 321 320 318 319 322 320 317 317 318 318 320 321 323 323 324 325 324 320 317 316 316 317 319 319 318 317 317 317 316 315 315 314 313 313 316 316 315 314 314 315 314 315 320 321 322 322
315 316 315 317 319 321 319 318 317 316 316 316 319 321 322 323 323 324 324 325 324 321 318 316 316 316 318 318 318 318 317 317 317 317 317 317 316 316 315 315 314 316 321 321 318 320 321 322 322
316 315 319 317 323 324 319 321 318 317 317 315 317 321 323 323 323 323 324 324 325 324 322 318 316 315 316 316 317 318 317 317 317 317 317 317 315 314 315 315 317 319 322 322 322 322 320 321 322
315 315 317 317 317 319 320 318 315 317 317 317 314 317 321 323 323 324 324 324 324 325 324 323 320 318 315 315 316 316 315 314 314 315 315 315 314 315 316 318 320 322 323 322 323 323 322 322 322
314 315 316 317 318 317 316 318 315 314 315 314 315 316 316 318 320 322 323 324 324 324 324 325 324 321 321 317 315 315 316 315 315 315 315 315 315 316 317 318 318 321 323 319 321 321 321 323 322

GFSSGP_850_thetae_063.txt.gz
Theta_e
313 317 319 319 317 315 317 318 314 315 315 314 323 323 325 327 330 332 334 338 338 333 331 332 332 331 329 330 332 333 334 335 333 331 332 324 321 321 320 321 326 327 324 311 311 317 316 316 309
314 317 318 315 317 318 318 314 315 316 315 319 326 329 328 330 333 333 336 337 338 335 331 330 329 328 327 329 330 329 327 330 333 332 328 326 322 321 322 326 327 325 312 310 310 309 309 308 308
314 317 317 315 314 318 318 315 316 314 314 320 325 333 330 330 330 335 337 339 340 334 331 330 327 326 326 327 328 328 325 325 332 332 327 325 321 321 323 323 321 314 314 316 311 308 308 308 308
316 316 313 318 318 316 316 317 315 315 321 323 327 333 333 331 330 335 335 337 340 337 333 327 329 329 327 327 327 326 326 329 333 331 326 323 319 315 320 317 322 323 326 322 310 309 309 308 308
319 316 317 317 316 315 314 313 313 317 325 325 325 326 331 329 329 330 335 335 339 336 335 328 330 326 329 329 325 327 327 329 330 327 324 320 313 313 316 324 324 324 322 312 313 310 310 307 307
316 313 318 318 316 315 315 314 315 321 325 324 325 324 324 325 330 329 331 333 335 337 329 330 329 327 327 325 326 325 326 325 324 323 320 315 315 318 321 325 318 318 316 314 316 314 314 311 310
316 316 316 315 316 316 315 317 323 324 325 325 324 327 326 324 324 325 326 331 331 334 331 329 327 327 326 326 327 328 322 322 318 319 316 314 315 320 325 319 319 319 318 318 317 316 317 314 313
315 315 315 315 316 316 315 319 321 323 324 325 326 328 328 327 325 325 323 329 331 332 331 330 327 327 327 329 327 328 327 323 321 318 316 314 315 321 321 319 318 320 320 319 318 318 317 315 314
314 316 317 316 315 317 314 319 319 322 325 325 326 324 323 322 322 323 326 330 332 329 330 332 331 328 328 330 328 326 324 324 321 317 316 315 319 320 319 319 319 319 320 320 319 318 317 314 313
315 316 316 315 314 316 315 315 317 323 325 326 325 324 323 324 326 327 329 331 333 329 329 330 331 332 331 329 327 321 322 316 316 315 316 315 315 316 319 318 318 319 320 320 318 317 316 314 313
312 316 313 314 314 313 313 318 321 324 325 325 324 324 325 326 327 327 329 328 330 327 325 324 327 331 330 330 324 326 325 322 319 320 314 313 316 318 319 318 318 318 318 318 318 317 316 314 312
314 313 313 314 314 314 315 320 325 325 324 324 324 325 325 327 326 326 327 327 328 327 326 328 329 327 327 326 326 327 322 320 321 318 314 312 315 318 319 318 317 317 318 317 318 317 314 313 312
312 314 313 314 315 315 318 322 323 324 323 326 326 325 327 327 326 325 325 327 327 327 327 325 326 326 326 323 324 324 320 322 320 318 313 312 314 317 318 318 317 317 317 316 317 314 312 312 312
314 313 315 315 315 317 321 320 321 322 324 327 326 325 326 324 325 324 326 326 327 327 327 325 323 325 326 323 324 322 319 318 318 317 315 312 311 311 312 312 312 314 314 315 315 313 312 313 312
315 317 316 316 315 318 320 322 323 322 325 327 328 326 324 324 324 323 325 326 327 327 327 326 324 325 326 323 321 320 321 321 318 317 316 313 314 316 314 312 312 313 313 316 317 316 318 319 319
316 315 317 314 318 319 320 320 319 320 327 326 327 326 324 323 322 324 324 326 326 325 327 326 327 326 326 322 321 317 318 320 318 319 317 314 317 318 316 315 313 314 317 319 319 320 320 319 319
314 317 315 315 316 320 321 321 320 323 327 327 327 325 325 322 320 320 321 324 325 325 325 326 326 327 324 321 317 317 318 319 318 317 317 315 317 318 318 318 317 318 319 319 320 320 321 321 320
317 316 315 316 317 318 320 321 320 323 327 327 327 326 324 323 320 320 319 319 324 324 325 326 324 325 324 323 322 318 319 318 318 316 315 317 316 317 318 318 319 319 319 319 320 321 321 321 321
314 314 315 314 314 315 317 318 318 318 325 326 327 326 324 325 322 320 319 318 320 323 324 324 325 325 324 319 318 316 315 315 319 319 317 319 316 317 318 318 318 319 319 319 320 320 320 321 321
315 316 316 316 315 316 319 319 320 319 321 324 326 325 324 325 322 319 320 319 321 323 323 324 325 324 324 321 321 319 318 316 316 319 320 317 318 317 317 318 318 319 319 317 320 319 320 321 321
315 316 316 316 315 316 318 320 319 320 320 322 323 323 323 324 324 321 319 319 320 321 322 322 323 324 324 323 322 317 318 322 316 320 318 316 317 316 317 317 318 320 320 318 319 320 320 319 318
316 315 315 315 315 320 317 321 319 319 319 321 322 325 325 324 325 322 320 319 320 319 320 320 322 323 322 321 321 316 321 315 321 322 321 319 317 318 319 319 316 319 318 319 319 318 319 318 318
315 315 316 315 316 317 318 320 319 317 321 321 322 323 325 325 325 325 324 320 317 318 319 319 319 320 321 321 319 320 314 318 319 318 317 317 320 319 318 316 317 317 317 317 316 316 318 319 319
315 316 317 317 318 321 320 320 321 319 321 321 320 320 323 323 324 325 325 322 318 317 318 319 319 319 320 321 318 320 315 319 318 319 317 319 317 315 315 315 317 316 316 315 315 315 316 318 321
316 318 320 322 323 323 318 319 320 320 319 319 321 320 320 322 323 324 325 324 319 317 317 318 319 320 320 319 319 320 317 320 317 315 316 318 316 316 315 315 317 317 316 315 315 315 315 315 318
316 317 322 323 323 322 318 322 321 321 319 318 318 318 318 320 322 323 325 325 321 317 316 317 319 320 320 319 319 320 319 318 315 315 315 318 316 316 315 315 316 316 316 316 314 314 314 315 317
317 318 318 320 320 323 322 321 319 320 319 318 318 320 320 322 322 322 324 325 323 320 317 315 317 318 319 319 320 319 318 317 316 317 319 318 318 316 316 315 315 314 315 315 315 314 317 319 318
317 317 319 319 323 324 322 322 321 321 320 319 320 319 321 321 322 322 323 324 325 322 320 317 315 315 317 318 319 318 318 318 317 317 317 318 318 317 316 316 315 313 315 315 315 317 320 322 321
316 318 318 319 320 323 322 322 321 322 321 320 321 318 317 320 322 323 323 323 324 324 323 321 318 316 315 316 317 318 318 318 317 317 317 317 317 316 315 315 315 315 315 315 316 318 322 322 322
315 317 319 321 321 320 321 321 316 320 319 318 319 318 318 316 316 321 323 323 323 324 324 323 321 319 318 315 315 316 316 317 317 317 316 317 316 317 317 317 316 315 314 316 321 321 321 321 321

GFSSGP_850_thetae_066.txt.gz
Theta_e
313 316 318 319 321 321 321 321 320 321 321 321 324 326 327 327 326 329 336 333 338 341 343 334 333 334 334 335 335 333 334 334 331 328 323 320 320 320 322 320 324 325 329 325 316 315 317 314 320
313 318 319 319 322 321 321 320 321 321 320 319 326 329 330 329 332 335 338 335 338 341 340 336 334 334 333 335 331 335 335 335 331 327 322 320 320 320 321 324 325 326 320 313 315 311 309 313 319
314 317 320 321 321 321 321 321 321 321 319 319 327 330 331 329 332 338 337 336 340 340 340 337 335 333 332 330 335 336 335 335 332 328 323 321 321 321 320 325 326 324 311 311 317 309 308 310 315
316 317 318 322 321 321 321 322 321 321 323 323 326 328 334 335 332 336 334 335 341 341 339 337 333 330 332 333 336 335 336 334 332 329 323 322 322 323 324 325 325 313 310 310 308 308 309 309 308
318 319 320 320 321 321 321 321 320 321 324 327 327 326 328 335 331 329 334 334 338 339 338 337 330 330 325 333 336 334 331 333 331 329 324 323 323 326 324 322 315 316 311 308 308 308 308 307 307
319 319 320 319 321 321 321 320 320 322 323 325 326 326 326 327 330 331 330 333 333 338 337 335 330 326 323 329 330 330 329 331 332 328 326 323 321 323 320 320 321 325 310 309 308 308 307 307 307
319 319 318 318 320 320 320 320 322 321 322 324 326 327 327 328 327 326 326 330 333 336 336 334 331 325 329 329 330 330 328 332 332 327 325 322 316 318 320 323 324 326 312 311 309 307 308 309 309
317 319 319 318 320 321 319 320 321 322 322 325 327 326 327 333 325 326 326 327 332 334 334 332 331 329 329 329 330 330 332 333 330 325 322 317 314 315 318 315 322 314 315 315 315 313 312 311 310
316 319 319 319 319 320 319 320 320 322 322 327 328 328 329 325 323 329 331 330 331 332 332 332 331 329 329 330 328 328 328 329 327 323 318 317 323 314 316 317 317 317 317 317 317 315 313 311 309
317 319 319 319 319 319 320 320 320 322 323 325 327 328 327 324 329 330 330 330 329 332 331 330 331 328 327 329 328 328 328 327 323 321 319 316 323 320 323 318 319 319 319 318 317 315 313 313 309
316 318 318 318 318 318 319 320 321 322 322 323 325 328 328 328 329 330 331 328 329 330 330 330 331 331 327 327 327 328 329 326 324 318 317 320 323 325 319 318 320 320 319 319 318 315 317 318 316
316 317 317 317 317 317 319 320 322 323 324 327 325 328 329 326 329 328 328 328 328 329 326 326 325 325 329 327 328 328 328 325 321 322 317 321 325 321 320 323 324 323 322 321 320 320 320 318 317
317 316 317 317 317 317 318 320 321 322 323 328 329 329 330 327 328 327 327 326 327 325 327 326 325 326 325 327 328 329 325 323 321 318 317 321 320 319 319 324 324 324 324 323 322 321 318 317 316
316 316 316 316 317 318 320 320 322 321 323 329 330 329 328 326 326 326 327 327 327 327 326 324 326 326 326 326 325 325 322 319 320 319 316 320 315 317 318 319 321 322 324 323 322 320 318 318 317
316 317 318 318 318 319 319 320 321 321 327 328 328 329 328 327 325 326 327 329 329 327 327 324 324 326 325 325 324 324 324 322 324 320 318 315 312 313 318 318 318 320 321 320 320 318 318 317 316
317 318 318 319 318 319 321 319 320 323 327 328 328 329 328 328 325 325 325 325 326 327 327 324 323 323 325 324 324 324 323 320 319 319 315 312 314 315 318 317 318 319 315 317 314 317 319 318 317
319 319 319 319 318 320 323 321 324 325 326 326 328 329 328 328 325 324 321 326 325 326 326 325 325 326 325 324 323 323 322 319 318 315 317 312 312 313 313 313 314 313 314 316 317 318 319 318 317
319 320 319 319 319 319 321 323 322 322 325 327 328 329 329 328 326 323 319 322 324 325 326 326 326 326 325 323 322 321 320 319 318 316 320 312 315 316 315 313 312 314 316 321 320 320 320 320 318
318 318 319 318 318 317 318 320 322 322 323 327 327 329 329 328 327 323 320 320 322 324 325 326 326 326 324 323 321 319 320 321 317 319 320 313 314 316 315 315 314 314 319 321 320 320 321 321 320
317 318 318 318 318 318 317 321 322 322 323 324 327 328 329 328 327 323 321 320 322 323 324 325 325 324 325 323 320 320 318 321 318 317 321 317 315 316 318 318 318 318 318 319 319 320 320 321 320
317 317 318 318 318 318 319 321 322 322 323 324 325 326 328 328 327 324 322 320 321 322 323 325 324 325 325 324 321 320 318 319 319 317 316 316 317 316 317 318 318 319 319 319 320 320 319 322 321
317 317 317 318 318 317 321 322 322 322 322 323 324 326 326 327 327 326 323 321 322 322 322 324 324 324 324 324 322 320 319 317 321 319 317 315 315 320 317 317 318 318 318 319 320 320 320 320 321
318 317 318 318 319 318 318 322 321 321 321 321 322 324 327 327 328 327 325 322 321 321 321 322 322 323 324 324 321 321 318 317 319 320 319 315 317 320 317 317 317 317 318 319 319 321 320 317 317
317 317 317 318 318 321 320 322 322 321 322 321 322 323 325 327 328 327 326 324 322 321 321 321 321 322 323 323 323 322 320 319 319 320 317 319 318 318 317 317 316 319 317 317 317 318 318 317 317
317 318 321 321 322 321 322 323 323 322 321 322 323 323 324 326 328 328 326 324 322 321 320 320 321 321 321 322 322 322 320 317 321 317 315 320 318 316 316 317 318 317 317 316 317 317 316 316 316
317 318 322 322 324 324 322 323 322 322 322 322 322 322 322 325 327 327 327 326 323 321 321 320 321 321 320 321 321 320 320 319 320 314 320 320 319 318 318 317 318 317 315 316 317 317 319 316 316
318 320 320 322 324 324 324 322 322 321 322 322 322 323 324 324 326 327 327 326 325 321 321 321 321 322 321 320 320 322 320 319 318 318 319 319 317 317 317 318 316 316 315 315 317 319 320 319 319
319 319 320 321 324 325 324 323 322 321 322 321 324 323 324 325 326 327 327 327 326 323 321 321 321 321 322 321 321 321 321 320 320 320 320 319 318 318 319 318 316 317 316 317 319 319 320 320 320
319 320 320 321 321 324 325 324 322 322 322 322 323 322 323 325 326 327 327 327 327 325 322 320 319 320 321 321 321 321 321 321 321 320 320 319 318 318 318 318 319 319 319 319 319 319 319 321 318
318 319 320 322 323 322 324 324 321 322 323 322 322 321 322 320 323 326 327 327 327 326 324 322 320 320 320 320 321 321 321 321 320 320 320 319 318 318 319 317 318 319 318 318 318 318 318 316 315

GFSSGP_850_thetae_069.txt.gz
Theta_e
312 314 320 320 323 323 323 324 323 322 322 323 324 325 326 327 326 330 341 340 336 342 346 341 335 334 340 340 338 335 332 330 330 327 326 321 320 322 319 316 330 330 328 324 324 324 324 326 324
318 320 321 322 322 325 325 324 322 322 322 321 324 325 326 326 327 328 337 343 339 342 344 341 335 335 339 339 337 335 333 329 331 328 324 321 325 326 322 319 329 329 318 317 319 325 317 321 324
318 320 322 323 324 324 325 323 322 322 321 321 323 325 326 327 331 335 340 341 336 341 342 341 335 336 339 340 337 336 333 330 331 328 323 319 324 327 328 326 323 325 315 311 317 316 316 320 324
318 319 319 321 323 325 323 323 323 322 322 322 323 325 328 335 333 337 339 340 339 342 342 340 337 336 337 336 337 337 334 332 331 329 322 320 322 325 326 327 325 321 313 316 314 310 314 318 320
317 320 323 323 323 324 323 322 322 322 322 324 325 325 326 335 334 334 338 339 340 341 340 340 338 336 335 326 335 336 335 334 331 329 323 322 322 326 326 327 324 312 311 312 310 309 310 312 310
319 320 323 323 323 323 323 322 322 322 322 323 325 325 325 331 332 335 331 337 339 338 339 339 337 335 332 332 325 322 336 334 331 328 322 322 323 326 327 324 315 311 309 309 308 308 308 308 309
320 323 322 321 321 323 323 322 322 322 322 322 325 326 326 330 332 332 333 335 336 331 337 338 338 333 331 329 325 324 334 334 330 327 323 323 324 325 324 322 315 310 308 308 308 308 308 307 307
319 321 321 321 322 321 322 320 321 321 322 325 323 324 325 336 333 333 334 334 334 332 332 336 336 335 330 327 324 327 333 332 331 326 324 325 325 323 321 324 323 309 309 309 308 307 307 307 308
318 320 321 321 322 321 322 321 320 321 322 321 325 327 328 332 331 332 333 334 334 333 332 333 335 335 333 331 329 330 325 333 331 327 326 325 324 323 323 326 324 311 310 308 308 310 310 309 308
319 320 320 322 322 321 321 321 321 321 321 322 323 327 329 330 330 331 331 332 332 334 333 333 333 333 333 333 331 330 332 331 331 329 325 322 322 325 324 325 319 313 314 313 312 312 310 309 308
319 320 320 321 320 320 321 321 320 322 322 322 324 324 329 330 331 331 331 331 331 331 328 332 332 332 334 331 330 331 331 332 330 328 323 319 324 325 323 322 315 316 317 316 314 312 315 317 315
318 319 319 319 319 319 320 320 321 321 321 322 325 326 328 331 330 329 329 330 330 329 331 331 330 331 332 331 331 330 328 330 329 326 321 321 322 322 324 319 317 317 318 317 314 318 320 319 317
319 319 318 318 318 318 319 320 320 320 320 322 326 330 329 330 330 328 329 329 330 330 330 326 327 327 328 328 329 329 329 329 327 325 321 320 321 321 321 321 320 319 322 320 320 322 321 320 319
318 319 319 317 318 318 319 320 320 320 320 322 326 329 330 331 329 327 329 329 329 331 327 325 324 324 326 326 327 328 328 328 325 324 319 320 322 322 323 324 324 323 323 323 322 322 321 320 319
318 318 319 320 318 319 318 320 321 320 320 323 326 329 330 330 328 327 328 329 326 328 328 325 324 325 324 326 326 325 325 326 322 322 322 320 317 321 324 325 324 323 324 323 323 322 320 320 319
319 318 319 320 320 320 319 321 321 321 323 325 328 328 329 330 329 327 327 328 326 327 327 326 325 325 325 324 324 325 325 326 323 321 319 318 317 317 323 324 324 324 324 324 322 321 319 319 319
320 320 321 321 321 320 320 321 323 324 324 325 327 328 330 330 329 327 326 327 325 326 326 327 324 324 324 325 325 324 324 323 321 320 318 320 321 319 317 321 322 322 322 322 321 320 320 320 319
321 321 322 322 323 320 320 323 322 323 325 325 326 328 330 330 329 327 326 325 322 326 327 327 324 325 325 324 324 324 323 323 322 318 315 320 321 320 320 320 321 321 321 320 320 320 321 321 320
320 321 322 323 322 321 321 321 322 322 323 324 326 327 330 330 329 328 325 325 323 325 326 326 325 325 325 324 324 324 322 322 320 316 313 312 319 320 317 318 317 318 319 320 320 321 322 321 321
320 320 321 322 321 320 320 320 320 322 323 323 325 327 328 331 329 328 326 324 323 323 324 326 326 326 325 324 323 323 322 321 318 315 314 320 320 318 315 315 315 316 314 322 322 323 323 323 321
321 321 322 321 321 321 320 321 321 322 322 322 323 324 326 329 329 329 327 325 323 323 324 324 325 326 325 324 323 322 321 320 318 316 317 319 321 320 317 318 316 314 316 323 322 323 323 321 322
321 320 320 320 321 322 322 321 323 323 324 323 323 324 324 328 330 329 327 325 324 323 324 324 324 324 324 323 322 322 321 321 319 316 316 320 316 317 316 317 317 315 319 323 323 321 322 320 320
321 320 320 320 321 322 321 321 322 323 322 323 322 323 325 326 329 329 328 326 325 323 324 325 324 325 324 324 323 321 321 322 321 318 316 321 320 317 316 317 317 318 319 320 320 320 320 320 319
319 320 320 320 321 323 322 323 323 324 323 322 322 322 325 326 328 329 328 327 324 326 322 324 324 324 324 324 323 324 323 321 320 319 318 318 319 317 318 316 316 318 318 318 318 319 319 319 319
317 319 322 323 324 324 323 323 323 323 322 322 323 323 325 326 328 329 328 327 324 325 325 324 324 323 324 324 324 322 322 321 319 322 322 319 316 316 315 319 318 318 318 318 317 319 317 318 317
319 320 324 326 327 325 324 324 325 324 323 323 323 323 323 325 329 329 328 327 325 324 325 325 324 323 322 323 324 323 322 321 319 319 322 320 316 315 315 317 320 318 317 317 318 318 318 317 316
319 320 320 322 325 328 325 325 324 324 322 322 322 323 325 325 328 329 329 328 327 325 324 325 324 324 323 321 323 324 323 322 322 321 321 320 318 318 316 318 318 318 317 317 318 319 318 316 316
319 320 321 321 326 328 327 327 326 323 322 322 324 325 325 326 327 329 329 329 328 326 324 325 325 324 324 323 321 322 323 323 322 321 320 319 317 315 316 318 318 318 317 317 317 317 318 318 318
317 320 321 322 323 325 327 328 325 324 323 323 324 323 324 327 327 328 329 329 329 327 325 325 325 325 325 324 324 322 323 322 322 322 321 320 319 316 317 320 319 317 317 317 318 317 318 319 320
319 320 322 324 324 325 327 328 322 324 324 323 323 323 323 323 327 328 329 329 330 329 327 325 325 324 324 325 325 324 323 323 323 322 322 321 321 320 320 320 320 319 319 319 319 319 319 319 320

GFSSGP_850_thetae_072.txt.gz
Theta_e
312 313 317 321 322 323 324 324 324 323 322 323 323 324 325 324 324 333 342 340 331 345 340 342 337 338 338 337 335 332 329 328 327 327 325 321 319 318 319 318 318 324 329 330 330 331 329 326 324
313 318 321 322 324 324 324 325 324 323 322 322 321 323 324 325 330 335 341 339 330 344 344 339 338 336 338 339 338 334 330 329 328 327 325 320 319 320 324 329 328 325 328 330 329 330 326 324 324
316 321 321 324 325 324 325 325 323 323 322 321 321 323 325 326 332 334 337 329 326 335 343 342 339 335 336 340 341 337 332 329 328 328 325 320 320 323 327 329 330 324 320 329 329 318 322 324 326
317 320 320 321 321 323 323 325 324 323 322 322 322 323 325 331 331 334 328 325 326 339 343 340 341 336 335 340 340 340 334 331 329 329 324 321 322 320 327 329 330 323 323 328 324 317 322 324 325
318 319 321 322 323 323 324 324 323 323 322 323 323 324 326 336 328 325 325 324 326 337 341 341 340 340 335 339 339 339 337 333 330 329 323 322 322 324 325 329 329 322 312 317 311 317 319 320 321
319 319 320 322 323 324 324 324 323 323 322 322 322 324 328 336 335 331 325 324 324 330 340 340 340 339 337 336 337 333 332 335 331 329 322 324 323 324 323 327 328 326 314 310 310 312 314 313 314
320 320 321 322 323 323 323 323 323 322 322 322 324 326 325 332 333 328 328 331 333 327 338 340 339 336 336 334 334 329 327 323 332 328 321 324 325 324 326 326 320 318 312 309 308 309 310 309 318
319 320 320 321 322 322 323 323 322 321 322 323 323 323 327 335 333 329 332 331 336 336 329 338 339 338 336 329 331 327 325 325 325 329 323 326 325 325 326 322 313 312 309 308 308 308 308 309 317
318 320 321 321 321 322 323 323 321 321 321 321 321 324 326 334 332 332 334 334 334 334 335 332 337 337 336 333 331 329 326 323 329 328 323 327 325 327 323 318 311 308 308 308 308 308 307 308 317
319 321 320 320 321 322 322 322 322 322 322 322 321 324 329 331 331 331 332 331 334 333 332 332 332 335 336 334 331 326 329 324 328 329 326 327 327 324 325 323 309 308 308 307 307 307 308 309 319
319 320 320 320 320 321 321 321 321 322 321 322 322 325 326 332 331 332 331 331 332 332 333 329 331 332 333 332 333 331 330 329 325 330 329 327 325 324 327 322 309 308 307 309 310 309 308 312 320
318 318 319 319 319 320 320 320 321 320 322 321 321 324 326 328 331 331 330 329 331 331 329 330 330 331 332 332 332 332 330 329 331 329 328 324 322 324 326 323 311 311 312 312 311 310 310 313 319
318 318 318 318 319 319 319 320 320 320 320 320 321 328 329 329 331 330 329 329 327 331 331 330 330 330 332 332 332 331 331 331 330 329 326 323 322 325 323 321 314 315 314 312 315 320 318 314 319
318 318 318 319 319 319 319 320 319 320 320 320 321 326 330 330 331 330 329 330 329 330 330 326 327 326 327 330 331 330 330 329 330 327 325 322 322 321 320 316 315 317 316 313 322 322 320 319 319
318 319 319 319 319 320 319 319 319 319 320 320 320 324 329 330 331 329 328 330 330 329 330 327 325 324 325 326 327 327 329 329 329 327 324 323 319 318 321 317 317 320 318 316 322 322 321 320 319
319 319 319 319 319 320 320 320 320 320 321 321 322 324 329 330 330 329 328 329 328 329 329 326 325 325 325 324 327 327 329 329 328 326 325 322 320 321 319 319 319 323 323 321 323 321 320 319 319
319 319 319 319 320 321 321 321 321 321 323 323 324 326 328 330 330 329 328 328 327 330 328 326 324 324 324 324 325 326 327 327 326 326 324 323 321 321 322 321 322 323 323 323 323 321 320 320 319
319 319 319 321 322 322 322 321 321 323 324 324 324 324 328 330 330 330 328 327 327 328 326 326 324 325 324 324 324 325 325 325 325 324 324 322 319 320 316 321 324 325 324 324 322 320 319 319 319
320 320 320 321 322 323 323 321 321 322 322 325 325 325 327 330 330 330 328 327 327 328 327 326 324 325 325 324 324 323 323 324 324 324 322 319 316 316 322 324 324 323 322 322 322 320 320 321 321
319 320 321 322 322 322 322 322 321 321 322 323 324 325 326 330 331 329 328 326 325 325 326 325 325 325 325 324 324 324 323 323 323 322 320 320 320 320 322 321 321 322 322 321 321 320 321 321 321
319 320 321 321 321 322 321 321 322 322 322 322 323 324 326 330 330 329 328 326 325 322 327 325 326 325 326 324 324 324 323 323 321 321 318 318 318 321 320 321 321 320 319 318 319 319 320 321 321
319 320 321 321 322 323 323 323 323 323 323 323 323 323 323 326 331 330 328 327 325 323 324 327 327 325 325 324 324 324 323 322 322 319 318 316 316 314 316 319 317 316 314 315 318 319 320 322 320
318 321 322 321 322 323 321 322 322 322 324 323 324 324 324 323 330 330 329 328 326 324 327 326 324 325 324 323 323 323 322 322 321 315 313 313 317 320 320 319 318 315 315 315 315 319 321 320 320
318 319 322 323 323 324 322 323 323 324 324 324 324 322 324 325 330 330 329 328 326 325 325 326 325 324 324 324 323 323 322 321 320 318 314 318 320 319 319 320 319 315 316 313 314 319 321 320 320
317 322 325 325 324 325 322 322 324 324 323 322 322 322 324 326 329 330 330 328 326 326 323 323 325 324 324 324 323 322 323 322 321 320 315 316 320 319 318 319 318 318 317 315 316 319 321 320 319
317 321 323 326 327 324 322 323 325 325 323 323 323 323 324 325 328 329 330 328 325 327 326 323 324 323 323 323 323 323 323 322 322 322 320 316 316 319 318 315 316 317 317 317 318 319 319 318 318
319 319 319 323 325 329 326 324 325 324 323 323 322 323 323 324 328 329 330 328 326 325 327 326 324 323 322 323 323 324 324 323 322 322 321 319 317 315 317 318 315 316 316 316 318 318 317 317 317
318 318 322 322 325 331 330 327 326 325 324 322 323 325 325 325 327 329 330 328 327 325 325 326 326 324 323 322 322 323 324 323 323 322 320 322 320 318 316 317 317 316 318 318 317 318 318 317 317
319 319 320 321 322 329 332 329 327 326 324 323 325 324 325 327 327 329 330 329 328 327 326 325 326 325 325 325 322 322 323 324 322 323 322 320 322 322 321 318 316 315 315 316 319 318 318 317 318
319 319 319 324 324 322 328 329 327 326 325 325 324 323 323 324 327 329 329 330 329 328 326 325 325 325 325 325 325 322 322 324 323 323 322 322 321 321 321 320 318 317 317 316 316 317 317 317 318

GFSSGP_850_thetae_075.txt.gz
Theta_e
312 312 317 319 317 315 317 318 319 321 320 322 322 323 323 323 324 334 341 334 333 331 332 331 336 337 337 336 334 330 328 328 328 326 323 323 322 321 319 317 316 316 323 328 322 325 324 327 326
312 316 318 320 317 318 319 319 320 319 321 321 321 321 323 329 337 342 339 332 338 332 327 331 336 337 337 337 336 332 329 328 327 326 323 321 319 318 317 317 322 328 329 329 330 325 322 323 323
312 319 320 316 317 319 318 320 320 320 321 321 320 321 323 332 335 337 331 324 324 331 332 330 334 337 337 338 337 334 330 329 327 327 324 320 318 318 317 322 328 329 329 329 326 325 324 324 325
314 320 321 315 316 318 320 320 320 321 321 321 322 322 330 329 328 327 324 322 322 324 328 329 335 337 336 339 338 337 335 330 327 328 324 319 319 320 324 324 327 327 328 330 322 322 324 324 326
314 318 314 315 316 318 319 320 322 321 322 323 323 323 329 332 330 325 323 322 322 324 330 337 338 338 337 335 340 340 336 333 329 329 324 325 321 324 326 327 326 328 327 319 316 322 325 324 324
316 318 314 313 316 318 319 321 322 322 322 321 321 321 332 333 329 327 326 324 323 324 331 339 340 339 340 336 336 339 337 334 332 332 327 322 323 327 327 326 324 326 321 316 317 322 323 322 323
314 313 313 314 317 318 320 322 320 320 320 321 323 324 335 333 329 329 328 326 324 327 329 336 340 340 339 338 336 336 333 326 329 325 332 328 324 328 329 326 322 319 315 316 317 319 321 322 322
317 314 315 316 317 317 319 322 322 321 320 322 323 321 332 332 330 330 328 327 327 327 329 335 338 339 337 336 336 333 331 330 326 324 329 328 329 327 326 324 322 314 311 314 315 314 314 319 322
318 316 316 315 316 318 320 321 321 321 320 321 321 321 322 331 331 327 327 331 333 332 330 328 338 338 337 335 334 332 330 326 328 326 324 328 330 328 327 324 316 312 310 311 311 310 314 321 322
315 314 315 316 316 317 318 317 321 321 320 321 321 326 329 329 328 328 331 333 334 334 333 330 332 334 336 335 331 330 328 327 325 325 324 332 329 327 325 321 312 309 309 309 309 309 318 321 321
316 315 315 317 318 319 317 317 320 319 319 321 323 327 328 329 329 330 331 331 331 331 329 332 331 330 331 334 332 331 330 326 324 323 326 331 328 327 321 316 311 309 308 308 308 309 317 321 321
316 316 316 317 318 318 317 318 318 319 319 320 320 321 328 330 331 330 331 330 330 330 329 327 328 328 331 333 332 330 327 328 327 332 331 327 328 323 322 312 308 308 308 308 307 308 315 320 322
317 316 317 317 317 318 318 316 317 318 319 319 320 323 325 327 329 331 330 329 329 328 327 328 330 330 331 333 332 331 330 330 328 326 329 328 325 323 324 310 308 308 307 308 309 309 319 321 322
318 318 317 317 317 317 317 316 317 318 318 319 319 323 326 326 328 331 330 329 328 326 328 328 329 329 330 332 332 331 331 330 328 326 329 326 321 325 322 312 308 308 310 310 309 309 319 320 320
318 317 317 316 317 315 317 316 317 318 319 319 319 320 326 328 329 330 329 328 328 328 328 328 326 326 326 327 330 330 330 330 329 327 328 323 322 322 317 315 311 311 311 315 318 314 314 319 319
318 317 316 316 316 317 316 317 316 319 319 318 319 320 328 329 330 331 330 328 330 328 328 328 327 324 324 324 327 329 330 330 328 327 327 322 322 323 323 314 314 314 313 321 321 320 319 319 318
316 316 317 317 317 317 316 316 317 319 319 319 320 321 327 329 330 330 329 328 328 326 327 327 325 324 325 325 325 327 328 329 328 328 325 322 322 321 323 313 315 316 315 322 323 321 320 319 318
318 318 316 316 317 317 316 316 317 319 320 321 322 323 326 329 330 330 329 328 328 326 326 326 324 324 324 323 327 327 326 326 329 327 326 323 322 320 320 315 316 318 318 320 323 321 319 319 319
317 319 318 318 318 319 319 318 317 318 319 319 322 323 324 329 330 330 329 328 327 326 326 327 324 324 324 324 324 325 326 327 328 328 325 325 321 320 319 317 319 323 321 320 323 321 319 320 320
317 317 317 318 319 320 320 322 317 317 316 319 321 322 323 329 330 330 329 328 327 325 324 324 324 325 324 323 323 326 326 326 326 325 326 324 320 320 319 319 323 322 323 322 322 320 319 319 319
314 314 318 318 319 319 319 319 318 319 319 321 320 324 324 329 330 329 328 328 327 324 325 326 324 325 324 324 322 323 323 324 324 324 325 323 321 320 320 322 320 321 321 320 321 320 319 321 320
314 315 317 319 320 323 321 322 318 318 319 320 319 322 324 329 330 329 328 328 326 323 323 325 326 325 324 324 323 323 322 322 323 324 324 322 320 318 319 318 322 323 322 320 321 321 320 321 319
315 318 319 321 322 323 323 321 319 318 319 319 319 321 324 329 330 329 329 328 326 323 322 327 324 326 324 324 323 323 323 323 322 323 321 318 317 318 321 322 322 322 321 321 321 321 319 320 320
316 317 319 320 321 325 323 321 319 319 320 321 320 321 322 329 330 329 329 328 327 324 323 323 326 326 324 324 323 323 323 323 322 322 320 320 320 319 320 322 321 321 319 319 317 317 319 319 320
316 319 324 326 326 326 322 322 320 319 320 320 319 320 322 329 330 329 329 328 327 325 322 326 326 325 324 323 322 323 323 322 322 322 322 318 319 319 319 318 318 318 318 318 315 315 319 320 320
317 320 325 328 326 323 321 322 321 320 320 320 321 323 324 329 330 330 329 328 328 326 324 324 326 323 323 322 322 322 322 322 322 321 321 319 318 318 320 320 319 317 317 317 314 316 315 316 318
318 321 318 323 321 326 328 321 320 320 321 320 320 322 324 329 329 330 329 329 328 326 325 321 324 325 324 323 322 322 322 322 322 321 321 317 314 314 317 318 318 318 318 318 317 316 316 318 319
318 318 320 319 325 328 326 327 320 321 320 319 319 320 323 327 329 330 329 329 328 327 325 325 321 321 322 323 322 322 322 322 323 323 322 321 318 314 317 319 319 320 318 319 318 317 317 318 318
319 320 320 320 323 326 330 331 325 325 323 320 320 323 326 326 329 329 329 329 328 327 326 325 325 323 321 320 322 322 322 322 322 322 322 322 322 318 316 316 317 317 316 316 316 317 316 317 317
315 320 320 324 325 323 322 326 325 324 322 320 321 323 324 327 329 330 329 328 328 327 326 325 325 324 324 323 323 321 322 322 322 323 322 322 322 322 321 320 318 315 315 316 316 317 317 317 317

GFSSGP_850_thetae_078.txt.gz
Theta_e
315 312 312 317 316 311 315 315 316 317 320 321 322 323 322 325 322 322 333 327 326 326 325 325 330 336 335 333 331 329 328 327 326 324 325 326 332 334 333 329 323 318 315 316 321 328 329 329 331
313 312 317 318 315 316 314 317 317 318 320 320 320 321 323 338 335 337 338 329 326 325 324 325 327 334 336 334 331 329 329 328 327 325 323 324 326 326 323 320 316 316 315 316 325 324 327 328 326
312 314 319 314 312 315 316 318 320 318 320 320 320 321 323 336 333 330 332 324 323 322 322 323 326 332 337 335 334 331 329 328 328 326 323 322 323 320 318 316 316 322 326 320 325 326 326 325 325
312 317 319 314 316 316 316 318 317 317 319 320 321 325 330 331 329 326 323 323 324 322 322 324 327 332 336 337 335 333 330 329 329 327 323 322 319 318 316 316 324 329 331 329 322 322 324 326 327
313 317 313 313 313 315 316 317 317 318 320 321 322 322 332 333 330 325 323 324 325 323 323 326 329 333 336 337 337 334 332 330 329 328 324 321 318 317 316 320 328 328 329 327 323 324 325 324 325
314 313 311 313 314 316 315 318 318 319 321 321 320 323 335 333 327 326 324 323 324 324 325 327 335 338 337 336 337 337 335 333 331 329 329 328 325 322 323 323 326 326 327 324 325 325 325 325 326
312 309 311 312 313 315 316 318 318 319 319 320 322 325 335 334 328 327 327 325 326 323 324 330 339 340 338 338 337 336 336 335 333 330 327 326 328 331 328 326 323 324 321 322 325 324 326 326 325
315 310 314 314 316 315 317 318 320 319 319 322 323 329 334 333 330 330 329 328 324 325 326 324 335 342 340 339 337 335 334 333 326 326 327 324 328 325 329 326 322 322 317 322 323 324 323 322 323
316 312 312 314 315 316 317 316 318 320 320 322 323 323 322 326 330 330 329 325 328 329 331 327 326 333 338 339 338 334 332 332 329 328 324 323 327 330 329 327 323 315 318 323 323 322 322 321 322
314 310 314 314 314 314 316 315 316 317 319 319 322 322 323 327 330 329 326 328 330 329 331 331 330 329 334 336 336 334 333 329 329 327 324 324 328 330 328 326 320 316 316 319 322 322 321 322 322
315 317 314 314 315 315 315 315 317 316 316 319 322 326 327 330 329 327 328 329 329 330 331 331 330 331 331 332 332 329 330 327 327 327 326 324 324 328 328 326 320 314 318 317 318 320 321 322 322
315 316 315 316 316 315 315 316 316 315 317 319 320 323 327 328 327 328 329 330 330 330 330 328 328 331 330 330 328 329 329 327 325 324 325 326 326 328 328 323 317 311 315 314 313 321 321 321 321
314 316 317 317 317 316 316 315 315 316 317 317 318 323 327 327 328 329 330 330 330 330 328 326 326 328 328 330 330 328 328 329 326 325 325 325 331 327 326 317 312 310 310 310 312 321 321 321 322
315 315 316 317 316 316 315 315 315 316 317 318 318 321 325 328 329 330 330 330 329 328 327 322 327 329 329 329 331 329 329 327 327 325 327 325 327 327 321 312 309 309 308 308 311 320 321 321 322
317 315 315 315 316 315 316 314 315 316 317 318 318 318 322 326 329 326 327 329 329 328 327 323 327 328 328 331 331 329 329 327 329 327 328 326 327 324 317 310 308 308 308 307 310 319 320 322 322
316 315 316 316 315 315 314 316 315 317 317 317 318 318 318 325 326 327 328 329 328 328 327 325 326 326 325 326 329 331 330 328 329 328 327 327 326 321 318 310 308 308 307 308 309 320 320 321 321
314 316 315 315 316 315 315 316 315 317 317 316 318 318 317 323 328 329 329 329 329 328 327 323 325 326 324 323 326 329 330 330 327 328 328 328 323 324 319 310 308 308 309 309 314 319 319 319 320
315 315 314 314 316 316 317 315 316 317 316 315 317 319 318 326 328 329 330 329 329 328 327 321 325 324 324 326 325 327 329 330 329 328 328 325 322 321 318 311 309 310 310 314 312 316 315 315 317
315 316 316 315 317 318 317 317 317 318 318 315 315 318 322 326 329 330 329 329 328 328 327 320 324 323 324 326 325 326 327 329 329 326 327 325 322 323 320 314 312 312 314 319 319 320 320 318 318
314 315 316 316 317 317 316 316 318 318 318 317 317 318 323 327 329 329 329 329 328 328 326 320 323 324 323 324 326 327 328 328 328 328 326 325 324 323 321 316 314 314 321 322 322 321 320 319 318
313 314 314 314 317 317 317 318 318 319 317 317 317 320 320 326 329 329 329 329 328 327 326 318 322 324 323 324 325 324 326 327 326 327 325 324 324 323 319 317 315 318 316 319 322 321 320 319 319
318 313 314 316 319 321 319 321 319 319 319 317 316 318 319 325 328 329 329 328 328 327 323 319 324 324 323 323 323 325 325 325 325 327 326 324 323 322 319 318 315 321 322 321 321 321 319 320 319
317 313 315 318 319 321 319 321 319 319 318 318 316 317 319 324 328 329 329 329 328 326 320 320 324 323 323 323 324 322 322 323 324 325 326 325 323 320 320 318 318 320 323 322 322 321 320 319 319
315 315 316 318 320 321 319 322 321 320 319 319 318 319 319 326 328 329 329 328 327 325 320 321 325 325 324 324 323 322 323 322 323 323 323 324 323 321 321 321 321 322 321 321 321 320 320 319 320
315 317 320 321 322 321 320 322 321 321 319 318 318 319 319 326 328 328 328 328 327 325 320 321 325 324 324 324 324 323 323 323 323 322 322 324 323 321 320 319 320 320 321 322 319 319 319 320 319
316 319 323 323 325 323 321 322 321 320 320 319 319 319 322 327 328 329 329 328 327 326 322 319 323 323 323 322 323 323 323 322 322 323 322 323 323 321 319 319 322 322 322 322 321 321 321 320 320
318 321 318 323 324 323 324 322 320 319 318 318 316 321 326 327 327 329 328 328 328 326 323 318 321 324 325 322 322 322 322 322 322 322 322 323 322 320 319 318 321 322 321 321 320 320 319 315 316
316 318 321 321 324 326 325 324 323 325 321 318 317 319 326 327 327 328 328 328 328 327 324 321 319 322 324 322 322 322 322 322 322 322 322 322 322 321 320 318 318 319 319 318 318 317 316 316 315
318 320 320 320 321 328 327 328 324 325 323 321 318 319 325 327 328 328 328 329 328 327 325 323 322 321 323 322 322 321 321 321 321 322 322 322 321 321 320 318 317 318 318 317 315 316 315 316 315
317 318 320 320 323 323 323 325 325 324 322 319 319 321 322 327 328 328 328 328 328 328 326 325 324 322 320 320 321 322 321 321 321 322 322 322 321 320 319 318 318 318 319 319 317 317 319 319 317

GFSSGP_850_thetae_081.txt.gz
Theta_e
314 312 312 317 315 310 314 314 313 316 319 320 321 321 320 321 321 320 324 322 322 323 321 322 327 333 333 330 328 329 329 328 328 329 334 336 337 338 336 334 332 328 324 319 321 330 330 327 329
315 312 315 318 315 313 311 314 318 315 318 321 321 327 328 333 332 331 329 326 323 322 322 322 323 330 334 331 328 328 328 327 326 326 329 335 335 337 335 333 331 325 318 317 325 331 328 329 331
313 312 318 313 311 313 312 315 317 317 319 318 318 321 326 333 332 330 332 325 323 324 325 323 322 325 334 333 330 328 328 328 326 325 327 333 335 335 334 331 323 317 317 319 330 329 327 330 329
312 315 317 314 315 313 313 316 316 316 319 320 319 328 329 328 329 329 325 322 322 323 323 323 323 325 332 335 332 329 329 328 327 326 327 330 331 328 326 321 318 317 320 331 331 328 326 327 325
313 316 313 313 313 312 314 316 316 316 317 319 320 323 328 330 330 327 323 322 323 322 322 323 325 326 332 336 334 331 330 329 328 328 326 327 326 323 319 318 318 323 323 328 328 326 325 324 323
312 312 310 313 313 313 313 316 316 316 318 318 319 326 332 330 330 326 323 323 324 323 322 324 329 331 333 336 336 333 331 330 330 330 329 327 326 324 324 326 329 330 330 329 327 325 324 327 327
309 307 310 311 312 313 314 317 316 316 315 317 321 331 332 332 330 326 324 325 324 325 322 325 331 336 338 337 337 335 334 332 330 329 327 326 326 325 326 329 329 329 329 327 326 325 325 326 325
313 308 311 311 314 313 314 316 317 316 316 318 322 331 334 331 329 327 329 327 326 324 324 325 329 339 339 337 337 337 336 334 331 329 328 328 327 326 325 328 329 327 326 326 325 325 325 325 324
315 310 309 312 314 314 315 315 317 316 317 317 319 325 324 328 330 330 330 327 327 325 328 327 326 327 336 337 335 336 336 334 331 331 328 326 324 327 328 329 327 326 325 325 325 325 326 326 324
312 310 310 311 313 314 314 314 315 315 316 316 316 320 322 327 330 331 330 328 325 327 328 328 329 328 329 330 333 333 336 335 330 331 328 326 325 326 324 326 325 326 324 325 326 326 325 323 323
314 314 311 313 315 315 314 313 315 314 314 315 316 317 322 325 330 330 329 327 326 328 329 329 330 329 328 332 329 333 334 332 330 330 328 327 325 323 326 327 326 326 325 324 325 323 322 322 322
315 313 315 315 316 315 313 316 314 314 314 316 316 317 325 327 327 327 329 326 328 329 329 329 329 327 327 331 332 331 330 324 328 329 328 328 324 326 327 327 326 322 326 324 323 322 321 322 322
313 315 316 316 316 316 316 313 314 315 316 317 316 315 321 326 325 327 327 328 329 329 329 328 328 324 324 328 330 331 327 329 328 327 327 324 326 325 329 327 326 322 325 323 322 321 321 322 322
311 313 313 314 315 315 315 315 314 315 317 316 316 316 318 326 325 328 328 329 329 329 329 328 327 321 325 328 328 330 329 329 326 326 326 325 326 324 328 327 325 319 324 323 321 321 321 321 321
315 314 313 313 313 312 315 314 312 316 316 316 316 316 317 322 326 326 326 328 328 328 328 328 325 321 327 328 329 331 329 327 327 325 325 325 325 327 325 327 321 315 320 320 320 320 321 321 321
314 314 315 314 313 314 314 316 315 316 316 316 317 317 316 321 324 325 327 327 327 329 328 327 325 322 326 328 330 330 328 325 327 325 325 325 327 326 326 326 317 312 315 315 318 320 320 321 322
312 314 313 314 314 313 312 315 314 316 315 315 316 317 316 315 321 326 328 327 328 328 328 327 325 323 325 325 330 329 330 327 327 326 327 327 327 328 327 324 313 310 311 312 318 320 320 321 322
313 314 312 313 314 314 313 315 314 316 316 316 317 317 317 316 317 321 328 328 329 328 328 327 325 322 325 325 325 328 329 329 327 328 326 326 327 329 327 319 310 309 309 310 316 320 320 321 322
312 313 314 313 313 314 315 315 315 315 315 314 316 316 318 317 318 321 327 329 329 328 328 327 324 321 324 324 324 327 327 328 328 328 326 328 327 327 324 315 309 308 308 308 311 319 320 320 320
309 311 311 313 314 315 314 315 315 315 315 316 316 317 317 316 319 324 328 329 329 329 328 327 323 323 323 324 324 326 326 328 329 329 327 327 327 325 323 311 308 307 307 308 309 319 320 319 319
312 314 312 313 314 314 314 316 315 315 316 318 319 320 316 316 320 326 328 329 329 328 328 327 323 323 323 323 324 325 327 326 327 327 328 327 325 322 322 310 308 307 309 309 310 318 318 315 317
316 315 315 313 316 316 317 319 318 317 317 317 318 318 316 317 323 326 328 329 329 328 328 326 320 323 324 323 324 325 325 327 326 327 328 327 323 323 323 319 310 310 310 312 312 315 316 318 318
315 315 315 316 316 317 317 320 317 316 317 318 317 318 318 317 322 326 328 328 328 328 327 326 319 324 323 323 323 324 325 325 327 326 327 327 323 324 323 320 313 312 312 318 320 320 320 320 318
314 315 314 314 317 319 317 318 317 316 317 319 319 317 318 317 322 326 328 328 328 328 327 323 320 324 324 323 322 324 323 324 325 324 324 326 324 323 324 322 319 314 316 317 322 322 321 321 319
314 316 315 315 317 317 317 317 317 316 318 319 319 318 317 318 323 325 327 327 328 328 327 321 320 323 322 323 323 323 322 323 324 324 325 326 325 325 323 322 320 318 318 319 318 320 322 321 320
314 316 317 320 320 321 316 318 317 318 319 319 319 319 319 318 322 324 326 327 328 328 327 321 320 322 322 323 323 323 322 322 322 323 324 324 325 324 324 322 320 319 316 320 322 322 322 321 320
316 318 316 321 320 324 320 321 318 323 319 321 320 321 318 320 323 325 326 327 328 328 327 320 319 321 322 323 323 323 323 322 322 322 322 321 322 324 324 322 321 319 319 319 322 321 320 319 318
314 316 322 318 321 324 322 322 327 325 323 321 318 317 318 324 325 325 326 327 328 328 326 321 318 320 321 321 322 323 323 323 322 322 322 322 322 323 324 323 321 320 320 320 321 320 321 319 318
317 316 317 319 320 325 327 327 324 323 322 321 319 319 321 325 325 325 326 327 328 327 326 323 319 319 320 321 322 322 323 322 322 322 322 322 322 322 322 322 321 320 321 322 322 321 321 321 320
315 316 318 322 324 322 321 320 323 321 319 320 319 321 322 325 325 325 326 327 327 327 326 324 320 319 319 320 322 321 322 322 322 322 322 322 322 322 322 321 320 319 318 319 321 321 320 320 319

GFSSGP_850_thetae_084.txt.gz
Theta_e
315 312 312 317 313 310 314 313 312 314 316 317 320 319 319 320 319 318 325 323 321 320 321 322 325 329 331 332 329 331 335 335 336 337 339 339 336 334 331 331 330 327 326 325 325 324 323 329 332
315 312 314 317 312 312 310 312 316 315 317 318 320 323 325 323 328 326 324 325 322 321 321 321 323 326 330 331 329 330 334 333 333 335 337 338 337 336 335 332 331 328 326 323 323 324 331 329 331
314 312 317 312 310 310 309 311 315 316 317 317 317 323 323 327 328 327 326 327 323 322 322 322 323 326 330 332 330 330 331 330 332 336 338 338 337 337 334 334 331 328 326 325 321 326 331 327 328
312 315 315 313 314 312 310 314 314 314 317 318 317 319 325 326 327 326 328 327 322 322 323 323 323 325 331 332 331 329 330 330 329 331 335 336 338 337 335 333 331 330 326 328 328 331 329 329 330
312 315 311 313 313 311 312 314 316 315 316 317 317 317 327 328 328 328 328 323 323 324 326 323 323 324 330 333 332 330 330 329 329 330 331 334 336 335 334 332 330 327 328 328 328 329 328 329 329
312 312 311 312 312 311 311 315 315 315 316 317 316 317 324 327 328 328 326 323 323 323 323 323 324 325 329 334 333 331 330 330 329 330 329 330 330 330 330 327 325 327 328 328 329 328 328 327 326
307 307 309 309 312 312 312 315 314 315 314 315 318 322 325 324 329 328 324 323 324 324 324 324 325 329 331 335 335 333 331 330 329 328 328 327 326 326 324 323 324 326 326 327 329 328 326 325 324
312 306 308 308 312 312 313 315 316 315 315 317 318 325 325 326 330 327 325 324 326 326 325 324 327 331 334 336 336 335 333 332 330 328 329 329 326 326 326 324 326 327 329 329 328 327 325 325 327
312 308 307 309 311 311 314 315 315 316 316 315 316 317 318 323 333 330 327 326 326 326 325 325 328 334 334 333 336 336 335 334 333 330 329 329 326 325 324 325 324 327 328 327 327 327 327 327 326
310 308 308 308 310 310 312 313 314 314 314 315 315 316 318 317 328 332 327 327 326 326 325 327 327 331 331 334 334 336 335 335 333 330 328 327 327 326 326 326 325 326 325 326 327 328 326 325 325
313 311 309 311 312 312 312 311 314 313 312 315 315 316 316 316 326 331 328 328 326 327 325 328 328 329 327 327 330 333 334 333 333 331 329 329 328 327 325 326 325 326 324 326 327 327 326 325 324
313 312 313 312 313 314 312 314 313 313 314 316 316 316 316 316 320 330 329 327 327 328 327 329 328 329 328 328 329 328 328 333 331 332 329 329 328 326 325 325 326 325 324 324 326 325 326 325 323
311 313 314 315 315 314 315 312 314 313 316 316 316 316 316 316 316 323 331 329 329 328 328 328 329 329 328 325 326 330 330 332 331 331 328 328 326 325 326 324 324 325 324 324 325 326 324 322 322
309 310 310 312 313 314 314 314 314 315 316 316 316 316 317 317 316 317 327 328 329 328 328 329 329 329 327 323 324 328 329 330 330 327 329 328 326 327 324 325 325 324 324 324 325 325 322 321 321
311 312 311 311 312 312 314 313 312 314 316 315 316 317 317 317 316 316 321 325 326 327 328 329 329 329 325 321 325 326 327 330 329 328 328 328 327 325 325 326 327 326 323 325 325 322 321 321 322
311 311 313 312 311 313 313 314 313 315 315 316 316 316 316 316 316 317 318 324 327 327 328 329 329 328 324 322 326 327 327 330 329 327 327 327 326 325 326 326 324 326 323 325 324 321 321 321 321
308 310 311 312 313 313 310 314 313 315 314 312 315 316 317 318 318 317 317 322 327 328 328 329 329 326 324 324 326 327 328 330 328 327 326 326 325 326 325 325 325 326 321 325 323 321 321 321 321
308 311 312 313 312 312 312 313 312 314 315 315 317 317 317 317 318 319 317 318 324 328 329 329 328 326 325 325 331 328 327 327 327 326 327 325 325 325 325 324 324 326 320 325 323 320 321 321 321
310 310 309 308 310 311 311 312 313 312 312 311 314 315 317 317 319 319 318 317 324 328 329 328 327 327 325 325 328 327 326 328 329 327 325 326 325 326 326 326 325 326 317 325 324 320 320 320 321
307 307 307 308 310 311 311 312 312 312 312 314 313 315 317 317 319 318 318 318 325 329 328 328 328 326 322 323 324 326 326 326 327 328 327 326 326 326 327 326 326 324 315 323 321 319 319 320 322
309 310 312 313 313 311 312 313 312 312 313 314 315 316 317 318 319 317 318 320 326 328 328 328 328 326 321 323 323 326 325 327 326 327 327 327 325 326 326 327 327 321 312 318 318 318 319 320 321
314 314 315 314 313 313 313 317 313 313 315 315 315 316 318 318 318 316 319 322 326 328 328 328 327 324 321 323 324 324 323 325 326 327 327 325 326 327 327 327 325 316 311 311 313 317 319 320 320
314 315 315 314 314 314 314 315 312 313 314 314 314 316 318 319 318 317 318 323 326 328 328 328 326 322 320 323 322 323 324 326 325 327 327 325 327 325 326 324 319 311 309 309 309 314 319 319 320
313 314 313 313 315 316 313 314 314 314 314 315 315 317 318 318 317 321 322 324 326 327 329 328 326 320 322 323 323 325 323 324 325 326 327 326 326 327 324 324 317 309 308 308 308 309 317 319 319
313 314 313 314 318 316 313 315 314 314 314 315 316 317 318 318 317 320 321 325 327 327 328 327 326 319 322 323 323 325 323 324 324 325 326 326 327 326 320 321 320 319 308 309 310 309 315 319 317
313 314 315 318 318 318 317 315 315 321 320 319 319 318 318 317 318 319 319 323 326 327 328 327 325 319 322 324 323 323 325 323 324 324 324 326 326 325 323 325 322 321 315 312 311 317 317 319 320
315 316 315 318 317 320 318 317 320 321 321 320 319 319 319 318 319 319 320 324 325 327 328 327 325 318 321 323 323 323 323 322 322 323 324 324 325 325 324 323 321 322 321 317 315 315 318 319 319
314 315 320 318 317 320 319 320 324 322 320 320 320 319 322 321 318 319 322 324 324 326 328 327 324 317 320 321 322 323 323 322 322 322 322 323 323 325 325 325 324 323 321 320 317 320 319 318 317
316 316 317 317 320 321 319 320 323 322 319 320 319 321 321 320 322 323 324 324 325 326 327 326 322 318 320 321 322 322 323 322 322 322 322 322 322 321 322 322 323 323 321 321 320 319 319 321 322
314 314 314 320 319 318 317 317 322 322 318 319 319 320 320 324 323 324 324 323 324 326 326 325 322 318 320 321 321 320 321 322 321 321 321 321 322 322 321 322 322 323 321 321 320 320 320 320 321

GFSSGP_850_thetae_087.txt.gz
Theta_e
311 314 312 317 319 318 318 318 314 317 318 316 317 319 321 321 329 326 328 331 324 320 321 321 321 321 324 328 333 332 332 335 337 338 339 340 338 335 331 331 330 329 327 327 327 328 327 326 328
311 313 313 317 317 315 315 316 318 319 319 317 317 323 324 324 323 326 330 323 321 322 321 321 321 321 326 330 331 330 333 336 337 339 339 340 336 334 330 331 330 328 327 326 327 325 324 328 330
315 311 317 319 316 314 315 314 319 317 317 316 317 322 322 326 326 325 324 324 323 321 321 321 321 321 325 329 331 331 333 335 337 339 340 339 336 333 331 332 329 327 326 326 326 325 325 328 330
314 314 314 318 317 316 314 316 317 318 316 316 317 319 321 322 325 326 325 325 324 322 322 322 322 323 325 330 331 332 333 333 336 338 339 338 336 334 332 332 330 328 327 328 329 328 330 330 329
312 313 315 317 316 315 314 314 315 317 316 317 316 319 322 321 323 326 326 327 323 322 322 322 322 323 325 330 331 331 333 331 332 336 338 338 337 335 335 333 333 330 329 329 328 329 331 329 329
312 312 314 314 315 314 314 315 315 315 315 316 316 317 320 320 322 326 326 328 323 323 323 322 323 323 325 330 332 331 331 331 329 329 333 334 334 335 335 333 332 331 326 326 328 330 329 330 330
312 314 313 313 314 314 315 314 315 315 316 317 318 321 322 326 329 330 330 327 323 324 324 323 324 325 327 330 332 332 331 330 329 329 333 333 334 335 333 332 329 326 326 327 328 330 327 330 328
311 312 311 312 313 314 314 313 315 315 317 316 318 322 320 318 323 331 331 326 323 324 324 325 325 326 328 333 333 334 332 331 330 329 331 332 332 333 332 326 326 323 326 326 327 329 327 328 327
311 312 312 312 313 313 313 315 314 315 315 315 316 317 316 323 317 330 330 326 324 324 325 325 325 326 329 334 340 336 334 332 331 330 330 329 329 330 325 325 324 325 326 326 327 328 327 327 326
313 313 313 311 312 313 312 314 314 314 315 315 314 314 315 316 316 324 331 327 325 325 325 325 324 326 331 331 336 337 335 334 333 332 329 329 327 327 326 326 327 325 326 325 327 327 326 327 327
313 314 311 311 311 311 312 312 312 313 314 314 314 315 315 316 316 317 329 330 326 327 326 325 325 326 331 331 333 335 336 334 333 333 332 329 329 327 325 324 326 327 328 327 326 326 326 327 328
313 313 313 312 312 313 313 313 313 313 314 314 315 315 315 316 316 316 318 327 330 329 328 326 326 327 329 327 331 333 334 335 335 333 332 330 328 326 328 326 326 327 326 325 327 327 327 327 325
314 314 314 314 314 313 313 314 315 314 315 315 315 316 316 316 317 317 316 321 326 330 329 328 327 328 329 328 329 328 334 336 336 332 331 330 328 328 328 326 326 327 326 324 326 327 326 325 325
309 310 311 311 312 312 313 314 314 314 314 315 315 316 316 316 317 317 316 316 318 329 330 329 328 328 329 329 329 328 329 333 333 333 331 330 328 328 328 326 326 326 326 324 325 326 325 325 324
310 310 312 313 314 314 313 313 314 314 315 314 315 315 316 316 317 317 317 317 316 321 329 330 329 329 329 329 329 327 329 333 331 330 330 329 328 328 328 325 326 326 324 323 325 325 325 325 323
310 311 312 313 313 313 313 314 315 314 314 314 314 315 316 316 316 316 317 317 316 318 326 330 329 330 329 329 328 323 328 332 328 329 332 330 327 329 327 325 326 325 324 324 325 324 325 322 322
308 309 312 313 313 314 314 314 314 314 314 315 315 315 315 316 317 318 318 318 317 317 323 330 329 330 329 329 326 324 329 331 327 329 329 330 329 327 327 327 326 324 324 324 324 326 324 321 322
307 309 312 312 314 312 312 312 312 312 313 314 315 315 315 316 317 317 317 318 319 317 322 329 329 330 329 328 324 328 328 329 327 329 328 327 327 327 326 326 326 326 323 324 325 325 322 321 322
309 311 311 310 309 309 310 311 312 312 312 313 314 314 315 315 316 317 317 319 319 318 319 328 329 330 329 327 325 327 326 326 327 327 328 326 326 327 326 326 325 323 323 324 324 325 322 321 321
308 308 309 310 310 312 314 315 314 313 313 312 313 314 315 315 316 317 317 318 318 318 318 327 329 329 328 327 326 328 326 325 327 326 327 326 325 326 326 326 325 320 325 324 325 324 321 321 321
308 309 311 312 313 314 314 314 314 313 313 313 313 313 314 315 316 316 317 318 318 318 319 326 329 329 327 327 323 327 325 326 326 325 327 327 324 325 325 325 325 324 325 324 324 323 321 321 321
312 311 312 315 315 314 314 315 314 314 315 315 315 315 314 315 315 317 318 318 318 319 323 328 329 328 327 325 321 323 324 324 325 326 326 326 327 326 325 327 325 325 325 326 323 324 323 320 320
315 314 314 314 315 315 315 316 315 314 316 317 317 316 316 316 317 317 318 318 318 321 325 328 328 328 327 321 322 322 324 323 323 324 326 326 327 325 325 325 326 326 326 326 321 325 323 320 320
313 313 313 314 315 317 314 315 315 316 316 319 320 318 316 317 317 318 317 318 320 323 326 328 328 328 326 319 324 325 322 324 325 326 326 326 326 324 325 326 325 326 327 324 317 323 322 319 319
313 314 316 317 316 315 314 315 316 316 321 321 321 320 320 319 316 317 319 320 323 323 326 328 328 327 325 320 323 324 323 323 325 325 326 326 325 325 325 326 326 325 323 317 313 317 320 318 319
314 314 316 315 318 318 318 318 316 322 320 320 320 321 322 323 321 318 321 323 324 323 325 328 328 327 322 322 323 325 323 324 324 324 325 326 325 322 321 324 324 318 313 311 309 310 312 314 313
315 316 315 317 317 318 316 318 317 321 321 320 321 321 321 322 322 321 319 321 323 323 325 328 327 327 320 324 324 324 323 323 323 322 324 325 325 325 322 323 320 321 319 319 312 308 309 310 313
314 316 318 316 317 319 318 318 319 323 321 320 320 321 321 321 323 320 318 320 323 323 325 327 327 326 320 324 324 324 323 323 323 323 322 324 325 325 325 324 322 321 321 321 317 310 310 311 311
315 315 315 317 319 320 320 318 323 321 319 320 320 319 320 320 323 322 323 324 323 322 326 326 326 324 320 326 322 322 321 323 322 322 322 323 324 324 325 325 323 324 322 321 321 316 312 315 315
314 315 314 316 318 318 318 319 320 315 317 318 319 318 318 319 322 323 324 324 322 323 324 327 325 322 320 323 321 321 321 320 321 321 321 322 322 322 322 322 323 323 322 322 322 320 313 313 315

GFSSGP_850_thetae_093.txt.gz
Theta_e
314 317 317 317 321 322 321 323 324 324 324 324 324 324 325 327 329 332 335 337 338 341 322 321 321 320 321 322 325 328 331 335 338 339 339 339 337 335 334 332 331 333 338 338 335 332 333 332 330
315 319 317 317 321 321 323 324 323 323 324 324 324 324 324 326 327 332 333 339 339 338 322 322 321 320 320 321 323 329 333 335 335 336 338 338 338 336 334 332 332 334 336 334 332 332 332 330 330
317 318 317 320 320 322 321 324 323 323 323 322 324 324 325 326 327 328 336 338 338 336 326 323 322 321 321 320 322 328 333 333 332 334 338 338 338 336 335 333 332 334 334 333 334 333 331 329 329
319 317 316 320 321 322 322 323 322 323 322 321 322 324 325 327 331 329 336 338 338 337 339 323 322 322 321 321 322 327 331 331 331 335 338 338 339 337 335 333 333 334 337 333 332 333 330 327 330
316 317 318 319 320 321 322 321 321 322 323 322 322 323 324 326 328 333 335 337 337 338 339 323 322 322 321 321 322 326 330 331 332 336 338 339 340 338 336 333 333 337 335 332 332 331 328 328 331
317 317 320 321 321 322 322 321 320 321 322 322 321 321 323 328 330 333 334 337 337 339 340 323 322 321 321 321 321 325 330 331 333 336 338 340 340 337 336 334 334 337 333 332 330 330 326 328 332
319 321 320 321 322 322 322 320 321 320 320 322 321 321 321 326 332 337 337 338 339 342 333 323 322 322 321 321 322 325 329 331 332 335 336 337 338 338 335 334 333 333 331 330 330 327 325 329 330
318 320 321 322 321 321 321 319 319 319 320 318 319 320 321 326 329 338 341 340 343 344 332 324 323 322 321 321 322 324 328 331 332 333 334 334 335 335 335 333 332 332 332 331 331 327 323 326 328
318 321 321 321 321 322 319 319 318 318 318 318 319 319 323 323 325 331 342 344 345 345 343 327 323 324 323 322 322 324 328 331 331 332 332 333 334 335 334 333 333 332 332 332 329 326 328 327 327
320 321 321 321 321 321 319 319 319 318 318 318 318 318 319 319 320 326 332 342 344 345 340 334 325 325 325 339 332 324 326 331 332 332 332 331 334 335 335 334 333 332 331 329 327 325 328 327 327
318 320 320 320 320 320 320 319 319 319 319 319 318 318 318 317 318 323 324 330 339 343 343 337 330 328 326 337 339 339 338 337 337 336 337 334 336 334 333 334 333 332 328 328 327 326 328 327 329
319 318 319 319 319 319 319 318 319 318 319 318 318 317 317 317 318 320 320 324 329 337 341 343 334 340 327 332 334 340 339 338 337 336 337 337 336 333 333 333 333 332 328 327 326 326 324 327 328
318 318 317 317 317 317 317 318 318 318 318 318 318 317 317 317 317 318 319 320 323 330 337 343 338 337 330 328 326 329 332 339 338 338 336 335 333 333 334 333 332 331 327 326 327 327 326 327 327
314 314 315 314 315 316 317 317 317 318 318 318 318 319 319 319 319 318 318 319 321 324 332 340 342 333 339 330 326 327 326 329 332 335 334 334 333 334 332 331 331 327 326 327 326 327 327 326 325
315 316 317 317 316 316 317 318 318 318 318 318 319 319 319 319 319 319 318 319 320 323 325 335 343 337 335 329 327 327 327 327 330 329 333 332 333 333 332 330 329 326 327 327 327 326 327 326 324
313 314 314 314 314 315 316 318 318 318 318 319 319 319 319 319 319 319 320 318 319 321 325 331 339 339 336 331 328 327 328 327 327 327 326 329 332 332 332 331 328 328 328 327 327 327 326 325 326
313 311 312 313 314 314 316 317 318 318 318 318 319 319 319 319 319 319 320 319 318 321 323 329 336 337 335 333 329 328 328 328 329 330 329 324 330 331 329 331 330 327 327 327 328 326 325 325 326
310 310 312 312 313 314 315 317 317 316 317 317 316 316 317 318 319 319 320 320 319 319 323 327 334 338 334 335 333 330 331 330 330 330 330 327 329 330 329 329 329 328 328 326 327 326 324 325 325
311 311 311 311 313 314 314 314 313 314 314 314 315 315 316 316 317 318 319 320 320 320 322 328 333 338 335 340 335 331 332 331 332 332 330 326 327 330 329 328 327 327 327 327 326 326 324 324 325
311 311 312 311 311 311 311 313 314 315 316 316 316 316 316 317 317 317 317 319 320 321 322 328 332 337 335 334 338 335 333 334 331 330 326 324 328 328 328 327 328 327 327 327 326 324 323 324 325
312 312 311 311 311 313 314 314 316 317 317 316 316 316 317 318 318 318 318 318 320 321 324 327 330 335 335 333 335 335 334 333 333 327 327 326 328 328 328 326 327 327 327 327 326 325 322 323 324
312 311 310 311 312 312 317 316 317 317 317 317 318 321 323 323 322 321 319 318 319 320 325 328 330 335 334 334 335 336 332 331 329 328 326 325 325 327 328 327 328 328 327 326 326 325 322 322 323
312 312 312 312 313 314 316 317 316 317 316 319 321 323 324 324 324 323 321 319 318 319 324 329 331 334 334 335 335 334 333 333 330 327 327 326 326 326 327 327 327 327 324 325 325 323 321 322 323
312 313 315 315 316 318 316 315 317 317 320 322 324 324 325 325 325 325 322 321 319 320 327 331 332 333 334 334 334 334 333 331 328 330 327 327 328 326 326 326 326 325 325 326 325 323 321 323 324
313 316 317 317 316 315 316 316 316 320 323 323 324 324 324 325 326 326 325 322 321 322 329 332 332 333 334 333 333 333 332 329 328 329 327 327 325 326 325 326 325 324 325 325 325 321 324 324 324
314 315 315 315 316 317 317 317 316 322 323 322 323 323 323 324 327 328 327 327 326 327 331 329 331 332 333 333 332 331 330 328 329 328 325 325 326 325 325 325 325 324 324 325 324 323 324 323 323
314 316 314 317 318 320 320 318 323 321 322 321 321 322 322 323 324 329 327 327 329 331 328 325 331 332 332 332 331 329 328 328 327 326 325 326 325 325 324 325 325 324 325 324 321 323 324 324 323
314 314 316 317 317 316 315 315 324 323 321 319 319 321 321 321 321 323 328 326 330 329 325 326 330 331 330 330 329 327 327 326 325 324 324 325 324 324 323 324 324 324 324 324 322 323 324 324 323
313 317 316 316 316 318 318 321 323 319 317 316 317 319 320 319 317 317 324 328 330 329 325 324 329 330 329 328 326 326 326 325 324 324 323 324 324 322 322 322 321 322 323 324 324 324 324 323 319
313 315 316 317 318 317 321 322 320 319 315 316 318 318 319 317 313 313 321 325 328 326 324 325 328 328 326 326 325 326 326 324 323 323 323 324 323 322 323 322 322 322 322 321 320 318 315 314 319

GFSSGP_850_thetae_096.txt.gz
Theta_e
311 315 316 320 319 320 320 320 323 324 324 324 325 325 325 325 333 337 335 335 334 331 327 321 322 320 320 319 320 324 329 334 337 339 340 339 338 336 334 333 331 332 334 336 337 333 331 331 330
310 318 321 319 319 319 320 322 323 324 325 325 324 324 324 325 330 333 337 337 337 324 322 323 322 320 320 320 321 324 329 333 337 338 339 339 338 336 335 333 332 334 337 336 335 332 331 331 328
311 319 320 318 319 319 321 323 324 324 324 324 324 323 323 324 325 332 336 338 336 323 322 324 321 321 320 320 320 324 329 332 335 336 338 338 338 337 336 334 332 334 337 334 333 332 332 329 328
313 320 319 318 318 320 320 322 323 323 323 322 322 323 324 328 330 330 337 338 338 334 324 322 322 321 320 320 320 323 328 331 332 333 335 337 338 338 337 334 332 335 335 333 332 332 330 329 327
316 319 319 318 318 319 321 322 323 322 322 323 322 322 323 325 331 335 337 337 336 339 330 322 322 322 321 320 320 321 325 329 330 332 335 337 337 338 337 336 334 335 335 333 332 331 330 326 327
317 318 319 320 320 321 322 322 322 322 321 323 322 321 322 328 329 331 337 337 337 339 338 325 322 322 321 320 320 321 324 328 330 331 335 337 338 339 337 336 334 334 335 332 332 331 328 325 328
320 321 320 321 321 322 323 323 323 322 321 321 323 323 321 323 330 335 334 337 338 339 337 329 322 322 321 320 320 321 323 327 330 332 335 338 339 339 337 336 334 333 336 333 331 330 328 325 329
321 322 321 322 322 322 322 322 321 321 321 320 320 322 322 326 331 336 337 338 338 340 340 329 322 322 321 320 321 322 324 326 330 332 334 336 338 338 337 336 334 333 335 333 331 330 328 327 331
320 321 322 321 322 322 322 322 322 319 319 319 320 319 321 327 328 332 340 339 341 343 343 330 325 322 322 321 321 322 323 326 330 332 333 333 334 336 336 335 334 333 333 332 332 330 326 326 328
318 323 321 321 321 321 321 321 321 320 319 319 319 319 319 322 321 325 338 343 343 345 346 340 330 323 323 322 321 322 322 324 328 331 332 331 334 334 335 335 334 333 333 332 332 330 327 326 326
317 320 321 321 320 320 320 321 321 320 320 320 319 319 319 319 319 319 325 336 342 344 346 344 339 327 325 329 323 323 322 323 328 331 333 331 333 333 335 335 334 333 332 332 331 328 326 325 327
316 317 319 319 319 319 320 320 320 320 320 320 319 319 319 318 318 318 319 324 327 341 344 345 340 335 327 333 329 325 326 327 328 332 336 335 333 333 334 335 334 333 332 331 330 328 327 326 325
316 316 317 318 318 319 319 319 319 319 319 318 319 319 318 318 318 318 318 322 322 326 341 343 341 340 330 331 333 333 336 335 333 337 336 335 336 335 335 334 334 333 333 332 329 328 328 325 325
315 315 315 315 317 316 317 317 317 317 317 318 318 318 319 319 318 318 318 318 319 321 326 341 338 341 338 331 330 330 336 340 337 335 334 336 336 335 335 334 334 333 333 331 328 327 327 326 325
314 314 314 315 314 315 315 316 317 317 317 317 317 319 319 319 319 319 319 319 318 319 322 336 338 337 339 333 331 330 327 330 334 335 333 332 333 334 333 333 333 332 332 331 328 326 327 327 326
315 315 315 316 316 316 316 317 317 316 317 318 318 319 319 319 319 320 320 320 319 318 320 324 337 337 340 337 337 335 330 326 327 328 332 332 332 332 333 332 333 332 331 329 326 327 327 327 326
314 315 315 315 314 314 314 315 315 316 316 316 318 320 319 319 319 319 319 320 320 319 320 323 336 338 334 340 334 343 334 330 328 326 326 330 331 330 331 332 331 331 329 327 327 327 327 328 325
313 313 313 313 313 313 313 315 315 315 317 318 318 318 318 319 319 320 320 320 321 320 319 322 327 337 334 340 337 343 343 333 333 330 328 327 328 326 329 331 331 330 329 328 328 327 327 326 324
311 312 313 313 313 313 314 313 314 316 316 314 315 316 316 317 316 317 319 320 320 320 319 321 327 334 330 335 337 339 342 340 337 332 330 330 329 328 328 332 330 330 329 329 327 327 327 325 324
311 312 313 313 313 312 311 312 312 313 313 313 314 314 314 315 316 316 316 318 319 320 320 321 328 333 332 334 337 336 340 339 338 333 330 330 335 330 328 327 329 329 328 328 328 325 327 325 324
312 313 312 312 312 311 312 311 313 314 315 315 315 315 316 317 317 318 318 318 318 319 320 321 327 334 334 334 337 334 337 336 335 337 331 333 335 333 326 327 329 329 328 326 325 327 326 324 324
311 312 312 312 312 311 311 313 313 316 317 316 316 316 317 322 323 323 322 321 318 320 320 322 323 328 334 336 337 333 335 334 333 332 334 331 328 327 326 326 328 328 327 327 326 326 325 324 324
312 312 312 313 312 312 312 313 314 316 316 317 321 323 323 324 325 325 324 323 322 319 320 322 323 327 334 334 335 334 335 334 333 332 331 331 329 327 326 328 327 327 327 326 327 326 327 324 324
313 312 312 313 313 314 313 314 315 316 317 321 324 324 325 325 325 326 325 324 322 320 320 323 325 328 333 335 334 337 336 335 332 332 330 328 327 325 325 328 327 327 327 327 328 326 325 323 323
314 314 316 318 317 317 314 314 316 316 323 324 324 324 324 325 326 328 327 326 323 321 319 326 326 330 335 335 333 338 336 333 334 331 329 328 328 326 327 326 326 327 326 327 326 326 324 324 322
315 315 317 318 318 317 315 315 318 318 322 322 323 323 323 323 323 324 329 328 326 322 327 328 330 331 336 335 336 335 334 333 332 330 328 328 327 327 326 325 326 324 325 326 325 324 325 325 321
315 316 317 318 316 319 323 316 321 321 322 321 321 321 322 321 321 321 324 327 328 332 332 332 332 332 334 334 333 332 332 331 330 327 327 328 325 326 326 325 325 325 325 325 324 324 325 324 322
315 315 316 317 323 323 324 320 324 323 321 318 318 321 321 319 318 319 319 324 330 331 331 330 329 332 333 332 332 331 330 329 327 327 327 325 326 325 325 325 325 325 325 324 324 324 325 322 323
313 316 315 316 317 320 320 323 321 318 316 317 319 319 319 317 314 313 317 324 329 330 329 326 331 332 332 331 330 329 327 326 326 326 324 324 325 324 324 324 323 325 325 325 324 324 323 321 323
312 314 317 317 317 317 322 324 317 317 315 318 319 318 316 314 311 309 316 319 324 325 326 325 329 330 330 329 328 326 325 325 324 325 323 324 323 323 322 322 322 323 324 324 324 324 324 324 324

GFSSGP_850_thetae_099.txt.gz
Theta_e
309 311 316 319 314 311 313 314 316 317 318 322 324 323 322 325 334 339 338 338 332 325 326 321 321 322 321 320 320 324 329 333 335 337 339 339 338 336 334 332 331 332 334 334 336 336 333 332 331
309 312 319 320 312 311 313 315 317 318 321 324 324 323 322 325 336 338 336 335 326 324 323 322 322 321 320 320 320 322 327 331 334 336 338 338 338 337 335 333 331 331 333 335 336 333 332 332 328
309 317 319 314 311 313 312 315 317 319 323 324 323 323 323 325 334 336 335 331 323 325 322 323 321 321 320 319 319 321 325 329 333 336 337 338 338 338 337 334 331 332 335 335 334 331 331 330 327
310 317 319 314 312 312 314 315 316 317 321 322 322 321 323 328 333 337 334 323 323 323 323 322 321 321 320 320 320 320 323 328 331 333 335 336 337 337 337 335 333 333 335 334 332 330 331 328 327
315 317 315 313 313 314 314 316 317 319 320 322 322 320 322 334 332 336 336 330 324 322 323 322 321 321 320 320 320 320 322 326 329 330 332 334 336 337 337 336 334 333 335 332 331 330 330 328 326
314 316 313 316 316 315 315 318 318 319 320 321 321 321 325 333 334 337 337 336 329 323 323 322 321 321 320 320 320 320 321 323 327 329 331 335 336 337 337 337 335 334 334 332 331 330 329 327 328
315 312 314 313 315 316 317 320 319 320 319 320 322 319 321 328 331 336 337 336 337 331 329 324 322 322 321 320 320 321 321 322 326 328 331 335 337 337 338 337 335 334 334 333 332 331 329 327 330
318 315 317 317 317 317 318 320 321 320 318 320 320 318 320 334 332 335 337 336 337 336 337 334 324 322 321 320 320 321 321 322 325 328 330 335 338 338 338 337 335 334 333 334 332 331 331 327 327
320 319 320 319 318 319 320 320 321 321 320 319 319 319 323 326 332 335 338 337 337 337 335 335 329 322 322 320 320 321 321 321 323 328 330 333 337 338 338 337 335 334 333 334 333 331 330 326 327
312 315 319 317 317 318 319 318 318 318 318 318 319 319 325 326 326 326 332 339 338 338 335 335 333 323 322 321 320 321 321 321 322 324 329 331 332 336 336 337 335 334 333 333 332 331 328 326 325
314 314 314 315 319 319 318 318 319 317 317 318 319 319 319 322 323 323 328 334 341 341 341 339 336 332 323 322 321 321 321 321 321 323 327 330 331 334 334 335 335 334 333 333 332 331 327 326 327
312 314 314 314 316 317 318 318 317 318 318 318 319 319 318 319 320 319 321 326 329 341 339 337 336 335 328 324 323 322 322 322 321 322 325 329 330 331 332 333 334 334 333 332 332 331 328 326 326
310 311 314 315 316 316 317 316 317 317 318 317 317 317 317 318 318 318 318 318 326 331 341 341 338 337 332 328 327 327 323 323 323 322 324 326 330 331 331 332 333 334 333 332 332 330 327 327 327
312 312 312 313 314 314 314 315 315 316 316 315 316 316 317 317 318 318 318 318 318 320 324 337 341 339 339 329 326 329 325 325 326 326 323 324 329 332 333 333 333 334 333 333 332 331 329 327 328
314 312 313 312 312 312 314 312 312 315 315 315 315 316 316 317 318 318 318 318 318 318 320 323 333 339 341 339 331 328 329 329 330 327 327 327 329 333 334 333 333 332 333 333 332 330 328 327 327
311 311 312 313 313 314 312 313 313 315 316 315 315 316 316 317 317 318 318 319 318 318 318 318 325 335 341 341 338 332 334 333 332 330 330 328 330 332 333 333 333 332 332 331 331 330 327 327 327
310 311 312 312 312 312 311 313 313 314 315 315 315 315 316 316 317 318 319 319 319 319 319 319 321 330 341 340 339 337 332 336 337 333 332 330 329 329 331 332 332 331 332 330 330 329 327 326 327
310 311 311 312 312 312 312 311 311 312 313 313 314 315 315 317 318 318 318 319 319 319 320 319 319 323 338 338 339 338 337 330 336 339 336 333 331 331 330 331 332 332 331 331 330 328 326 327 327
307 308 308 308 310 311 311 308 310 311 312 311 313 314 314 314 318 317 316 318 319 319 319 320 319 324 339 340 338 338 337 335 338 334 335 330 335 332 331 330 334 332 331 330 329 327 327 327 327
307 306 306 308 310 311 309 308 307 308 308 310 311 312 312 312 313 315 315 315 316 319 320 321 320 323 335 335 333 335 337 334 337 336 336 332 332 335 337 333 331 330 329 329 329 328 327 327 327
310 308 307 308 310 309 309 309 308 310 310 311 312 312 312 312 313 314 314 315 316 316 320 320 321 323 335 336 336 337 337 335 335 334 333 335 333 335 336 333 330 329 329 328 328 328 327 327 326
306 309 309 308 310 310 310 310 309 309 311 311 312 314 313 314 315 317 323 323 322 319 318 320 321 327 332 333 332 331 330 333 333 334 333 333 334 333 331 330 329 327 326 327 327 328 326 326 326
308 308 311 309 310 310 310 308 309 311 312 313 315 313 313 314 324 327 326 325 324 323 321 320 320 329 332 333 330 328 330 333 330 332 332 332 332 330 332 331 328 326 326 326 328 325 325 325 325
307 309 312 312 311 311 311 310 310 312 313 314 321 324 325 324 326 328 328 327 326 325 322 321 323 326 329 330 326 325 330 333 333 332 331 331 330 330 329 329 326 325 325 327 328 327 325 326 326
309 309 313 314 315 314 312 312 312 313 314 319 323 322 321 321 321 323 327 328 328 326 325 321 323 326 329 326 327 328 333 332 333 333 332 331 329 328 326 328 326 325 327 325 324 326 326 326 325
309 310 314 315 316 315 313 314 313 313 315 320 321 320 319 318 319 320 323 326 329 330 325 321 323 324 326 324 329 334 334 334 333 333 333 331 329 326 327 326 326 324 325 326 326 325 326 325 326
312 313 310 315 317 319 319 319 320 319 321 318 319 317 316 314 313 317 322 326 331 332 331 328 329 329 328 331 332 334 335 333 333 331 331 329 327 326 327 326 325 326 327 327 326 326 325 326 325
313 313 315 316 319 320 323 323 320 317 316 318 318 314 312 310 311 313 316 321 325 328 329 331 331 332 331 331 333 332 333 333 331 330 329 328 326 327 326 326 327 325 325 326 325 326 326 325 325
313 313 314 316 317 322 323 323 311 314 319 318 314 311 308 306 306 305 311 314 318 324 324 325 328 329 331 331 332 332 332 331 330 328 327 326 326 324 325 325 325 324 325 325 325 325 324 324 325
313 313 315 314 317 317 319 318 312 314 316 313 312 310 306 304 303 302 305 309 315 320 324 323 326 330 332 332 331 330 330 328 326 326 325 325 324 324 323 323 324 323 324 325 325 325 323 324 325

GFSSGP_850_thetae_102.txt.gz
Theta_e
310 310 316 318 313 307 311 312 313 314 315 318 321 322 322 326 332 332 334 335 337 326 327 326 322 320 321 321 322 325 331 334 336 338 338 337 336 335 332 330 330 332 334 335 335 335 334 334 333
309 310 316 319 310 309 309 312 314 315 317 318 321 322 322 333 336 335 337 338 329 323 326 321 321 321 321 320 320 322 326 330 333 336 338 337 337 336 334 331 330 332 334 335 335 334 333 333 329
308 316 318 314 308 310 309 312 315 316 317 317 319 322 322 327 335 335 338 337 324 324 323 321 321 320 320 319 319 320 323 326 330 334 337 337 337 336 335 332 330 332 334 334 335 332 331 331 328
308 317 318 314 312 311 311 312 313 313 316 318 320 319 326 331 333 335 336 331 324 323 322 322 320 320 319 319 319 319 322 325 329 332 335 337 337 337 336 334 331 331 334 333 333 331 332 329 328
312 317 314 313 314 311 313 313 314 315 316 318 319 319 327 335 335 334 331 323 322 323 322 321 321 320 320 320 320 319 321 324 328 331 333 335 336 337 337 335 333 332 334 333 331 330 331 328 328
314 313 312 315 314 314 313 316 314 315 317 318 318 319 331 332 333 335 329 322 322 322 323 320 321 321 320 320 320 320 320 323 326 329 331 333 335 336 337 336 334 332 334 332 330 331 330 328 328
311 308 311 313 313 314 314 317 316 317 316 318 319 318 333 337 334 335 332 323 322 322 323 321 321 321 320 320 320 320 319 321 325 327 329 332 335 336 337 337 335 333 333 332 330 330 330 328 329
316 311 315 313 315 314 316 317 318 319 318 319 319 318 325 337 337 337 336 333 324 322 323 322 321 321 320 320 320 320 320 320 323 326 329 332 336 337 337 337 335 335 333 333 332 331 330 328 328
318 314 315 315 317 317 318 318 320 318 318 319 319 319 319 330 338 338 337 336 333 332 330 326 322 321 321 320 320 320 321 320 321 324 327 332 336 337 337 337 336 334 333 334 332 332 330 326 327
311 312 317 317 316 317 318 317 317 317 317 318 318 322 330 333 337 337 338 338 338 334 333 334 331 328 322 321 320 320 321 320 321 321 325 330 335 336 337 337 336 335 333 333 333 332 330 326 324
312 314 315 315 315 316 315 316 317 317 315 318 318 317 320 331 336 336 337 337 336 336 335 334 335 334 326 322 321 321 321 321 321 321 322 328 330 334 336 337 336 335 334 333 333 332 330 326 326
312 313 313 314 314 314 313 315 315 316 316 317 318 318 317 317 324 327 335 337 337 337 337 334 335 335 333 325 322 321 321 321 321 321 320 325 327 330 333 334 335 335 334 333 333 331 329 326 326
307 308 310 311 313 313 314 313 314 315 316 317 317 317 317 316 316 317 327 331 332 336 335 330 334 334 336 335 324 322 321 322 321 321 321 323 324 326 329 332 333 334 334 333 333 332 330 326 326
311 311 310 311 310 311 311 312 313 314 315 315 315 316 315 316 317 316 317 319 337 334 331 325 329 334 338 338 331 323 322 322 323 322 321 321 323 324 326 329 330 331 332 333 333 332 331 326 326
309 309 310 311 311 310 311 310 311 312 313 314 314 315 315 314 315 316 317 317 317 328 328 323 322 326 334 339 337 328 324 325 324 324 322 321 322 323 323 328 329 330 331 333 333 332 331 328 327
306 308 309 311 311 311 311 312 312 313 313 313 314 314 314 315 315 315 316 317 317 318 318 320 322 322 324 334 338 337 327 328 327 329 327 323 323 324 325 327 330 332 332 333 333 332 331 330 328
306 307 307 309 311 310 310 311 312 313 313 313 314 314 314 314 314 315 315 316 317 317 318 318 318 319 321 327 332 341 335 330 329 331 334 329 328 327 327 327 330 333 333 332 334 331 329 329 329
305 307 306 307 309 309 310 310 311 312 311 310 311 312 312 313 315 315 316 317 317 317 318 318 318 318 318 319 328 339 338 334 333 331 333 335 332 332 331 330 331 333 333 332 333 330 329 329 328
304 303 303 304 305 306 306 306 308 310 308 307 310 310 312 312 313 314 315 317 318 318 318 319 319 319 319 320 323 337 336 337 336 334 333 337 336 333 333 332 333 333 332 330 329 329 327 328 327
305 304 304 305 306 306 305 306 308 306 307 308 308 310 310 311 311 313 313 313 314 315 316 318 319 319 319 319 320 332 332 336 336 336 335 337 338 337 336 334 334 333 330 330 329 328 329 329 327
306 307 307 307 307 307 306 307 308 308 307 310 310 310 310 311 311 312 313 313 313 313 314 315 318 319 319 320 323 333 333 333 336 336 334 336 337 335 333 333 332 331 329 329 328 327 328 327 326
305 306 306 307 306 308 307 308 308 309 309 310 310 310 310 311 312 311 312 312 319 321 319 316 316 319 320 321 323 330 332 332 329 335 334 334 333 332 332 332 331 331 329 328 327 326 326 327 327
303 307 307 306 306 311 309 309 310 308 309 309 309 317 320 316 316 323 325 325 325 324 324 321 318 320 320 321 323 333 333 330 331 334 333 333 332 332 332 330 330 329 328 327 327 325 326 327 327
307 307 307 309 311 311 310 311 310 310 310 310 321 320 318 317 318 323 325 326 326 325 325 325 323 322 323 322 327 333 332 332 331 333 333 333 331 331 330 330 329 328 328 327 327 326 326 326 326
307 307 309 309 312 311 310 310 310 313 313 312 318 316 314 312 315 318 325 328 329 327 326 326 324 327 328 329 330 334 332 330 328 330 330 328 330 330 330 329 328 327 327 327 326 325 327 325 326
303 309 309 311 312 313 311 312 313 317 318 318 316 314 310 308 311 314 316 321 326 328 327 325 329 325 329 329 331 333 330 329 331 332 331 329 331 331 329 329 327 326 325 324 324 325 325 325 324
310 311 309 310 310 313 317 315 317 317 316 314 312 309 306 304 305 312 314 318 323 323 326 328 332 339 333 329 330 329 330 332 333 332 330 331 332 331 329 326 326 325 324 324 325 326 326 324 324
310 311 310 311 312 314 318 320 321 314 316 313 308 305 303 301 302 307 309 313 317 320 323 326 329 331 331 327 328 327 330 331 332 334 333 331 330 329 327 326 326 325 325 324 324 325 324 325 324
312 313 312 312 314 314 319 318 308 309 309 308 306 302 300 298 297 298 305 309 313 317 321 324 327 329 331 330 328 328 330 331 334 336 331 329 328 328 326 327 326 324 326 324 324 325 326 326 325
310 312 312 311 312 316 316 316 307 305 303 302 301 300 298 297 295 296 300 305 309 313 318 321 325 327 328 329 328 328 329 332 332 330 329 327 326 325 326 325 324 324 324 325 325 324 325 326 325

GFSSGP_850_thetae_105.txt.gz
Theta_e
311 310 313 317 312 307 308 310 310 312 314 316 317 317 318 321 329 327 337 332 328 328 333 335 333 330 327 326 325 325 327 331 335 335 335 335 334 332 329 330 331 332 333 334 334 336 336 336 333
310 309 315 317 308 308 307 309 312 312 315 316 317 318 319 326 336 335 336 335 327 327 330 329 326 322 322 324 326 325 326 328 333 336 336 335 335 333 331 330 330 332 334 334 334 335 333 332 331
309 312 317 313 306 307 305 309 311 313 315 315 315 318 320 329 333 331 333 335 328 328 327 325 321 321 322 323 323 322 323 325 328 334 336 336 336 335 333 330 330 332 333 334 335 334 331 331 327
308 316 316 313 313 310 308 310 312 312 316 316 316 315 319 328 330 332 334 335 327 326 325 321 321 321 320 320 320 321 322 323 326 330 335 336 336 336 335 332 330 331 333 334 335 331 331 328 327
309 316 312 313 313 312 311 313 313 314 314 315 317 315 318 327 331 333 335 334 324 324 321 321 321 320 319 319 319 320 321 323 325 329 333 336 336 336 336 334 331 332 333 333 333 330 330 327 326
312 312 311 312 312 313 312 315 314 314 316 317 317 317 319 327 333 334 337 330 324 322 321 322 320 320 319 319 319 319 320 322 325 329 330 334 336 336 336 335 333 331 333 333 331 330 329 327 326
309 307 309 311 313 313 313 315 314 315 315 318 319 316 321 330 334 334 335 327 324 322 322 321 321 320 320 320 320 320 320 321 325 328 329 331 334 335 336 336 335 332 333 332 330 331 329 327 327
314 308 313 310 312 312 314 317 317 318 317 318 319 314 323 332 335 335 333 328 325 322 322 321 321 320 320 320 320 320 320 321 323 327 328 329 331 334 336 336 335 334 333 332 330 331 330 328 328
316 313 311 313 314 314 316 317 318 318 317 318 318 318 323 327 339 336 333 327 326 322 322 321 320 321 320 320 320 320 321 322 322 326 328 329 331 334 336 336 336 335 334 333 331 331 330 329 329
311 311 314 313 314 315 317 316 317 316 317 316 318 318 319 328 337 340 335 328 323 321 322 322 321 321 321 320 320 320 320 321 323 324 328 329 331 334 335 337 336 335 334 333 332 331 330 327 327
310 313 313 314 315 315 313 314 315 315 315 316 317 318 318 318 329 338 339 334 332 326 323 322 322 321 321 321 320 320 320 321 322 324 325 328 331 334 336 337 336 335 334 333 333 332 331 328 325
310 311 311 312 313 313 311 313 313 313 313 314 316 316 317 317 318 317 335 338 337 334 332 333 334 333 330 324 321 320 320 320 321 322 322 325 330 333 334 336 336 335 335 334 333 332 331 329 326
307 307 309 309 309 310 310 310 311 312 313 313 314 315 316 317 317 318 317 318 337 339 337 334 335 336 335 334 328 322 321 320 321 321 321 322 328 329 330 334 335 335 334 334 333 332 331 330 326
309 308 308 309 310 310 308 309 310 311 312 312 313 314 316 316 316 316 316 317 317 331 338 337 336 336 336 335 335 333 324 321 320 321 321 322 323 327 327 329 332 333 334 333 333 333 332 329 326
305 306 306 309 309 309 311 310 309 312 312 312 313 313 313 313 314 314 315 314 315 316 320 339 337 333 335 335 335 336 335 323 321 321 322 323 323 325 326 327 329 330 332 333 333 333 333 331 329
304 304 307 309 307 310 310 311 310 312 312 311 312 313 313 314 314 314 314 314 314 315 316 317 335 337 335 334 332 336 337 331 322 322 322 323 324 324 327 327 327 328 330 332 333 333 333 331 328
302 303 304 305 306 308 310 308 309 309 310 310 311 311 312 313 314 314 314 314 314 315 315 316 317 326 338 336 335 331 334 335 330 325 325 324 324 325 328 329 328 329 330 331 333 333 331 330 328
302 304 303 303 304 303 303 303 304 306 306 307 308 309 310 311 313 313 313 314 314 315 315 316 316 317 325 336 331 332 333 334 337 330 329 327 325 325 328 331 330 331 332 332 333 331 330 329 328
306 305 305 306 305 304 304 304 304 306 306 306 307 307 308 310 311 311 312 312 313 313 315 317 317 317 317 330 326 331 332 328 332 337 332 331 331 328 329 331 333 334 334 333 333 330 329 328 329
305 305 305 305 305 305 306 306 306 306 305 306 307 307 308 310 311 311 311 311 311 312 313 314 316 317 317 318 318 322 322 324 325 335 335 333 334 334 332 332 334 335 335 334 333 330 328 327 329
304 305 305 305 305 304 304 305 306 306 307 307 308 307 308 313 314 312 311 311 311 311 312 312 313 315 317 318 320 322 329 329 335 336 334 334 334 335 334 335 334 334 333 332 330 329 328 327 327
300 302 303 303 304 305 305 306 306 307 307 308 309 314 316 316 317 317 314 312 312 312 312 314 313 314 316 318 319 321 321 323 327 331 329 332 332 335 335 334 334 333 332 331 330 329 328 327 326
300 301 304 306 306 305 306 306 307 307 307 308 311 317 314 314 313 313 317 321 323 322 322 321 317 315 315 316 319 320 323 322 322 331 329 327 330 334 334 334 333 332 331 330 330 328 327 327 326
305 305 304 305 306 307 306 307 307 307 308 309 315 312 310 309 309 308 310 314 322 325 325 323 321 318 316 316 319 322 321 324 327 333 331 329 331 334 331 333 331 331 330 329 329 328 327 327 326
304 305 305 304 306 307 306 306 307 316 316 315 313 310 307 308 305 304 304 309 318 325 325 325 323 324 322 320 319 322 327 326 326 330 331 330 330 333 332 331 331 330 329 329 328 328 327 327 327
301 303 305 306 308 308 309 311 315 314 312 310 307 305 303 304 305 300 302 305 311 322 325 325 329 335 335 332 332 327 327 329 331 333 333 329 328 331 333 330 330 329 329 329 328 328 328 328 325
306 302 303 307 307 309 307 309 315 308 307 305 302 302 301 299 306 298 299 303 311 317 322 325 328 334 336 336 338 334 331 330 332 330 329 329 331 329 329 329 329 329 328 327 326 325 326 326 324
305 305 306 308 311 310 310 313 311 306 305 305 302 299 298 297 300 295 296 302 307 313 319 323 326 330 334 334 337 335 330 328 329 327 329 332 330 330 330 331 330 328 327 325 324 324 324 324 324
308 310 310 309 310 310 312 311 306 303 302 302 300 298 296 294 294 293 293 301 305 309 315 319 323 325 329 333 336 333 328 327 326 328 329 331 331 329 328 328 328 326 324 324 323 323 323 324 324
303 306 312 313 312 312 313 308 304 301 300 298 297 296 294 292 292 291 293 298 299 304 312 315 320 324 325 329 327 328 327 327 327 327 329 331 330 328 327 327 326 324 323 323 322 323 325 325 325

GFSSGP_850_thetae_108.txt.gz
Theta_e
311 311 312 316 310 306 307 308 308 311 312 314 315 315 314 317 321 326 333 335 332 327 333 336 336 337 336 333 330 329 328 329 330 330 332 334 333 333 334 336 337 337 334 333 332 336 338 336 333
312 310 315 315 305 305 305 308 310 309 313 314 315 316 316 318 327 334 333 336 327 327 332 333 334 335 333 330 329 330 330 330 331 332 333 335 334 332 330 331 332 332 333 333 333 335 335 333 332
310 310 315 310 304 305 305 305 309 312 313 314 314 316 316 319 329 332 333 328 325 326 329 331 332 330 329 327 327 330 331 330 330 332 334 335 335 333 330 330 330 331 333 333 333 334 332 331 329
308 315 313 310 310 308 306 308 310 311 315 315 315 313 318 319 319 332 329 328 325 327 329 330 328 326 326 325 326 328 329 328 329 331 333 334 335 335 333 330 330 331 333 333 333 333 331 330 326
309 314 308 312 312 310 308 310 312 313 314 315 316 315 316 319 321 326 334 332 324 326 328 327 324 322 324 324 324 326 327 327 327 330 332 334 335 336 335 331 330 331 332 332 333 331 329 328 325
311 311 309 309 310 311 311 313 314 313 315 316 316 315 318 319 329 336 335 335 328 325 327 324 322 323 323 322 322 324 326 327 328 329 332 334 335 336 336 334 331 331 332 333 332 329 330 326 325
306 306 307 309 312 313 312 314 314 314 315 317 317 315 318 319 325 334 337 336 330 326 325 322 322 322 321 320 320 322 324 326 328 328 331 333 334 336 336 335 333 331 332 332 330 329 329 326 325
311 306 310 309 311 311 313 315 316 317 317 316 318 314 316 318 323 328 338 337 329 326 323 322 322 321 320 320 320 321 323 326 328 328 330 333 334 335 335 335 335 332 332 332 329 330 329 327 325
315 310 309 311 312 312 315 315 317 317 317 318 318 318 319 317 318 336 338 335 329 326 322 322 321 321 320 321 321 322 322 324 326 328 328 332 333 333 335 335 335 334 332 332 330 330 329 327 325
310 311 311 311 311 314 315 314 316 315 315 316 317 317 316 317 317 330 337 333 330 326 323 322 321 321 320 320 321 322 323 322 323 325 326 328 332 332 334 335 336 335 334 332 331 330 330 328 326
309 309 310 313 315 315 313 313 314 313 312 315 315 314 314 315 316 317 336 337 332 328 326 326 322 321 321 320 320 321 322 322 322 323 324 326 329 333 334 335 336 335 334 333 332 331 330 329 327
310 309 311 311 311 311 310 312 311 311 312 312 312 312 312 313 315 316 317 330 338 330 327 325 325 323 321 321 321 321 321 321 321 321 323 324 328 332 335 335 336 336 335 334 333 332 331 330 328
306 307 307 307 308 309 309 307 308 309 312 312 312 312 312 313 314 316 317 317 319 334 334 329 326 323 323 322 322 321 320 320 321 321 321 323 325 328 333 335 336 336 335 335 333 333 332 331 329
306 305 305 306 307 308 307 308 309 311 312 312 312 312 312 312 313 314 315 315 316 317 318 326 338 332 326 325 326 326 322 321 320 321 321 320 321 324 331 334 335 335 335 334 334 333 332 331 330
304 303 303 305 308 308 309 307 307 310 309 308 308 309 310 311 312 312 313 313 314 314 314 315 325 336 338 336 334 334 331 326 322 320 321 321 320 321 326 331 334 334 335 334 334 333 333 332 330
303 303 304 306 304 306 308 306 306 308 307 306 306 306 306 307 309 310 311 312 313 314 314 314 315 317 327 337 336 335 334 332 329 324 321 321 321 321 323 329 330 333 334 334 334 333 333 332 331
301 301 303 303 303 303 303 304 306 306 305 305 306 306 307 308 308 309 310 312 313 313 313 313 314 315 316 320 335 335 334 334 335 334 325 321 322 322 322 327 330 331 332 333 333 333 333 332 331
301 301 302 304 304 303 302 303 305 305 306 305 305 305 306 307 309 309 310 311 311 311 312 313 314 314 315 316 323 334 335 333 331 335 330 323 322 323 323 325 330 330 332 332 333 333 333 331 330
303 304 305 305 305 304 304 303 305 305 305 304 305 306 306 307 309 308 309 310 310 310 311 312 313 314 314 315 316 323 334 334 330 328 334 328 326 324 324 325 328 331 331 331 331 332 331 330 329
303 303 303 303 303 303 303 303 303 304 304 305 306 306 306 307 307 307 309 311 311 311 311 311 311 312 313 314 315 317 318 334 326 324 333 333 331 328 326 325 326 330 331 332 332 332 331 329 328
303 303 303 303 302 301 301 302 302 303 305 306 307 307 307 309 310 313 314 313 312 311 311 310 311 311 312 314 315 322 327 334 334 330 328 334 334 332 329 329 328 328 330 332 333 332 330 329 327
298 300 301 300 300 300 303 302 302 303 304 305 306 307 314 313 313 313 314 315 315 315 314 312 311 311 312 312 315 323 328 327 327 324 321 328 335 334 332 332 332 331 331 332 332 331 330 329 327
299 300 299 300 303 303 302 301 301 303 303 307 312 311 308 306 307 309 311 312 314 318 320 318 314 313 313 313 314 317 325 322 320 319 325 324 334 334 332 332 334 332 332 333 332 331 329 328 327
302 303 303 302 302 303 301 300 302 304 312 311 310 308 306 303 303 305 307 313 314 316 319 322 319 316 316 316 314 316 321 320 322 325 325 326 332 333 330 331 333 332 332 332 331 330 329 329 328
301 301 302 301 306 303 301 302 305 309 307 305 304 303 301 299 299 300 302 308 310 312 315 321 326 324 318 315 318 323 324 326 321 325 327 327 332 330 327 328 333 333 330 332 330 329 329 329 327
300 301 303 304 305 305 303 305 313 307 304 303 301 299 298 296 295 296 300 299 303 307 313 318 324 330 333 328 327 333 330 329 331 329 329 329 331 331 327 327 329 332 329 330 329 329 329 328 328
302 302 301 302 302 304 305 306 309 304 303 302 300 299 296 294 293 293 296 297 301 304 308 316 320 326 331 337 334 333 334 335 333 332 332 332 331 332 329 329 332 332 329 329 329 328 328 328 327
302 304 304 306 305 308 307 309 306 302 302 300 299 297 294 292 292 291 294 296 299 299 310 312 318 323 327 331 333 333 333 335 331 332 332 332 331 327 330 329 331 331 329 328 329 328 327 327 326
304 305 304 304 307 308 306 306 304 301 299 298 297 295 293 292 290 290 292 292 296 300 307 313 316 321 324 328 329 333 332 335 332 333 330 329 328 329 329 327 328 329 328 327 326 325 324 323 322
301 303 304 304 312 311 309 306 301 298 297 295 294 293 292 290 289 289 290 290 294 296 300 305 311 315 320 323 328 331 333 335 332 330 329 329 328 329 328 329 328 328 327 325 324 322 323 323 323

GFSSGP_850_thetae_111.txt.gz
Theta_e
311 311 311 316 314 313 313 313 311 313 314 313 314 315 316 316 318 326 329 333 333 329 332 333 334 335 335 334 332 330 330 330 330 331 332 332 334 336 338 339 338 336 333 332 332 335 336 333 334
312 310 314 314 312 312 312 311 313 314 313 313 314 315 316 318 322 325 329 334 334 328 331 332 334 334 335 335 332 331 330 330 331 332 332 333 334 334 334 333 333 333 331 332 332 336 337 334 333
312 310 315 317 310 313 313 310 313 312 312 313 315 316 316 319 319 326 332 336 334 329 331 333 334 334 334 333 332 331 330 331 331 332 333 333 333 332 331 330 330 330 331 332 334 335 334 332 331
309 312 312 314 314 312 311 311 311 314 315 315 314 318 318 318 321 326 326 336 329 330 331 333 334 334 333 332 332 332 331 332 332 332 333 334 333 332 330 329 329 329 331 333 333 334 332 330 328
310 313 313 314 314 313 313 311 313 315 315 315 315 318 318 319 318 324 334 334 330 331 330 333 333 333 331 331 332 333 332 332 333 333 333 334 334 334 331 329 329 330 330 332 333 333 330 329 326
310 311 313 313 313 313 314 313 314 315 315 316 316 317 318 318 318 320 331 336 332 332 333 334 333 332 330 329 331 332 330 331 332 333 333 334 334 335 333 330 329 329 330 331 333 332 329 328 325
310 312 312 312 314 314 315 313 315 316 316 318 316 318 318 319 318 318 326 336 338 334 336 333 332 331 329 328 330 330 329 328 330 332 333 333 334 335 334 333 330 329 329 331 331 330 328 327 324
309 311 311 312 313 314 313 315 315 316 318 316 318 318 319 318 317 317 321 336 339 335 337 336 330 327 327 330 331 330 328 327 329 331 333 333 334 335 335 335 333 331 330 331 330 329 329 327 324
313 313 313 313 313 313 314 316 316 316 316 315 317 317 317 316 315 315 322 336 339 337 336 337 331 328 327 328 328 329 327 328 328 331 333 334 334 335 335 335 334 333 332 331 330 328 329 327 325
314 316 313 312 313 314 315 315 315 315 316 316 316 315 313 312 312 314 318 326 338 336 335 335 330 327 329 329 327 326 326 329 329 329 332 334 332 333 335 335 335 334 333 332 331 329 329 328 326
309 310 312 314 314 314 315 314 314 314 314 313 313 312 312 312 312 313 314 319 336 333 333 331 328 327 327 326 326 324 323 325 326 328 330 331 333 332 333 335 335 335 334 333 332 330 330 329 327
311 310 311 312 311 310 311 310 311 311 311 311 311 312 311 312 312 313 314 315 319 332 332 329 328 327 325 326 325 324 322 322 322 324 326 328 330 331 332 334 335 335 335 334 332 331 330 330 328
309 309 307 307 306 306 308 308 310 310 311 311 310 310 310 310 311 312 313 315 316 316 318 332 328 326 326 325 324 323 322 321 321 323 324 324 326 328 330 332 334 335 335 334 334 332 331 331 330
307 305 305 305 306 306 307 309 308 310 309 309 309 308 308 308 308 309 312 312 313 313 315 316 318 320 329 324 324 323 322 321 321 322 322 323 323 325 327 330 333 335 335 335 334 333 332 332 331
304 305 305 306 307 308 306 307 309 307 307 307 307 307 307 308 308 308 309 311 312 313 313 313 313 314 320 335 329 324 323 322 322 321 321 322 323 324 326 328 331 332 335 335 334 334 333 332 332
306 304 306 306 305 305 308 306 309 306 306 306 306 306 306 307 307 308 308 309 310 311 313 313 313 313 314 317 330 336 329 326 325 323 322 322 322 322 323 326 329 332 332 335 335 334 334 333 332
304 305 304 305 306 305 307 306 307 307 306 306 306 306 306 306 307 307 308 309 309 310 312 313 313 313 313 314 315 324 331 335 333 331 327 324 323 322 321 322 327 331 332 333 335 335 334 333 333
304 304 303 305 306 306 307 307 307 306 305 305 305 306 306 306 306 306 307 308 309 309 310 311 312 312 312 313 314 315 323 333 336 333 332 332 326 323 322 322 323 328 330 333 333 335 334 334 333
305 305 306 306 306 306 306 305 305 305 304 305 305 305 305 306 306 306 306 307 307 309 310 310 310 311 311 313 313 314 315 322 333 334 330 332 334 328 323 323 322 326 328 328 331 333 333 335 331
304 304 305 305 305 304 303 303 304 304 304 304 304 305 306 306 308 309 308 308 309 310 310 311 311 311 310 311 313 314 314 315 323 332 331 330 331 334 326 324 323 323 327 328 329 331 332 334 331
303 304 303 302 302 302 302 303 304 304 304 304 308 311 310 310 309 310 310 311 312 314 313 311 311 311 310 310 312 318 321 325 323 332 335 330 327 332 332 325 325 324 325 326 327 328 329 332 330
301 302 302 301 301 301 303 302 303 303 305 311 310 308 306 305 304 304 305 306 309 312 312 313 312 311 311 310 310 322 321 329 330 318 322 331 326 328 333 331 328 326 326 327 327 328 329 331 330
302 301 302 302 303 303 303 303 304 303 307 308 305 304 302 300 300 299 299 302 307 310 312 314 314 314 312 311 312 313 322 321 328 320 319 327 326 326 327 333 331 329 328 327 327 329 331 330 329
302 303 303 304 304 302 302 302 303 309 308 305 303 301 299 298 296 298 298 300 303 307 310 312 314 317 316 313 314 314 316 326 330 327 322 326 331 326 328 331 333 332 332 331 331 331 332 330 330
302 302 304 304 305 303 304 303 305 308 306 303 302 300 298 296 295 294 295 297 300 303 305 308 311 316 320 319 316 317 324 329 330 327 324 324 331 328 323 327 332 332 331 330 332 332 331 331 330
301 301 302 303 304 304 302 302 308 305 303 301 300 298 296 295 293 292 292 294 297 299 302 303 307 315 320 325 320 326 326 333 331 331 332 330 330 326 326 325 330 328 327 327 332 332 330 330 329
301 302 302 302 302 302 302 306 305 303 302 300 298 296 295 293 292 291 291 291 295 296 300 299 306 313 318 324 327 328 329 331 335 332 333 332 330 328 327 327 327 327 326 328 333 331 330 330 329
301 303 305 304 306 307 307 306 310 302 300 298 297 295 293 292 290 290 290 290 293 294 296 299 304 310 317 323 327 330 330 331 332 333 333 333 332 331 330 332 330 327 326 331 333 329 329 328 328
302 303 303 304 304 309 310 309 302 299 297 296 295 293 292 291 289 288 289 289 290 293 294 297 304 311 317 321 327 331 331 331 332 333 333 333 333 332 332 332 330 329 329 334 332 329 327 328 329
301 302 304 305 307 308 309 308 298 297 295 293 293 292 291 290 288 288 288 288 289 291 292 294 309 312 314 317 324 329 331 330 331 331 333 334 333 333 332 330 329 327 329 331 329 328 327 326 325

GFSSGP_850_thetae_114.txt.gz
Theta_e
311 310 311 316 319 318 320 319 318 318 318 318 317 317 319 320 321 326 325 336 335 338 333 334 334 336 336 334 332 331 335 339 341 342 342 342 340 339 339 339 337 335 332 331 331 333 335 334 332
312 311 315 317 319 321 322 320 318 318 317 315 317 317 320 322 322 325 332 339 334 344 333 334 334 336 336 334 333 331 333 335 336 340 340 339 338 338 339 339 337 335 332 331 332 335 335 333 333
313 314 318 320 321 322 322 320 318 316 316 316 318 318 320 322 325 327 331 337 338 345 339 333 333 336 335 334 333 331 330 331 332 333 334 335 335 337 337 337 336 334 331 332 331 336 336 333 333
314 315 315 320 322 321 320 319 316 317 317 317 318 320 320 324 325 328 334 340 339 344 345 334 333 335 335 335 333 331 331 331 332 333 333 334 334 335 335 334 334 332 331 332 333 335 334 332 331
314 316 320 320 321 321 320 318 317 318 318 318 318 320 321 322 325 328 331 337 344 345 346 337 337 335 335 335 333 332 332 332 332 332 333 334 334 334 332 331 331 331 332 332 332 333 332 330 328
315 317 320 322 321 320 320 318 317 318 318 318 319 320 321 320 322 328 330 336 341 345 345 338 338 337 336 335 333 332 333 333 333 333 333 334 334 333 331 330 330 331 332 332 332 332 330 329 326
316 319 320 321 320 319 320 318 318 319 319 320 319 320 321 321 319 329 328 331 336 338 337 339 339 339 337 336 333 333 333 333 333 333 333 333 334 333 332 331 330 331 332 332 332 332 329 328 326
314 317 318 318 319 320 319 317 317 318 319 318 319 321 322 320 317 322 326 322 333 339 338 339 339 339 338 337 334 334 334 334 333 333 334 333 334 334 334 332 331 331 331 332 332 331 328 328 325
313 315 317 318 317 318 317 318 317 318 318 318 318 318 318 317 316 317 319 332 339 338 339 339 340 339 339 339 334 335 335 334 333 333 334 334 334 334 334 334 333 332 331 332 332 331 329 328 326
313 315 316 316 316 316 316 316 317 317 317 318 317 317 316 315 315 316 317 320 332 342 339 339 340 339 337 339 338 335 335 334 334 333 333 334 339 340 340 337 334 333 333 332 332 331 330 328 329
312 314 314 315 314 314 315 316 315 315 316 315 315 313 314 314 314 315 316 317 323 337 342 337 338 338 336 337 336 338 339 338 335 333 336 336 339 339 338 339 335 335 334 333 333 331 330 331 336
312 312 312 312 313 313 313 312 312 312 313 313 313 313 313 313 313 314 314 315 316 329 340 338 333 335 333 331 331 331 333 330 328 328 335 339 335 338 340 340 340 337 337 337 335 334 334 336 337
311 311 310 311 311 310 310 311 312 312 312 312 311 312 311 311 311 312 312 313 314 318 328 339 338 331 329 328 327 327 326 336 328 327 327 330 330 332 334 339 340 340 339 339 338 337 336 335 336
310 311 310 309 309 309 310 310 311 311 311 311 310 310 310 310 311 311 312 313 313 313 314 315 334 337 334 328 326 324 324 328 323 323 324 326 328 330 329 336 339 339 339 339 339 337 336 334 336
307 308 309 309 309 310 309 311 311 311 310 310 310 310 309 309 309 309 310 311 312 313 313 312 313 325 324 327 328 326 323 323 324 322 323 325 327 331 327 328 336 339 339 338 337 339 337 335 335
310 309 309 310 309 309 309 310 311 310 310 310 309 309 309 309 309 309 309 309 310 311 312 312 311 313 318 314 320 332 328 324 323 322 323 323 323 326 329 327 328 336 338 338 336 336 336 334 335
310 308 308 308 309 309 309 309 309 309 309 309 309 308 308 309 308 308 308 308 309 310 310 311 310 311 312 321 323 321 329 334 333 325 323 323 322 322 326 331 328 330 333 333 337 335 335 335 335
309 308 308 308 308 309 309 309 310 309 308 308 308 308 308 308 308 308 308 309 312 313 312 308 309 310 310 317 331 333 333 336 338 337 334 331 328 325 325 335 332 327 331 333 334 336 336 335 335
308 308 308 308 309 308 309 309 309 308 307 307 307 307 307 310 312 313 314 314 314 314 313 310 309 311 310 315 322 329 333 333 334 337 336 335 332 330 328 330 325 322 323 329 333 335 336 335 334
308 308 308 308 308 307 307 307 307 308 308 307 307 310 313 312 310 310 310 310 311 311 312 313 313 313 314 316 315 325 329 332 328 332 333 337 336 332 331 331 330 324 323 330 331 332 335 335 334
308 308 308 307 306 306 306 307 309 307 307 308 312 310 309 308 307 306 307 307 307 308 309 310 311 312 312 314 318 316 327 330 332 332 335 335 334 332 328 329 332 328 324 324 332 332 333 335 334
307 307 305 304 305 306 306 306 308 309 308 310 310 309 307 306 304 303 303 303 304 304 305 307 310 312 312 313 316 318 320 328 330 332 330 317 324 333 329 328 330 333 326 324 325 330 331 332 332
305 304 305 305 305 306 307 306 309 308 307 310 308 306 305 304 302 301 300 300 301 302 302 305 309 313 313 311 314 319 318 325 329 331 332 326 316 327 335 328 331 332 331 325 325 331 331 330 331
304 304 305 306 306 306 307 307 308 310 309 307 305 303 302 301 300 300 299 298 299 299 300 307 308 311 314 313 313 315 322 322 327 329 332 332 324 317 323 334 334 332 332 329 327 328 330 330 330
304 305 306 307 309 308 306 306 306 310 307 305 303 301 301 299 298 297 296 296 296 296 299 304 307 309 311 314 314 316 317 324 328 329 332 333 333 332 325 331 333 332 332 332 330 329 330 329 330
305 305 305 303 305 306 306 306 309 308 305 304 302 300 299 297 296 295 294 294 293 293 294 298 302 305 309 312 314 317 319 324 327 331 331 333 334 335 334 328 331 331 331 332 331 331 330 330 331
303 303 304 304 304 305 305 306 308 306 305 302 300 298 297 295 294 293 292 292 292 291 292 296 299 304 306 308 311 319 321 326 329 332 332 333 334 333 336 336 334 331 329 330 329 328 330 330 329
302 304 305 305 307 307 308 307 313 304 302 300 298 296 294 293 292 291 290 289 290 290 292 296 298 300 301 305 310 320 323 327 333 332 331 333 333 334 333 332 331 332 327 329 329 329 328 331 331
303 304 304 306 307 309 311 313 303 300 298 297 297 295 293 292 291 289 288 288 288 290 290 292 297 296 300 304 310 319 326 328 333 329 330 332 334 333 335 332 332 333 334 332 329 328 328 330 330
303 304 305 307 309 308 310 310 299 297 295 295 294 294 293 292 290 288 287 287 287 289 289 292 293 294 298 303 311 322 330 331 330 330 330 331 332 334 335 335 331 333 336 334 330 328 331 332 330

GFSSGP_850_thetae_120.txt.gz
Theta_e
317 316 318 319 321 322 323 324 326 323 322 321 320 320 320 321 323 329 332 336 343 343 346 345 339 335 336 334 333 330 330 332 337 342 341 341 340 337 336 335 333 330 330 331 332 333 333 332 333
318 320 319 320 323 324 325 326 324 322 321 320 319 320 321 323 326 329 331 336 344 346 350 348 342 337 337 334 333 330 329 333 339 342 341 341 341 338 336 336 335 333 331 331 331 332 333 334 332
318 319 320 323 324 325 325 326 323 321 320 320 320 321 321 327 327 329 330 338 345 347 352 350 344 339 338 335 333 331 328 330 335 340 341 341 340 338 336 337 336 334 332 331 332 334 335 333 331
318 319 320 323 325 326 326 326 323 323 321 320 321 321 322 326 327 329 332 339 347 348 350 350 342 340 339 336 333 331 329 331 336 339 339 340 339 337 337 337 337 335 333 331 332 335 334 333 333
319 320 322 324 324 325 325 326 325 323 323 322 322 322 323 325 324 328 332 338 346 348 349 349 343 341 338 336 333 332 329 331 333 335 337 338 337 337 337 337 337 335 333 331 332 335 336 334 332
319 320 323 324 325 326 326 325 324 324 323 323 323 322 323 325 323 322 325 333 344 349 350 349 347 341 338 336 334 333 331 331 333 334 335 335 335 336 337 337 336 335 332 331 332 335 335 333 331
318 321 322 323 324 325 325 324 323 323 322 323 323 323 323 324 322 321 321 323 340 342 349 351 349 346 338 337 334 333 331 331 331 332 333 333 334 336 336 337 335 333 331 331 333 333 334 332 330
317 319 320 322 323 323 324 323 321 321 321 322 322 322 323 323 321 319 320 321 331 336 349 350 347 343 338 337 335 334 333 331 331 332 332 333 335 336 336 336 335 332 331 331 332 333 333 331 329
318 319 319 321 322 322 321 321 320 320 320 320 321 321 321 321 320 318 319 320 323 335 338 347 348 343 339 338 336 336 334 333 332 332 333 333 335 336 336 335 333 332 331 331 333 333 333 331 329
317 319 320 321 321 320 319 319 318 317 318 319 319 320 320 319 318 317 318 319 321 322 336 340 345 346 344 339 337 337 335 334 333 333 333 333 335 335 335 334 333 332 332 332 333 333 333 331 329
316 317 318 318 318 317 317 317 317 317 318 318 317 316 316 316 317 317 317 318 319 320 331 342 342 345 345 345 344 339 337 334 334 333 332 332 334 337 337 337 336 334 333 333 333 333 333 330 329
315 316 316 316 315 315 315 315 315 315 315 314 315 315 315 315 315 315 316 316 317 318 321 338 345 341 344 345 346 345 340 336 335 335 332 330 331 336 340 339 338 336 335 334 333 333 332 331 330
315 315 314 314 314 313 313 313 313 312 312 312 313 313 314 314 314 315 315 315 316 317 319 325 337 342 343 344 342 343 343 340 338 335 335 335 333 333 340 338 339 338 338 337 336 336 334 331 334
313 313 314 313 313 312 313 312 311 311 311 311 313 313 313 313 313 312 312 313 314 316 317 318 319 330 339 341 340 341 342 343 343 340 338 336 338 337 338 337 341 338 337 336 336 337 337 335 335
312 312 313 312 312 313 313 312 312 313 313 313 313 313 313 313 312 312 312 312 312 313 314 315 317 317 321 335 338 339 341 339 341 341 343 342 338 339 341 337 341 340 340 336 338 337 338 336 336
312 312 313 314 316 313 312 311 314 314 313 313 313 313 312 312 312 311 312 313 313 313 313 314 315 316 317 320 328 335 338 339 337 341 341 339 340 338 342 340 340 338 341 341 339 335 339 337 336
314 314 315 316 315 314 313 312 313 313 312 312 313 312 311 312 312 315 316 316 316 317 317 317 318 319 319 316 318 327 334 335 336 337 341 340 337 336 340 337 336 336 340 337 340 337 337 337 336
315 316 316 316 316 314 314 313 313 313 313 313 312 312 312 311 314 315 313 313 313 313 314 315 315 316 318 320 318 318 327 335 334 334 337 342 340 336 335 340 338 334 339 339 340 339 336 336 337
315 314 314 315 315 313 314 313 313 313 313 313 312 312 312 312 314 313 311 310 310 310 310 311 312 313 314 316 318 321 319 326 337 337 337 339 340 338 333 332 338 333 332 337 340 339 337 335 336
313 313 314 313 312 313 313 312 312 313 312 312 312 313 314 313 312 311 310 309 308 308 307 307 309 309 310 312 314 317 320 320 327 335 335 336 339 339 337 335 334 328 328 330 339 340 336 335 335
312 312 313 311 311 311 311 311 311 313 313 313 313 313 313 311 310 308 307 306 305 305 304 305 306 307 307 308 310 312 315 319 319 325 332 335 334 340 338 338 337 335 328 327 328 335 335 335 335
311 311 311 310 310 309 310 310 310 311 312 313 313 312 310 309 307 306 305 303 302 302 302 302 302 303 304 305 307 309 312 314 317 320 322 335 336 335 340 339 339 339 338 337 335 331 329 334 336
310 310 310 309 309 309 309 309 311 312 312 313 311 309 307 306 305 304 302 301 299 298 298 298 298 298 300 302 304 305 307 310 314 317 319 323 330 334 334 333 337 340 339 340 337 336 332 330 333
309 308 308 308 309 310 309 310 311 313 313 310 308 306 305 303 302 301 299 297 296 295 294 294 294 295 296 298 300 301 303 306 310 312 316 320 322 329 333 330 334 333 338 336 340 337 334 331 331
308 308 309 310 312 312 311 312 314 311 309 307 306 304 302 301 299 297 296 294 293 292 292 292 292 292 292 293 296 298 300 302 305 311 313 312 317 323 332 331 331 332 337 339 337 336 332 333 332
308 308 309 308 311 311 309 309 311 310 307 305 303 302 300 298 296 295 294 292 291 290 290 290 290 290 290 292 293 296 301 303 305 309 313 313 312 312 324 330 329 330 332 333 337 335 336 335 336
307 307 307 308 307 308 307 308 311 308 305 303 302 300 299 297 295 293 292 291 289 289 289 289 289 289 291 293 294 297 299 301 304 307 310 314 314 312 314 326 330 329 331 334 336 336 336 338 334
306 306 307 307 306 307 308 309 310 305 302 302 301 299 298 296 294 293 291 290 289 289 289 288 289 289 290 293 294 296 298 301 303 306 309 314 316 313 315 325 327 328 330 330 333 334 332 334 336
306 307 305 305 305 307 310 312 304 301 300 300 299 298 296 294 293 292 290 289 289 289 289 289 289 289 291 293 294 296 298 301 304 307 309 315 318 317 316 324 325 320 324 329 330 332 332 332 334
305 305 306 308 306 306 308 311 301 299 299 298 297 296 295 293 292 290 290 289 289 289 289 289 289 290 290 291 294 296 298 300 304 307 312 318 317 319 327 326 325 316 328 331 330 329 331 331 331

GFSSGP_850_thetae_126.txt.gz
Theta_e
315 316 318 319 314 311 315 316 316 316 317 318 318 321 323 324 329 332 342 340 335 332 335 342 339 336 334 332 332 332 330 329 335 340 340 340 337 334 333 332 329 328 328 329 330 330 331 333 332
316 319 320 318 313 315 316 316 316 316 318 319 319 319 324 328 330 331 332 332 332 335 339 341 343 338 336 334 332 331 329 330 335 339 340 340 338 335 334 334 332 329 329 329 331 332 332 332 332
317 319 318 312 312 315 317 317 318 317 319 320 320 321 325 328 331 333 334 327 326 334 344 348 346 341 338 336 333 331 329 330 334 338 340 340 338 336 334 334 333 331 329 330 330 331 332 333 332
318 318 317 314 316 316 319 318 319 317 319 320 320 321 326 328 330 329 325 327 330 337 350 349 348 346 341 338 334 331 329 330 334 338 340 339 338 336 334 334 333 332 330 330 330 333 334 331 331
319 317 313 315 316 316 317 319 320 320 321 321 321 322 322 324 323 322 322 321 323 328 347 349 348 345 343 340 335 331 330 329 332 336 339 339 338 335 333 333 333 332 331 330 331 334 333 332 332
317 315 314 315 316 316 317 319 320 320 321 322 321 322 321 322 322 322 323 322 321 322 330 344 346 346 343 341 336 332 330 329 330 332 336 337 336 333 332 332 332 331 331 330 330 333 334 333 331
313 309 313 315 315 315 318 318 316 317 319 321 321 321 322 321 320 320 321 322 321 323 323 331 332 344 345 341 338 333 331 329 330 330 332 334 334 332 332 332 332 331 330 330 330 331 334 332 330
315 309 313 313 314 314 315 317 317 316 318 319 320 319 320 318 318 318 319 320 322 322 323 322 324 333 342 346 341 335 332 330 331 332 332 333 333 331 331 332 331 330 330 329 329 331 333 332 329
313 311 311 314 315 315 315 313 315 316 316 317 317 316 316 317 316 317 318 318 318 318 319 326 330 338 339 342 343 337 333 332 332 332 332 334 334 332 332 332 332 331 330 329 329 330 332 332 329
311 310 313 313 314 313 313 312 313 314 314 315 315 315 313 315 315 316 316 316 316 317 318 327 335 338 340 340 342 339 335 333 331 332 332 331 334 333 332 332 332 332 331 330 329 330 331 331 330
310 309 311 314 315 314 312 312 313 312 312 313 312 312 312 313 314 315 315 314 315 315 316 320 328 335 340 341 341 340 336 334 332 331 330 330 331 334 333 333 332 333 333 331 330 329 330 330 330
310 311 311 312 312 311 310 312 311 312 312 312 312 312 311 312 313 314 314 314 314 315 316 329 329 331 336 337 340 342 338 336 334 332 331 331 331 331 333 332 331 332 332 332 331 330 329 330 330
308 310 311 311 311 311 311 310 310 311 312 312 312 311 311 313 314 313 312 312 313 314 321 327 327 328 336 338 339 341 341 340 339 335 333 332 332 331 332 333 333 332 332 332 332 331 330 330 330
310 309 309 310 310 310 310 309 309 311 312 311 311 311 311 313 313 312 312 313 313 315 318 328 322 323 327 328 331 335 339 340 338 338 337 335 333 332 332 331 333 333 333 331 331 332 331 331 331
309 308 308 309 310 309 311 309 309 312 311 311 312 311 312 312 313 314 314 314 314 314 315 318 319 322 326 328 328 329 335 336 337 339 338 340 336 334 333 332 331 331 333 333 334 333 333 332 332
308 308 309 310 310 312 310 310 308 312 311 312 313 312 312 312 312 312 312 313 313 313 313 313 314 316 317 318 319 319 324 326 331 333 336 337 337 335 334 333 333 332 336 335 337 337 334 334 333
307 307 310 311 312 311 309 309 309 311 311 311 312 312 311 309 309 308 309 309 310 311 311 311 312 312 313 315 315 315 316 317 319 319 327 335 334 327 334 334 334 334 338 338 337 336 335 333 334
307 308 309 309 310 310 310 309 307 310 310 309 309 308 309 306 305 306 307 308 308 308 308 308 309 309 309 310 311 311 310 311 314 316 318 326 333 334 330 334 332 336 335 337 336 339 337 335 334
306 307 307 308 309 309 308 307 308 309 309 308 308 307 305 303 302 304 305 305 306 307 306 306 306 307 307 307 307 308 308 308 307 307 311 318 324 332 334 334 331 328 333 334 336 337 338 339 337
308 308 309 308 309 309 308 306 306 307 307 306 304 303 302 302 303 302 303 303 304 303 304 305 305 306 306 306 307 307 308 308 308 307 306 309 318 322 329 332 334 322 327 329 334 334 334 335 334
309 309 308 308 307 307 306 306 307 307 307 304 302 301 300 299 299 300 300 300 300 301 302 302 303 304 305 305 305 306 306 307 307 307 307 307 309 318 320 328 332 333 326 323 331 332 332 330 331
308 308 308 307 305 305 305 304 304 306 306 303 301 299 298 299 298 298 297 297 296 297 298 299 301 301 302 302 303 303 304 305 307 306 307 308 308 309 316 320 325 332 333 332 332 329 327 331 331
308 307 306 306 304 304 304 303 304 307 306 303 300 298 297 297 296 295 295 295 295 295 294 295 296 297 299 300 301 301 301 303 304 305 305 307 308 308 308 316 320 325 331 332 326 324 324 331 332
307 306 304 304 303 305 305 303 303 307 305 303 300 298 296 295 294 293 293 293 293 293 294 296 296 298 298 298 298 298 298 299 300 303 304 305 306 308 308 308 313 320 325 330 332 331 330 329 332
305 303 304 305 306 306 305 305 308 304 303 301 299 297 295 294 292 292 291 291 291 291 292 292 292 294 294 295 296 295 295 295 297 298 300 302 304 306 307 308 308 312 321 326 328 331 330 328 328
305 304 305 309 309 305 305 305 307 303 301 300 298 296 295 293 292 291 290 290 290 290 290 289 289 291 291 291 292 292 292 293 295 297 297 299 301 304 306 309 310 309 310 317 321 327 331 331 330
306 304 305 305 304 304 304 306 305 302 301 300 299 295 294 293 292 291 290 289 289 289 289 288 289 289 289 289 290 291 291 292 294 296 297 298 300 302 306 309 311 311 310 309 313 318 327 330 329
304 304 304 304 307 306 304 305 305 303 302 300 298 294 293 292 291 290 289 289 289 288 288 288 289 289 288 289 289 289 291 292 293 294 296 297 299 302 304 308 311 312 312 312 311 312 319 328 328
304 302 303 303 304 305 303 298 296 298 299 297 296 295 292 291 290 289 289 289 289 288 288 288 289 289 288 288 288 288 289 291 292 293 295 297 299 302 305 311 313 314 315 315 313 312 314 319 326
304 303 304 303 305 303 303 302 301 298 298 296 295 294 292 290 289 288 289 289 289 289 289 288 290 289 288 288 288 288 288 290 291 292 294 296 300 302 306 311 313 312 313 315 315 314 317 319 321

GFSSGP_850_thetae_129.txt.gz
Theta_e
314 316 318 319 314 310 315 316 314 313 316 317 321 323 324 324 328 326 343 341 336 335 337 340 338 336 335 335 336 335 333 330 333 338 339 339 336 331 331 329 328 328 330 327 327 330 331 331 332
316 318 319 317 312 314 315 314 316 314 316 317 321 322 326 327 332 334 335 336 338 338 338 340 341 338 337 336 336 335 331 330 334 337 339 339 337 332 332 331 329 328 329 330 330 331 332 332 331
317 318 318 310 309 314 315 317 316 319 320 318 318 324 326 329 331 331 329 325 327 335 341 345 344 342 338 337 336 334 331 331 334 337 339 339 338 333 332 331 331 329 329 329 331 332 331 332 332
318 318 315 313 317 316 317 317 316 317 319 319 321 322 328 328 330 326 323 324 328 331 341 345 347 346 344 339 336 334 331 332 333 337 338 339 339 333 333 331 332 331 329 329 329 330 332 332 332
318 317 311 313 315 315 315 316 317 318 320 320 321 321 323 324 322 321 321 321 322 329 338 344 347 347 344 342 339 334 331 331 333 336 338 338 339 335 332 331 331 331 329 328 329 332 333 330 332
316 314 313 315 315 314 314 315 316 316 319 320 322 321 321 320 322 321 321 321 321 322 325 329 337 344 343 342 340 336 331 331 333 335 338 338 338 336 333 331 330 331 330 328 329 332 332 331 331
312 309 313 314 314 315 314 316 315 314 316 316 320 320 321 319 319 320 320 321 323 323 322 323 327 333 345 342 340 337 333 331 331 333 336 338 338 336 333 332 331 331 330 329 329 331 333 332 329
314 308 313 312 313 315 314 315 314 315 315 317 317 316 319 318 318 318 319 319 320 319 321 324 326 333 342 347 343 340 335 332 330 331 334 337 337 336 335 333 332 331 330 329 328 329 333 332 329
313 309 310 314 314 315 313 313 314 314 314 315 314 313 314 316 316 316 316 317 316 317 318 325 333 338 340 341 342 344 338 333 332 334 336 336 336 335 336 334 333 333 331 330 329 329 332 333 329
310 308 311 312 314 313 312 312 313 313 312 314 313 313 312 314 315 315 315 315 315 316 320 328 333 336 340 341 341 340 341 335 334 334 335 336 337 337 335 335 334 334 332 331 329 329 331 332 330
309 308 309 311 312 312 312 310 311 311 312 312 312 312 311 311 312 314 314 314 314 315 315 327 336 336 331 339 344 342 341 337 335 335 336 337 337 338 337 335 335 335 335 333 330 329 331 331 331
307 309 309 310 311 310 309 311 310 310 312 312 312 312 311 311 312 313 313 313 314 315 317 332 324 324 325 333 340 342 340 338 336 334 334 334 335 336 336 336 334 335 335 334 331 329 329 331 331
307 308 309 310 310 310 310 309 309 310 312 312 311 311 310 310 312 313 314 314 315 315 326 330 329 325 328 335 337 336 335 338 340 339 336 334 333 332 333 334 335 334 335 336 333 331 329 330 332
309 308 308 309 310 309 309 309 310 313 312 312 312 310 310 312 313 313 313 313 314 316 319 325 325 324 325 325 328 330 332 335 337 339 338 338 336 335 333 332 333 334 334 335 335 333 331 330 330
309 307 306 308 309 308 309 309 309 311 311 311 310 311 311 311 311 311 311 311 311 312 312 315 317 318 320 324 326 325 325 327 331 335 335 336 337 338 335 334 334 333 335 336 336 335 333 332 331
307 306 307 309 310 310 309 309 308 310 310 310 310 309 308 307 308 308 308 309 309 309 310 310 310 312 315 316 317 319 318 319 319 319 321 327 332 332 335 337 335 333 332 333 335 335 334 334 333
304 306 308 309 310 310 310 309 309 309 309 306 309 308 306 306 306 306 306 306 307 307 308 308 308 308 309 310 311 311 311 313 314 314 314 315 317 321 326 331 335 333 333 333 331 331 333 336 335
307 307 307 307 308 308 309 309 306 308 308 307 305 304 303 303 302 303 304 305 305 305 305 305 306 306 306 306 307 307 307 308 308 307 307 307 307 312 319 328 329 327 322 334 332 331 332 333 335
305 305 304 304 306 307 308 307 307 307 305 303 303 302 300 300 300 302 302 303 303 304 304 304 304 305 305 306 306 307 307 307 307 307 307 307 307 306 308 320 324 325 327 327 329 333 334 334 333
306 306 306 306 306 307 307 306 304 304 303 302 300 300 300 300 300 300 301 302 302 302 303 303 304 304 304 304 305 305 306 307 307 307 307 307 307 307 307 309 318 324 329 327 326 332 334 334 333
307 307 307 307 306 305 305 304 305 304 302 301 299 299 299 298 299 299 299 299 299 300 301 302 302 303 304 304 304 304 305 305 306 306 307 307 306 306 307 307 310 319 327 328 323 325 326 333 333
308 307 307 306 304 304 304 303 304 305 302 300 298 298 297 297 297 297 297 297 296 296 297 298 299 300 301 301 302 302 302 304 304 304 305 305 305 306 306 307 307 312 321 325 326 324 324 326 328
306 306 306 305 304 303 303 302 304 304 304 301 298 296 296 295 295 295 295 295 295 295 296 296 296 296 296 297 297 297 298 299 300 301 302 304 303 304 305 306 306 307 312 320 327 325 324 324 325
306 305 304 302 302 304 304 302 302 305 304 301 298 296 295 295 294 294 294 294 294 293 293 293 293 295 294 295 296 296 295 295 296 298 299 301 302 303 304 305 305 306 307 312 323 326 326 324 328
304 303 304 305 305 305 304 304 303 302 301 300 298 296 294 294 293 292 292 293 292 293 292 292 292 293 292 292 292 292 291 292 292 294 295 298 299 299 301 304 304 305 306 308 314 325 325 326 330
303 303 305 307 308 306 304 305 305 302 300 299 297 295 294 292 291 292 292 292 292 292 291 291 290 291 290 290 290 289 289 290 291 292 293 295 298 298 300 301 302 305 306 308 308 313 322 324 326
305 304 304 305 304 304 303 305 303 301 300 299 297 295 293 291 291 292 292 292 291 290 289 288 289 289 289 288 288 287 288 289 290 292 293 294 295 297 298 300 301 303 306 309 309 308 312 317 323
304 303 304 305 307 308 304 303 304 302 302 300 296 294 293 292 291 291 291 290 290 290 290 290 290 289 288 288 288 287 288 288 290 291 293 293 295 297 299 300 304 307 307 309 310 311 310 311 313
303 302 303 304 304 305 306 300 296 299 300 297 295 293 292 292 290 290 290 291 291 290 290 290 289 289 288 288 287 287 287 288 289 290 291 292 294 297 299 302 306 307 307 309 311 313 313 312 311
303 303 303 303 304 303 303 304 301 296 296 296 295 293 292 291 290 290 291 291 291 291 291 291 290 290 289 287 287 287 286 287 288 289 290 292 293 295 298 302 305 308 309 309 310 312 315 315 317